Wetterdaten: Samstag, 04.02.2023
Datum Zeit Temp. 2m Temp +5 cm Feuchte A. Luftdruck Regen Wind Richtung Richtung Sonnenschein UV Solar Taupunkt Windchill Windben
04.02.2023 00:00 6,4 C 5,6 C 92 % 1033,0 hPa 0,0 l/m 1,6 km/h (1 Bft) W-SW 247 0 min 0,0 UV-I 0 W/m 5,2 C 6,4 C 3,2 km/h (1 Bft)
04.02.2023 00:01 6,5 C 5,6 C 92 % 1032,9 hPa 0,0 l/m 0,0 km/h (0 Bft) W-SW 247 0 min 0,0 UV-I 0 W/m 5,3 C 6,5 C 1,6 km/h (1 Bft)
04.02.2023 00:02 6,4 C 5,6 C 92 % 1032,9 hPa 0,0 l/m 1,6 km/h (1 Bft) W-SW 247 0 min 0,0 UV-I 0 W/m 5,2 C 6,4 C 3,2 km/h (1 Bft)
04.02.2023 00:03 6,4 C 5,6 C 92 % 1032,9 hPa 0,0 l/m 3,2 km/h (1 Bft) W-SW 247 0 min 0,0 UV-I 0 W/m 5,2 C 6,4 C 6,4 km/h (2 Bft)
04.02.2023 00:04 6,4 C 5,6 C 92 % 1032,9 hPa 0,0 l/m 0,0 km/h (0 Bft) W-SW 247 0 min 0,0 UV-I 0 W/m 5,2 C 6,4 C 1,6 km/h (1 Bft)
04.02.2023 00:05 6,4 C 5,6 C 92 % 1032,9 hPa 0,0 l/m 3,2 km/h (1 Bft) W-SW 247 0 min 0,0 UV-I 0 W/m 5,2 C 6,4 C 3,2 km/h (1 Bft)
04.02.2023 00:06 6,4 C 5,6 C 92 % 1032,9 hPa 0,0 l/m 1,6 km/h (1 Bft) W-SW 247 0 min 0,0 UV-I 0 W/m 5,2 C 6,4 C 3,2 km/h (1 Bft)
04.02.2023 00:07 6,4 C 5,6 C 92 % 1033,0 hPa 0,0 l/m 1,6 km/h (1 Bft) W-SW 247 0 min 0,0 UV-I 0 W/m 5,2 C 6,4 C 3,2 km/h (1 Bft)
04.02.2023 00:08 6,4 C 5,6 C 92 % 1032,9 hPa 0,0 l/m 1,6 km/h (1 Bft) W-SW 247 0 min 0,0 UV-I 0 W/m 5,2 C 6,4 C 3,2 km/h (1 Bft)
04.02.2023 00:09 6,4 C 5,6 C 92 % 1033,0 hPa 0,0 l/m 1,6 km/h (1 Bft) W-SW 247 0 min 0,0 UV-I 0 W/m 5,2 C 6,4 C 4,8 km/h (1 Bft)
04.02.2023 00:10 6,4 C 5,6 C 92 % 1033,0 hPa 0,0 l/m 1,6 km/h (1 Bft) W 270 0 min 0,0 UV-I 0 W/m 5,2 C 6,4 C 4,8 km/h (1 Bft)
04.02.2023 00:11 6,4 C 5,6 C 92 % 1032,9 hPa 0,0 l/m 3,2 km/h (1 Bft) W 270 0 min 0,0 UV-I 0 W/m 5,2 C 6,4 C 3,2 km/h (1 Bft)
04.02.2023 00:12 6,4 C 5,6 C 92 % 1032,8 hPa 0,0 l/m 3,2 km/h (1 Bft) W 270 0 min 0,0 UV-I 0 W/m 5,2 C 6,4 C 6,4 km/h (2 Bft)
04.02.2023 00:13 6,4 C 5,6 C 92 % 1032,9 hPa 0,0 l/m 3,2 km/h (1 Bft) W-NW 292 0 min 0,0 UV-I 0 W/m 5,2 C 6,4 C 6,4 km/h (2 Bft)
04.02.2023 00:14 6,4 C 5,6 C 92 % 1033,0 hPa 0,0 l/m 3,2 km/h (1 Bft) W-NW 292 0 min 0,0 UV-I 0 W/m 5,2 C 6,4 C 6,4 km/h (2 Bft)
04.02.2023 00:15 6,4 C 5,6 C 92 % 1032,9 hPa 0,0 l/m 3,2 km/h (1 Bft) NW 315 0 min 0,0 UV-I 0 W/m 5,2 C 6,4 C 3,2 km/h (1 Bft)
04.02.2023 00:16 6,5 C 5,6 C 92 % 1033,0 hPa 0,0 l/m 3,2 km/h (1 Bft) W 270 0 min 0,0 UV-I 0 W/m 5,3 C 6,5 C 6,4 km/h (2 Bft)
04.02.2023 00:17 6,4 C 5,6 C 92 % 1033,0 hPa 0,0 l/m 1,6 km/h (1 Bft) N 360 0 min 0,0 UV-I 0 W/m 5,2 C 6,4 C 3,2 km/h (1 Bft)
04.02.2023 00:18 6,4 C 5,6 C 92 % 1033,0 hPa 0,0 l/m 1,6 km/h (1 Bft) W 270 0 min 0,0 UV-I 0 W/m 5,2 C 6,4 C 4,8 km/h (1 Bft)
04.02.2023 00:19 6,4 C 5,6 C 92 % 1033,0 hPa 0,0 l/m 1,6 km/h (1 Bft) W 270 0 min 0,0 UV-I 0 W/m 5,2 C 6,4 C 4,8 km/h (1 Bft)
04.02.2023 00:20 6,4 C 5,6 C 92 % 1033,0 hPa 0,0 l/m 1,6 km/h (1 Bft) W 270 0 min 0,0 UV-I 0 W/m 5,2 C 6,4 C 3,2 km/h (1 Bft)
04.02.2023 00:21 6,4 C 5,6 C 92 % 1033,0 hPa 0,0 l/m 1,6 km/h (1 Bft) W 270 0 min 0,0 UV-I 0 W/m 5,2 C 6,4 C 4,8 km/h (1 Bft)
04.02.2023 00:22 6,4 C 5,6 C 92 % 1032,9 hPa 0,0 l/m 4,8 km/h (1 Bft) W 270 0 min 0,0 UV-I 0 W/m 5,2 C 6,4 C 11,3 km/h (2 Bft)
04.02.2023 00:23 6,4 C 5,6 C 92 % 1033,0 hPa 0,0 l/m 1,6 km/h (1 Bft) W 270 0 min 0,0 UV-I 0 W/m 5,2 C 6,4 C 11,3 km/h (2 Bft)
04.02.2023 00:24 6,4 C 5,6 C 92 % 1033,0 hPa 0,0 l/m 4,8 km/h (1 Bft) W 270 0 min 0,0 UV-I 0 W/m 5,2 C 6,4 C 8,0 km/h (2 Bft)
04.02.2023 00:25 6,4 C 5,6 C 92 % 1033,0 hPa 0,0 l/m 3,2 km/h (1 Bft) W-SW 247 0 min 0,0 UV-I 0 W/m 5,2 C 6,4 C 4,8 km/h (1 Bft)
04.02.2023 00:26 6,5 C 5,6 C 93 % 1033,0 hPa 0,0 l/m 1,6 km/h (1 Bft) W-SW 247 0 min 0,0 UV-I 0 W/m 5,5 C 6,5 C 3,2 km/h (1 Bft)
04.02.2023 00:27 6,4 C 5,6 C 92 % 1033,0 hPa 0,0 l/m 6,4 km/h (2 Bft) W 270 0 min 0,0 UV-I 0 W/m 5,2 C 6,4 C 9,7 km/h (2 Bft)
04.02.2023 00:28 6,4 C 5,6 C 93 % 1033,0 hPa 0,0 l/m 1,6 km/h (1 Bft) W 270 0 min 0,0 UV-I 0 W/m 5,4 C 6,4 C 3,2 km/h (1 Bft)
04.02.2023 00:29 6,4 C 5,6 C 93 % 1033,0 hPa 0,0 l/m 0,0 km/h (0 Bft) W 270 0 min 0,0 UV-I 0 W/m 5,4 C 6,4 C 1,6 km/h (1 Bft)
04.02.2023 00:30 6,4 C 5,6 C 92 % 1033,1 hPa 0,0 l/m 0,0 km/h (0 Bft) W 270 0 min 0,0 UV-I 0 W/m 5,2 C 6,4 C 1,6 km/h (1 Bft)
04.02.2023 00:31 6,4 C 5,6 C 92 % 1033,0 hPa 0,0 l/m 0,0 km/h (0 Bft) W 270 0 min 0,0 UV-I 0 W/m 5,2 C 6,4 C 1,6 km/h (1 Bft)
04.02.2023 00:32 6,4 C 5,6 C 92 % 1033,0 hPa 0,0 l/m 0,0 km/h (0 Bft) W 270 0 min 0,0 UV-I 0 W/m 5,2 C 6,4 C 1,6 km/h (1 Bft)
04.02.2023 00:33 6,4 C 5,6 C 93 % 1033,0 hPa 0,2 l/m 1,6 km/h (1 Bft) W 270 0 min 0,0 UV-I 0 W/m 5,4 C 6,4 C 1,6 km/h (1 Bft)
04.02.2023 00:34 6,4 C 5,6 C 93 % 1033,1 hPa 0,0 l/m 0,0 km/h (0 Bft) W 270 0 min 0,0 UV-I 0 W/m 5,4 C 6,4 C 1,6 km/h (1 Bft)
04.02.2023 00:35 6,4 C 5,6 C 93 % 1033,1 hPa 0,0 l/m 0,0 km/h (0 Bft) W 270 0 min 0,0 UV-I 0 W/m 5,4 C 6,4 C 1,6 km/h (1 Bft)
04.02.2023 00:36 6,4 C 5,6 C 93 % 1033,1 hPa 0,0 l/m 0,0 km/h (0 Bft) W 270 0 min 0,0 UV-I 0 W/m 5,4 C 6,4 C 1,6 km/h (1 Bft)
04.02.2023 00:37 6,4 C 5,6 C 93 % 1033,1 hPa 0,0 l/m 0,0 km/h (0 Bft) N 0 0 min 0,0 UV-I 0 W/m 5,4 C 6,4 C 0,0 km/h (0 Bft)
04.02.2023 00:38 6,4 C 5,6 C 93 % 1033,1 hPa 0,0 l/m 0,0 km/h (0 Bft) N 0 0 min 0,0 UV-I 0 W/m 5,4 C 6,4 C 0,0 km/h (0 Bft)
04.02.2023 00:39 6,4 C 5,6 C 93 % 1033,1 hPa 0,0 l/m 0,0 km/h (0 Bft) N 0 0 min 0,0 UV-I 0 W/m 5,4 C 6,4 C 0,0 km/h (0 Bft)
04.02.2023 00:40 6,4 C 5,6 C 93 % 1033,1 hPa 0,0 l/m 0,0 km/h (0 Bft) N 0 0 min 0,0 UV-I 0 W/m 5,4 C 6,4 C 0,0 km/h (0 Bft)
04.02.2023 00:41 6,4 C 5,6 C 93 % 1033,2 hPa 0,0 l/m 0,0 km/h (0 Bft) W 270 0 min 0,0 UV-I 0 W/m 5,4 C 6,4 C 1,6 km/h (1 Bft)
04.02.2023 00:42 6,4 C 5,6 C 93 % 1033,1 hPa 0,0 l/m 1,6 km/h (1 Bft) W 270 0 min 0,0 UV-I 0 W/m 5,4 C 6,4 C 3,2 km/h (1 Bft)
04.02.2023 00:43 6,4 C 5,6 C 93 % 1033,2 hPa 0,0 l/m 4,8 km/h (1 Bft) N-NW 337 0 min 0,0 UV-I 0 W/m 5,4 C 6,4 C 6,4 km/h (2 Bft)
04.02.2023 00:44 6,4 C 5,6 C 93 % 1033,2 hPa 0,0 l/m 3,2 km/h (1 Bft) N-NW 337 0 min 0,0 UV-I 0 W/m 5,4 C 6,4 C 8,0 km/h (2 Bft)
04.02.2023 00:45 6,4 C 5,6 C 93 % 1033,3 hPa 0,0 l/m 4,8 km/h (1 Bft) N 360 0 min 0,0 UV-I 0 W/m 5,4 C 6,4 C 8,0 km/h (2 Bft)
04.02.2023 00:46 6,4 C 5,6 C 93 % 1033,2 hPa 0,0 l/m 6,4 km/h (2 Bft) N-NW 337 0 min 0,0 UV-I 0 W/m 5,4 C 6,4 C 8,0 km/h (2 Bft)
04.02.2023 00:47 6,4 C 5,6 C 93 % 1033,3 hPa 0,0 l/m 6,4 km/h (2 Bft) N 360 0 min 0,0 UV-I 0 W/m 5,4 C 6,4 C 8,0 km/h (2 Bft)
04.02.2023 00:48 6,4 C 5,6 C 93 % 1033,4 hPa 0,0 l/m 8,0 km/h (2 Bft) N-NW 337 0 min 0,0 UV-I 0 W/m 5,4 C 5,1 C 12,9 km/h (3 Bft)
04.02.2023 00:49 6,3 C 5,6 C 92 % 1033,4 hPa 0,0 l/m 8,0 km/h (2 Bft) N 360 0 min 0,0 UV-I 0 W/m 5,1 C 5,0 C 12,9 km/h (3 Bft)
04.02.2023 00:50 6,3 C 5,6 C 92 % 1033,3 hPa 0,0 l/m 8,0 km/h (2 Bft) N 360 0 min 0,0 UV-I 0 W/m 5,1 C 5,0 C 12,9 km/h (3 Bft)
04.02.2023 00:51 6,3 C 5,6 C 92 % 1033,4 hPa 0,0 l/m 11,3 km/h (2 Bft) N-NW 337 0 min 0,0 UV-I 0 W/m 5,1 C 2,7 C 17,7 km/h (3 Bft)
04.02.2023 00:52 6,3 C 5,6 C 92 % 1033,3 hPa 0,0 l/m 8,0 km/h (2 Bft) N-NW 337 0 min 0,0 UV-I 0 W/m 5,1 C 5,0 C 17,7 km/h (3 Bft)
04.02.2023 00:53 6,3 C 5,6 C 92 % 1033,4 hPa 0,0 l/m 9,7 km/h (2 Bft) N 360 0 min 0,0 UV-I 0 W/m 5,1 C 3,7 C 14,5 km/h (3 Bft)
04.02.2023 00:54 6,2 C 5,6 C 92 % 1033,3 hPa 0,0 l/m 4,8 km/h (1 Bft) N 360 0 min 0,0 UV-I 0 W/m 5,0 C 6,2 C 8,0 km/h (2 Bft)
04.02.2023 00:55 6,2 C 5,6 C 92 % 1033,4 hPa 0,0 l/m 4,8 km/h (1 Bft) W-NW 292 0 min 0,0 UV-I 0 W/m 5,0 C 6,2 C 8,0 km/h (2 Bft)
04.02.2023 00:56 6,2 C 5,0 C 92 % 1033,3 hPa 0,0 l/m 8,0 km/h (2 Bft) N 360 0 min 0,0 UV-I 0 W/m 5,0 C 4,9 C 16,1 km/h (3 Bft)
04.02.2023 00:57 6,2 C 5,0 C 92 % 1033,5 hPa 0,0 l/m 11,3 km/h (2 Bft) N-NW 337 0 min 0,0 UV-I 0 W/m 5,0 C 2,6 C 16,1 km/h (3 Bft)
04.02.2023 00:58 6,1 C 5,0 C 92 % 1033,4 hPa 0,0 l/m 12,9 km/h (3 Bft) N-NW 337 0 min 0,0 UV-I 0 W/m 4,9 C 1,5 C 17,7 km/h (3 Bft)
04.02.2023 00:59 6,1 C 5,0 C 92 % 1033,4 hPa 0,0 l/m 8,0 km/h (2 Bft) N-NW 337 0 min 0,0 UV-I 0 W/m 4,9 C 4,8 C 14,5 km/h (3 Bft)
04.02.2023 01:00 6,1 C 5,0 C 92 % 1033,5 hPa 0,0 l/m 8,0 km/h (2 Bft) N-NW 337 0 min 0,0 UV-I 0 W/m 4,9 C 4,8 C 19,3 km/h (3 Bft)
04.02.2023 01:01 6,1 C 5,0 C 92 % 1033,4 hPa 0,0 l/m 4,8 km/h (1 Bft) N-NW 337 0 min 0,0 UV-I 0 W/m 4,9 C 6,1 C 19,3 km/h (3 Bft)
04.02.2023 01:02 6,0 C 5,0 C 92 % 1033,4 hPa 0,0 l/m 9,7 km/h (2 Bft) NW 315 0 min 0,0 UV-I 0 W/m 4,8 C 3,4 C 16,1 km/h (3 Bft)
04.02.2023 01:03 5,9 C 5,0 C 92 % 1033,4 hPa 0,0 l/m 9,7 km/h (2 Bft) NW 315 0 min 0,0 UV-I 0 W/m 4,7 C 3,3 C 12,9 km/h (3 Bft)
04.02.2023 01:04 5,9 C 5,0 C 92 % 1033,4 hPa 0,0 l/m 8,0 km/h (2 Bft) N-NW 337 0 min 0,0 UV-I 0 W/m 4,7 C 4,5 C 12,9 km/h (3 Bft)
04.02.2023 01:05 5,9 C 5,0 C 92 % 1033,4 hPa 0,0 l/m 9,7 km/h (2 Bft) NW 315 0 min 0,0 UV-I 0 W/m 4,7 C 3,3 C 16,1 km/h (3 Bft)
04.02.2023 01:06 5,9 C 5,0 C 92 % 1033,4 hPa 0,0 l/m 8,0 km/h (2 Bft) NW 315 0 min 0,0 UV-I 0 W/m 4,7 C 4,5 C 12,9 km/h (3 Bft)
04.02.2023 01:07 5,8 C 5,0 C 92 % 1033,4 hPa 0,0 l/m 14,5 km/h (3 Bft) NW 315 0 min 0,0 UV-I 0 W/m 4,6 C 0,3 C 19,3 km/h (3 Bft)
04.02.2023 01:08 5,8 C 5,0 C 92 % 1033,4 hPa 0,0 l/m 11,3 km/h (2 Bft) W-NW 292 0 min 0,0 UV-I 0 W/m 4,6 C 2,1 C 14,5 km/h (3 Bft)
04.02.2023 01:09 5,8 C 5,0 C 92 % 1033,4 hPa 0,0 l/m 11,3 km/h (2 Bft) NW 315 0 min 0,0 UV-I 0 W/m 4,6 C 2,1 C 20,9 km/h (4 Bft)
04.02.2023 01:10 5,8 C 5,0 C 92 % 1033,4 hPa 0,0 l/m 12,9 km/h (3 Bft) NW 315 0 min 0,0 UV-I 0 W/m 4,6 C 1,2 C 20,9 km/h (4 Bft)
04.02.2023 01:11 5,7 C 5,0 C 92 % 1033,4 hPa 0,0 l/m 8,0 km/h (2 Bft) NW 315 0 min 0,0 UV-I 0 W/m 4,5 C 4,3 C 20,9 km/h (4 Bft)
04.02.2023 01:12 5,7 C 5,0 C 92 % 1033,4 hPa 0,0 l/m 8,0 km/h (2 Bft) NW 315 0 min 0,0 UV-I 0 W/m 4,5 C 4,3 C 14,5 km/h (3 Bft)
04.02.2023 01:13 5,7 C 5,0 C 92 % 1033,4 hPa 0,0 l/m 8,0 km/h (2 Bft) NW 315 0 min 0,0 UV-I 0 W/m 4,5 C 4,3 C 14,5 km/h (3 Bft)
04.02.2023 01:14 5,7 C 5,0 C 92 % 1033,4 hPa 0,0 l/m 8,0 km/h (2 Bft) NW 315 0 min 0,0 UV-I 0 W/m 4,5 C 4,3 C 12,9 km/h (3 Bft)
04.02.2023 01:15 5,7 C 5,0 C 92 % 1033,4 hPa 0,0 l/m 6,4 km/h (2 Bft) NW 315 0 min 0,0 UV-I 0 W/m 4,5 C 5,7 C 11,3 km/h (2 Bft)
04.02.2023 01:16 5,6 C 5,0 C 92 % 1033,4 hPa 0,0 l/m 9,7 km/h (2 Bft) NW 315 0 min 0,0 UV-I 0 W/m 4,4 C 2,9 C 14,5 km/h (3 Bft)
04.02.2023 01:17 5,6 C 4,4 C 92 % 1033,3 hPa 0,0 l/m 8,0 km/h (2 Bft) W-NW 292 0 min 0,0 UV-I 0 W/m 4,4 C 4,2 C 12,9 km/h (3 Bft)
04.02.2023 01:18 5,6 C 4,4 C 92 % 1033,4 hPa 0,0 l/m 6,4 km/h (2 Bft) W-NW 292 0 min 0,0 UV-I 0 W/m 4,4 C 5,6 C 11,3 km/h (2 Bft)
04.02.2023 01:19 5,6 C 4,4 C 92 % 1033,3 hPa 0,0 l/m 6,4 km/h (2 Bft) W-NW 292 0 min 0,0 UV-I 0 W/m 4,4 C 5,6 C 11,3 km/h (2 Bft)
04.02.2023 01:20 5,6 C 4,4 C 92 % 1033,3 hPa 0,0 l/m 4,8 km/h (1 Bft) W-NW 292 0 min 0,0 UV-I 0 W/m 4,4 C 5,6 C 9,7 km/h (2 Bft)
04.02.2023 01:21 5,5 C 4,4 C 92 % 1033,3 hPa 0,0 l/m 4,8 km/h (1 Bft) N-NW 337 0 min 0,0 UV-I 0 W/m 4,3 C 5,5 C 11,3 km/h (2 Bft)
04.02.2023 01:22 5,5 C 4,4 C 92 % 1033,4 hPa 0,0 l/m 1,6 km/h (1 Bft) N-NW 337 0 min 0,0 UV-I 0 W/m 4,3 C 5,5 C 4,8 km/h (1 Bft)
04.02.2023 01:23 5,5 C 4,4 C 92 % 1033,3 hPa 0,0 l/m 0,0 km/h (0 Bft) N-NW 337 0 min 0,0 UV-I 0 W/m 4,3 C 5,5 C 1,6 km/h (1 Bft)
04.02.2023 01:24 5,5 C 4,4 C 92 % 1033,3 hPa 0,0 l/m 1,6 km/h (1 Bft) N-NW 337 0 min 0,0 UV-I 0 W/m 4,3 C 5,5 C 3,2 km/h (1 Bft)
04.02.2023 01:25 5,5 C 4,4 C 92 % 1033,3 hPa 0,0 l/m 0,0 km/h (0 Bft) N-NW 337 0 min 0,0 UV-I 0 W/m 4,3 C 5,5 C 1,6 km/h (1 Bft)
04.02.2023 01:26 5,4 C 4,4 C 92 % 1033,4 hPa 0,0 l/m 4,8 km/h (1 Bft) NW 315 0 min 0,0 UV-I 0 W/m 4,2 C 5,4 C 8,0 km/h (2 Bft)
04.02.2023 01:27 5,4 C 4,4 C 92 % 1033,4 hPa 0,0 l/m 6,4 km/h (2 Bft) NW 315 0 min 0,0 UV-I 0 W/m 4,2 C 5,4 C 12,9 km/h (3 Bft)
04.02.2023 01:28 5,4 C 4,4 C 92 % 1033,4 hPa 0,0 l/m 9,7 km/h (2 Bft) W-NW 292 0 min 0,0 UV-I 0 W/m 4,2 C 2,7 C 12,9 km/h (3 Bft)
04.02.2023 01:29 5,4 C 4,4 C 92 % 1033,4 hPa 0,0 l/m 4,8 km/h (1 Bft) W-NW 292 0 min 0,0 UV-I 0 W/m 4,2 C 5,4 C 9,7 km/h (2 Bft)
04.02.2023 01:30 5,4 C 4,4 C 92 % 1033,5 hPa 0,0 l/m 4,8 km/h (1 Bft) W-NW 292 0 min 0,0 UV-I 0 W/m 4,2 C 5,4 C 11,3 km/h (2 Bft)
04.02.2023 01:31 5,4 C 4,4 C 92 % 1033,4 hPa 0,0 l/m 8,0 km/h (2 Bft) W-NW 292 0 min 0,0 UV-I 0 W/m 4,2 C 4,0 C 14,5 km/h (3 Bft)
04.02.2023 01:32 5,4 C 4,4 C 92 % 1033,5 hPa 0,0 l/m 4,8 km/h (1 Bft) NW 315 0 min 0,0 UV-I 0 W/m 4,2 C 5,4 C 8,0 km/h (2 Bft)
04.02.2023 01:33 5,4 C 4,4 C 92 % 1033,4 hPa 0,0 l/m 6,4 km/h (2 Bft) NW 315 0 min 0,0 UV-I 0 W/m 4,2 C 5,4 C 11,3 km/h (2 Bft)
04.02.2023 01:34 5,4 C 4,4 C 92 % 1033,4 hPa 0,0 l/m 6,4 km/h (2 Bft) W-NW 292 0 min 0,0 UV-I 0 W/m 4,2 C 5,4 C 14,5 km/h (3 Bft)
04.02.2023 01:35 5,4 C 4,4 C 92 % 1033,4 hPa 0,0 l/m 4,8 km/h (1 Bft) W 270 0 min 0,0 UV-I 0 W/m 4,2 C 5,4 C 14,5 km/h (3 Bft)
04.02.2023 01:36 5,4 C 4,4 C 92 % 1033,4 hPa 0,0 l/m 6,4 km/h (2 Bft) W-NW 292 0 min 0,0 UV-I 0 W/m 4,2 C 5,4 C 9,7 km/h (2 Bft)
04.02.2023 01:37 5,4 C 4,4 C 92 % 1033,4 hPa 0,0 l/m 6,4 km/h (2 Bft) N-NW 337 0 min 0,0 UV-I 0 W/m 4,2 C 5,4 C 12,9 km/h (3 Bft)
04.02.2023 01:38 5,3 C 4,4 C 92 % 1033,5 hPa 0,0 l/m 1,6 km/h (1 Bft) NW 315 0 min 0,0 UV-I 0 W/m 4,1 C 5,3 C 6,4 km/h (2 Bft)
04.02.2023 01:39 5,3 C 4,4 C 92 % 1033,5 hPa 0,0 l/m 6,4 km/h (2 Bft) W-NW 292 0 min 0,0 UV-I 0 W/m 4,1 C 5,3 C 11,3 km/h (2 Bft)
04.02.2023 01:40 5,3 C 4,4 C 92 % 1033,4 hPa 0,0 l/m 1,6 km/h (1 Bft) W-NW 292 0 min 0,0 UV-I 0 W/m 4,1 C 5,3 C 4,8 km/h (1 Bft)
04.02.2023 01:41 5,3 C 4,4 C 92 % 1033,5 hPa 0,0 l/m 6,4 km/h (2 Bft) W-NW 292 0 min 0,0 UV-I 0 W/m 4,1 C 5,3 C 16,1 km/h (3 Bft)
04.02.2023 01:42 5,3 C 4,4 C 92 % 1033,4 hPa 0,0 l/m 12,9 km/h (3 Bft) W-NW 292 0 min 0,0 UV-I 0 W/m 4,1 C 0,6 C 19,3 km/h (3 Bft)
04.02.2023 01:43 5,3 C 4,4 C 92 % 1033,4 hPa 0,0 l/m 8,0 km/h (2 Bft) W-NW 292 0 min 0,0 UV-I 0 W/m 4,1 C 3,9 C 16,1 km/h (3 Bft)
04.02.2023 01:44 5,3 C 4,4 C 92 % 1033,5 hPa 0,0 l/m 6,4 km/h (2 Bft) W-NW 292 0 min 0,0 UV-I 0 W/m 4,1 C 5,3 C 11,3 km/h (2 Bft)
04.02.2023 01:45 5,3 C 4,4 C 92 % 1033,6 hPa 0,0 l/m 6,4 km/h (2 Bft) W-NW 292 0 min 0,0 UV-I 0 W/m 4,1 C 5,3 C 9,7 km/h (2 Bft)
04.02.2023 01:46 5,3 C 4,4 C 92 % 1033,5 hPa 0,0 l/m 3,2 km/h (1 Bft) W 270 0 min 0,0 UV-I 0 W/m 4,1 C 5,3 C 12,9 km/h (3 Bft)
04.02.2023 01:47 5,3 C 4,4 C 92 % 1033,4 hPa 0,0 l/m 6,4 km/h (2 Bft) SW 225 0 min 0,0 UV-I 0 W/m 4,1 C 5,3 C 11,3 km/h (2 Bft)
04.02.2023 01:48 5,3 C 4,4 C 92 % 1033,6 hPa 0,0 l/m 9,7 km/h (2 Bft) NW 315 0 min 0,0 UV-I 0 W/m 4,1 C 2,6 C 16,1 km/h (3 Bft)
04.02.2023 01:49 5,3 C 4,4 C 92 % 1033,5 hPa 0,0 l/m 11,3 km/h (2 Bft) W-NW 292 0 min 0,0 UV-I 0 W/m 4,1 C 1,5 C 16,1 km/h (3 Bft)
04.02.2023 01:50 5,3 C 4,4 C 92 % 1033,5 hPa 0,0 l/m 11,3 km/h (2 Bft) W 270 0 min 0,0 UV-I 0 W/m 4,1 C 1,5 C 19,3 km/h (3 Bft)
04.02.2023 01:51 5,2 C 4,4 C 92 % 1033,5 hPa 0,0 l/m 11,3 km/h (2 Bft) W-NW 292 0 min 0,0 UV-I 0 W/m 4,0 C 1,4 C 19,3 km/h (3 Bft)
04.02.2023 01:52 5,2 C 4,4 C 92 % 1033,6 hPa 0,0 l/m 6,4 km/h (2 Bft) N-NW 337 0 min 0,0 UV-I 0 W/m 4,0 C 5,2 C 17,7 km/h (3 Bft)
04.02.2023 01:53 5,2 C 4,4 C 92 % 1033,6 hPa 0,0 l/m 3,2 km/h (1 Bft) W-NW 292 0 min 0,0 UV-I 0 W/m 4,0 C 5,2 C 12,9 km/h (3 Bft)
04.02.2023 01:54 5,2 C 4,4 C 92 % 1033,6 hPa 0,0 l/m 6,4 km/h (2 Bft) W-NW 292 0 min 0,0 UV-I 0 W/m 4,0 C 5,2 C 12,9 km/h (3 Bft)
04.02.2023 01:55 5,2 C 4,4 C 92 % 1033,6 hPa 0,0 l/m 3,2 km/h (1 Bft) W 270 0 min 0,0 UV-I 0 W/m 4,0 C 5,2 C 9,7 km/h (2 Bft)
04.02.2023 01:56 5,2 C 4,4 C 92 % 1033,6 hPa 0,0 l/m 4,8 km/h (1 Bft) W 270 0 min 0,0 UV-I 0 W/m 4,0 C 5,2 C 11,3 km/h (2 Bft)
04.02.2023 01:57 5,2 C 4,4 C 92 % 1033,5 hPa 0,0 l/m 4,8 km/h (1 Bft) W 270 0 min 0,0 UV-I 0 W/m 4,0 C 5,2 C 16,1 km/h (3 Bft)
04.02.2023 01:58 5,2 C 4,4 C 92 % 1033,5 hPa 0,0 l/m 8,0 km/h (2 Bft) NW 315 0 min 0,0 UV-I 0 W/m 4,0 C 3,8 C 17,7 km/h (3 Bft)
04.02.2023 01:59 5,2 C 4,4 C 92 % 1033,5 hPa 0,0 l/m 6,4 km/h (2 Bft) W-NW 292 0 min 0,0 UV-I 0 W/m 4,0 C 5,2 C 12,9 km/h (3 Bft)
04.02.2023 02:00 5,2 C 4,4 C 92 % 1033,6 hPa 0,0 l/m 8,0 km/h (2 Bft) W 270 0 min 0,0 UV-I 0 W/m 4,0 C 3,8 C 17,7 km/h (3 Bft)
04.02.2023 02:01 5,2 C 4,4 C 92 % 1033,6 hPa 0,0 l/m 4,8 km/h (1 Bft) N-NW 337 0 min 0,0 UV-I 0 W/m 4,0 C 5,2 C 9,7 km/h (2 Bft)
04.02.2023 02:02 5,1 C 4,4 C 92 % 1033,6 hPa 0,0 l/m 8,0 km/h (2 Bft) W 270 0 min 0,0 UV-I 0 W/m 3,9 C 3,7 C 16,1 km/h (3 Bft)
04.02.2023 02:03 5,1 C 4,4 C 92 % 1033,6 hPa 0,0 l/m 9,7 km/h (2 Bft) W 270 0 min 0,0 UV-I 0 W/m 3,9 C 2,4 C 14,5 km/h (3 Bft)
04.02.2023 02:04 5,1 C 4,4 C 92 % 1033,5 hPa 0,0 l/m 6,4 km/h (2 Bft) NW 315 0 min 0,0 UV-I 0 W/m 3,9 C 5,1 C 14,5 km/h (3 Bft)
04.02.2023 02:05 5,1 C 4,4 C 92 % 1033,6 hPa 0,0 l/m 6,4 km/h (2 Bft) W 270 0 min 0,0 UV-I 0 W/m 3,9 C 5,1 C 12,9 km/h (3 Bft)
04.02.2023 02:06 5,1 C 4,4 C 92 % 1033,6 hPa 0,0 l/m 6,4 km/h (2 Bft) W-NW 292 0 min 0,0 UV-I 0 W/m 3,9 C 5,1 C 12,9 km/h (3 Bft)
04.02.2023 02:07 5,1 C 4,4 C 92 % 1033,6 hPa 0,0 l/m 4,8 km/h (1 Bft) NW 315 0 min 0,0 UV-I 0 W/m 3,9 C 5,1 C 11,3 km/h (2 Bft)
04.02.2023 02:08 5,1 C 4,4 C 92 % 1033,7 hPa 0,0 l/m 4,8 km/h (1 Bft) W-NW 292 0 min 0,0 UV-I 0 W/m 3,9 C 5,1 C 6,4 km/h (2 Bft)
04.02.2023 02:09 5,1 C 4,4 C 92 % 1033,6 hPa 0,0 l/m 6,4 km/h (2 Bft) W-NW 292 0 min 0,0 UV-I 0 W/m 3,9 C 5,1 C 12,9 km/h (3 Bft)
04.02.2023 02:10 5,1 C 4,4 C 92 % 1033,5 hPa 0,0 l/m 8,0 km/h (2 Bft) W-NW 292 0 min 0,0 UV-I 0 W/m 3,9 C 3,7 C 17,7 km/h (3 Bft)
04.02.2023 02:11 5,1 C 4,4 C 92 % 1033,7 hPa 0,0 l/m 8,0 km/h (2 Bft) W-NW 292 0 min 0,0 UV-I 0 W/m 3,9 C 3,7 C 16,1 km/h (3 Bft)
04.02.2023 02:12 5,1 C 4,4 C 92 % 1033,6 hPa 0,0 l/m 8,0 km/h (2 Bft) W-NW 292 0 min 0,0 UV-I 0 W/m 3,9 C 3,7 C 16,1 km/h (3 Bft)
04.02.2023 02:13 5,0 C 4,4 C 92 % 1033,5 hPa 0,0 l/m 8,0 km/h (2 Bft) W-SW 247 0 min 0,0 UV-I 0 W/m 3,8 C 3,6 C 16,1 km/h (3 Bft)
04.02.2023 02:14 5,1 C 4,4 C 92 % 1033,6 hPa 0,0 l/m 6,4 km/h (2 Bft) W 270 0 min 0,0 UV-I 0 W/m 3,9 C 5,1 C 12,9 km/h (3 Bft)
04.02.2023 02:15 5,0 C 4,4 C 92 % 1033,7 hPa 0,0 l/m 6,4 km/h (2 Bft) NW 315 0 min 0,0 UV-I 0 W/m 3,8 C 5,0 C 14,5 km/h (3 Bft)
04.02.2023 02:16 5,0 C 4,4 C 92 % 1033,6 hPa 0,0 l/m 1,6 km/h (1 Bft) W-NW 292 0 min 0,0 UV-I 0 W/m 3,8 C 5,0 C 3,2 km/h (1 Bft)
04.02.2023 02:17 5,0 C 4,4 C 92 % 1033,5 hPa 0,0 l/m 3,2 km/h (1 Bft) W-NW 292 0 min 0,0 UV-I 0 W/m 3,8 C 5,0 C 6,4 km/h (2 Bft)
04.02.2023 02:18 5,0 C 4,4 C 92 % 1033,6 hPa 0,0 l/m 6,4 km/h (2 Bft) W-NW 292 0 min 0,0 UV-I 0 W/m 3,8 C 5,0 C 14,5 km/h (3 Bft)
04.02.2023 02:19 5,0 C 4,4 C 92 % 1033,5 hPa 0,0 l/m 6,4 km/h (2 Bft) W-NW 292 0 min 0,0 UV-I 0 W/m 3,8 C 5,0 C 11,3 km/h (2 Bft)
04.02.2023 02:20 5,0 C 4,4 C 92 % 1033,6 hPa 0,0 l/m 3,2 km/h (1 Bft) SW 225 0 min 0,0 UV-I 0 W/m 3,8 C 5,0 C 4,8 km/h (1 Bft)
04.02.2023 02:21 5,0 C 4,4 C 92 % 1033,5 hPa 0,0 l/m 4,8 km/h (1 Bft) SW 225 0 min 0,0 UV-I 0 W/m 3,8 C 5,0 C 9,7 km/h (2 Bft)
04.02.2023 02:22 4,9 C 4,4 C 92 % 1033,6 hPa 0,0 l/m 4,8 km/h (1 Bft) W 270 0 min 0,0 UV-I 0 W/m 3,7 C 4,9 C 11,3 km/h (2 Bft)
04.02.2023 02:23 4,9 C 4,4 C 92 % 1033,6 hPa 0,0 l/m 6,4 km/h (2 Bft) NW 315 0 min 0,0 UV-I 0 W/m 3,7 C 4,9 C 11,3 km/h (2 Bft)
04.02.2023 02:24 4,9 C 4,4 C 92 % 1033,6 hPa 0,0 l/m 4,8 km/h (1 Bft) NW 315 0 min 0,0 UV-I 0 W/m 3,7 C 4,9 C 8,0 km/h (2 Bft)
04.02.2023 02:25 4,9 C 4,4 C 92 % 1033,6 hPa 0,0 l/m 3,2 km/h (1 Bft) W 270 0 min 0,0 UV-I 0 W/m 3,7 C 4,9 C 9,7 km/h (2 Bft)
04.02.2023 02:26 5,0 C 3,9 C 92 % 1033,6 hPa 0,0 l/m 3,2 km/h (1 Bft) W 270 0 min 0,0 UV-I 0 W/m 3,8 C 5,0 C 4,8 km/h (1 Bft)
04.02.2023 02:27 4,9 C 3,9 C 92 % 1033,7 hPa 0,0 l/m 8,0 km/h (2 Bft) W-NW 292 0 min 0,0 UV-I 0 W/m 3,7 C 3,5 C 16,1 km/h (3 Bft)
04.02.2023 02:28 4,9 C 4,4 C 92 % 1033,6 hPa 0,0 l/m 4,8 km/h (1 Bft) N-NW 337 0 min 0,0 UV-I 0 W/m 3,7 C 4,9 C 14,5 km/h (3 Bft)
04.02.2023 02:29 4,9 C 4,4 C 92 % 1033,6 hPa 0,0 l/m 4,8 km/h (1 Bft) W-NW 292 0 min 0,0 UV-I 0 W/m 3,7 C 4,9 C 14,5 km/h (3 Bft)
04.02.2023 02:30 4,9 C 4,4 C 92 % 1033,6 hPa 0,0 l/m 1,6 km/h (1 Bft) W-NW 292 0 min 0,0 UV-I 0 W/m 3,7 C 4,9 C 4,8 km/h (1 Bft)
04.02.2023 02:31 4,9 C 4,4 C 92 % 1033,7 hPa 0,0 l/m 6,4 km/h (2 Bft) NW 315 0 min 0,0 UV-I 0 W/m 3,7 C 4,9 C 11,3 km/h (2 Bft)
04.02.2023 02:32 4,9 C 4,4 C 92 % 1033,8 hPa 0,0 l/m 3,2 km/h (1 Bft) W-NW 292 0 min 0,0 UV-I 0 W/m 3,7 C 4,9 C 6,4 km/h (2 Bft)
04.02.2023 02:33 4,9 C 4,4 C 92 % 1033,8 hPa 0,0 l/m 3,2 km/h (1 Bft) W-NW 292 0 min 0,0 UV-I 0 W/m 3,7 C 4,9 C 6,4 km/h (2 Bft)
04.02.2023 02:34 4,9 C 4,4 C 92 % 1033,8 hPa 0,0 l/m 6,4 km/h (2 Bft) W-NW 292 0 min 0,0 UV-I 0 W/m 3,7 C 4,9 C 12,9 km/h (3 Bft)
04.02.2023 02:35 4,9 C 4,4 C 92 % 1033,8 hPa 0,0 l/m 1,6 km/h (1 Bft) NW 315 0 min 0,0 UV-I 0 W/m 3,7 C 4,9 C 4,8 km/h (1 Bft)
04.02.2023 02:36 4,9 C 4,4 C 92 % 1033,9 hPa 0,0 l/m 1,6 km/h (1 Bft) NW 315 0 min 0,0 UV-I 0 W/m 3,7 C 4,9 C 4,8 km/h (1 Bft)
04.02.2023 02:37 4,9 C 4,4 C 92 % 1033,9 hPa 0,0 l/m 3,2 km/h (1 Bft) N-NW 337 0 min 0,0 UV-I 0 W/m 3,7 C 4,9 C 6,4 km/h (2 Bft)
04.02.2023 02:38 4,9 C 4,4 C 92 % 1033,9 hPa 0,0 l/m 3,2 km/h (1 Bft) W-NW 292 0 min 0,0 UV-I 0 W/m 3,7 C 4,9 C 8,0 km/h (2 Bft)
04.02.2023 02:39 4,9 C 4,4 C 92 % 1033,8 hPa 0,0 l/m 4,8 km/h (1 Bft) NW 315 0 min 0,0 UV-I 0 W/m 3,7 C 4,9 C 8,0 km/h (2 Bft)
04.02.2023 02:40 4,9 C 4,4 C 92 % 1033,9 hPa 0,0 l/m 6,4 km/h (2 Bft) N-NW 337 0 min 0,0 UV-I 0 W/m 3,7 C 4,9 C 9,7 km/h (2 Bft)
04.02.2023 02:41 4,9 C 4,4 C 92 % 1033,9 hPa 0,0 l/m 3,2 km/h (1 Bft) NW 315 0 min 0,0 UV-I 0 W/m 3,7 C 4,9 C 4,8 km/h (1 Bft)
04.02.2023 02:42 4,9 C 4,4 C 92 % 1034,0 hPa 0,0 l/m 3,2 km/h (1 Bft) NW 315 0 min 0,0 UV-I 0 W/m 3,7 C 4,9 C 4,8 km/h (1 Bft)
04.02.2023 02:43 4,9 C 4,4 C 92 % 1033,9 hPa 0,0 l/m 3,2 km/h (1 Bft) N 360 0 min 0,0 UV-I 0 W/m 3,7 C 4,9 C 4,8 km/h (1 Bft)
04.02.2023 02:44 4,9 C 4,4 C 92 % 1033,9 hPa 0,0 l/m 4,8 km/h (1 Bft) NW 315 0 min 0,0 UV-I 0 W/m 3,7 C 4,9 C 14,5 km/h (3 Bft)
04.02.2023 02:45 4,9 C 4,4 C 92 % 1033,9 hPa 0,0 l/m 6,4 km/h (2 Bft) N-NW 337 0 min 0,0 UV-I 0 W/m 3,7 C 4,9 C 9,7 km/h (2 Bft)
04.02.2023 02:46 4,9 C 4,4 C 92 % 1033,9 hPa 0,0 l/m 3,2 km/h (1 Bft) N-NW 337 0 min 0,0 UV-I 0 W/m 3,7 C 4,9 C 6,4 km/h (2 Bft)
04.02.2023 02:47 4,9 C 4,4 C 92 % 1033,9 hPa 0,0 l/m 4,8 km/h (1 Bft) N-NW 337 0 min 0,0 UV-I 0 W/m 3,7 C 4,9 C 11,3 km/h (2 Bft)
04.02.2023 02:48 4,9 C 4,4 C 92 % 1034,0 hPa 0,0 l/m 9,7 km/h (2 Bft) N-NW 337 0 min 0,0 UV-I 0 W/m 3,7 C 2,2 C 14,5 km/h (3 Bft)
04.02.2023 02:49 4,9 C 4,4 C 92 % 1034,0 hPa 0,0 l/m 6,4 km/h (2 Bft) N-NW 337 0 min 0,0 UV-I 0 W/m 3,7 C 4,9 C 9,7 km/h (2 Bft)
04.02.2023 02:50 4,9 C 4,4 C 92 % 1033,9 hPa 0,0 l/m 6,4 km/h (2 Bft) N-NW 337 0 min 0,0 UV-I 0 W/m 3,7 C 4,9 C 9,7 km/h (2 Bft)
04.02.2023 02:51 4,9 C 4,4 C 92 % 1033,9 hPa 0,0 l/m 3,2 km/h (1 Bft) N-NW 337 0 min 0,0 UV-I 0 W/m 3,7 C 4,9 C 6,4 km/h (2 Bft)
04.02.2023 02:52 4,8 C 4,4 C 92 % 1034,0 hPa 0,0 l/m 3,2 km/h (1 Bft) N-NW 337 0 min 0,0 UV-I 0 W/m 3,6 C 4,8 C 6,4 km/h (2 Bft)
04.02.2023 02:53 4,9 C 4,4 C 92 % 1033,9 hPa 0,0 l/m 4,8 km/h (1 Bft) N-NW 337 0 min 0,0 UV-I 0 W/m 3,7 C 4,9 C 8,0 km/h (2 Bft)
04.02.2023 02:54 4,8 C 4,4 C 92 % 1034,0 hPa 0,0 l/m 4,8 km/h (1 Bft) N-NW 337 0 min 0,0 UV-I 0 W/m 3,6 C 4,8 C 8,0 km/h (2 Bft)
04.02.2023 02:55 4,8 C 4,4 C 92 % 1034,0 hPa 0,0 l/m 6,4 km/h (2 Bft) N-NW 337 0 min 0,0 UV-I 0 W/m 3,6 C 4,8 C 8,0 km/h (2 Bft)
04.02.2023 02:56 4,9 C 4,4 C 92 % 1034,0 hPa 0,0 l/m 4,8 km/h (1 Bft) N-NW 337 0 min 0,0 UV-I 0 W/m 3,7 C 4,9 C 8,0 km/h (2 Bft)
04.02.2023 02:57 4,8 C 4,4 C 92 % 1034,0 hPa 0,0 l/m 3,2 km/h (1 Bft) NW 315 0 min 0,0 UV-I 0 W/m 3,6 C 4,8 C 8,0 km/h (2 Bft)
04.02.2023 02:58 4,8 C 4,4 C 92 % 1034,0 hPa 0,0 l/m 1,6 km/h (1 Bft) NW 315 0 min 0,0 UV-I 0 W/m 3,6 C 4,8 C 1,6 km/h (1 Bft)
04.02.2023 02:59 4,8 C 4,4 C 92 % 1034,0 hPa 0,0 l/m 3,2 km/h (1 Bft) NW 315 0 min 0,0 UV-I 0 W/m 3,6 C 4,8 C 4,8 km/h (1 Bft)
04.02.2023 03:00 4,8 C 4,4 C 92 % 1034,1 hPa 0,0 l/m 3,2 km/h (1 Bft) NW 315 0 min 0,0 UV-I 0 W/m 3,6 C 4,8 C 6,4 km/h (2 Bft)
04.02.2023 03:01 4,8 C 4,4 C 92 % 1034,0 hPa 0,0 l/m 3,2 km/h (1 Bft) NW 315 0 min 0,0 UV-I 0 W/m 3,6 C 4,8 C 6,4 km/h (2 Bft)
04.02.2023 03:02 4,9 C 4,4 C 92 % 1034,0 hPa 0,0 l/m 3,2 km/h (1 Bft) NW 315 0 min 0,0 UV-I 0 W/m 3,7 C 4,9 C 6,4 km/h (2 Bft)
04.02.2023 03:03 4,8 C 4,4 C 92 % 1034,0 hPa 0,0 l/m 3,2 km/h (1 Bft) NW 315 0 min 0,0 UV-I 0 W/m 3,6 C 4,8 C 4,8 km/h (1 Bft)
04.02.2023 03:04 4,8 C 4,4 C 92 % 1034,1 hPa 0,0 l/m 3,2 km/h (1 Bft) N-NW 337 0 min 0,0 UV-I 0 W/m 3,6 C 4,8 C 4,8 km/h (1 Bft)
04.02.2023 03:05 4,8 C 3,9 C 92 % 1034,0 hPa 0,0 l/m 3,2 km/h (1 Bft) NW 315 0 min 0,0 UV-I 0 W/m 3,6 C 4,8 C 8,0 km/h (2 Bft)
04.02.2023 03:06 4,8 C 4,4 C 92 % 1034,1 hPa 0,0 l/m 4,8 km/h (1 Bft) NW 315 0 min 0,0 UV-I 0 W/m 3,6 C 4,8 C 8,0 km/h (2 Bft)
04.02.2023 03:07 4,8 C 4,4 C 92 % 1034,0 hPa 0,0 l/m 6,4 km/h (2 Bft) W-NW 292 0 min 0,0 UV-I 0 W/m 3,6 C 4,8 C 8,0 km/h (2 Bft)
04.02.2023 03:08 4,8 C 4,4 C 92 % 1034,0 hPa 0,0 l/m 4,8 km/h (1 Bft) NW 315 0 min 0,0 UV-I 0 W/m 3,6 C 4,8 C 12,9 km/h (3 Bft)
04.02.2023 03:09 4,8 C 3,9 C 92 % 1034,1 hPa 0,0 l/m 3,2 km/h (1 Bft) W-SW 247 0 min 0,0 UV-I 0 W/m 3,6 C 4,8 C 6,4 km/h (2 Bft)
04.02.2023 03:10 4,8 C 3,9 C 92 % 1034,1 hPa 0,0 l/m 1,6 km/h (1 Bft) W-NW 292 0 min 0,0 UV-I 0 W/m 3,6 C 4,8 C 6,4 km/h (2 Bft)
04.02.2023 03:11 4,8 C 3,9 C 92 % 1034,0 hPa 0,0 l/m 4,8 km/h (1 Bft) W-NW 292 0 min 0,0 UV-I 0 W/m 3,6 C 4,8 C 8,0 km/h (2 Bft)
04.02.2023 03:12 4,8 C 3,9 C 92 % 1034,0 hPa 0,0 l/m 3,2 km/h (1 Bft) W-NW 292 0 min 0,0 UV-I 0 W/m 3,6 C 4,8 C 6,4 km/h (2 Bft)
04.02.2023 03:13 4,8 C 3,9 C 92 % 1034,0 hPa 0,0 l/m 3,2 km/h (1 Bft) NW 315 0 min 0,0 UV-I 0 W/m 3,6 C 4,8 C 6,4 km/h (2 Bft)
04.02.2023 03:14 4,8 C 3,9 C 92 % 1034,0 hPa 0,0 l/m 3,2 km/h (1 Bft) NW 315 0 min 0,0 UV-I 0 W/m 3,6 C 4,8 C 6,4 km/h (2 Bft)
04.02.2023 03:15 4,8 C 3,9 C 92 % 1034,1 hPa 0,0 l/m 4,8 km/h (1 Bft) W-NW 292 0 min 0,0 UV-I 0 W/m 3,6 C 4,8 C 6,4 km/h (2 Bft)
04.02.2023 03:16 4,8 C 3,9 C 92 % 1034,0 hPa 0,0 l/m 1,6 km/h (1 Bft) W-NW 292 0 min 0,0 UV-I 0 W/m 3,6 C 4,8 C 4,8 km/h (1 Bft)
04.02.2023 03:17 4,8 C 3,9 C 92 % 1034,0 hPa 0,0 l/m 4,8 km/h (1 Bft) NW 315 0 min 0,0 UV-I 0 W/m 3,6 C 4,8 C 6,4 km/h (2 Bft)
04.02.2023 03:18 4,8 C 3,9 C 92 % 1034,0 hPa 0,0 l/m 1,6 km/h (1 Bft) N-NW 337 0 min 0,0 UV-I 0 W/m 3,6 C 4,8 C 6,4 km/h (2 Bft)
04.02.2023 03:19 4,8 C 3,9 C 92 % 1034,1 hPa 0,0 l/m 1,6 km/h (1 Bft) N-NW 337 0 min 0,0 UV-I 0 W/m 3,6 C 4,8 C 4,8 km/h (1 Bft)
04.02.2023 03:20 4,8 C 3,9 C 92 % 1034,0 hPa 0,0 l/m 1,6 km/h (1 Bft) N-NW 337 0 min 0,0 UV-I 0 W/m 3,6 C 4,8 C 3,2 km/h (1 Bft)
04.02.2023 03:21 4,8 C 3,9 C 92 % 1034,0 hPa 0,0 l/m 3,2 km/h (1 Bft) N-NW 337 0 min 0,0 UV-I 0 W/m 3,6 C 4,8 C 4,8 km/h (1 Bft)
04.02.2023 03:22 4,8 C 3,9 C 92 % 1034,0 hPa 0,0 l/m 3,2 km/h (1 Bft) NW 315 0 min 0,0 UV-I 0 W/m 3,6 C 4,8 C 4,8 km/h (1 Bft)
04.02.2023 03:23 4,8 C 3,9 C 92 % 1034,0 hPa 0,0 l/m 1,6 km/h (1 Bft) NW 315 0 min 0,0 UV-I 0 W/m 3,6 C 4,8 C 3,2 km/h (1 Bft)
04.02.2023 03:24 4,8 C 3,9 C 92 % 1034,0 hPa 0,0 l/m 3,2 km/h (1 Bft) NW 315 0 min 0,0 UV-I 0 W/m 3,6 C 4,8 C 6,4 km/h (2 Bft)
04.02.2023 03:25 4,7 C 3,9 C 92 % 1034,0 hPa 0,0 l/m 0,0 km/h (0 Bft) N 0 0 min 0,0 UV-I 0 W/m 3,5 C 4,7 C 0,0 km/h (0 Bft)
04.02.2023 03:26 4,8 C 3,9 C 92 % 1034,1 hPa 0,0 l/m 1,6 km/h (1 Bft) NW 315 0 min 0,0 UV-I 0 W/m 3,6 C 4,8 C 3,2 km/h (1 Bft)
04.02.2023 03:27 4,8 C 3,9 C 92 % 1034,0 hPa 0,0 l/m 1,6 km/h (1 Bft) NW 315 0 min 0,0 UV-I 0 W/m 3,6 C 4,8 C 3,2 km/h (1 Bft)
04.02.2023 03:28 4,8 C 3,9 C 92 % 1034,1 hPa 0,0 l/m 1,6 km/h (1 Bft) NW 315 0 min 0,0 UV-I 0 W/m 3,6 C 4,8 C 4,8 km/h (1 Bft)
04.02.2023 03:29 4,8 C 3,9 C 92 % 1034,0 hPa 0,0 l/m 1,6 km/h (1 Bft) NW 315 0 min 0,0 UV-I 0 W/m 3,6 C 4,8 C 4,8 km/h (1 Bft)
04.02.2023 03:30 4,7 C 3,9 C 92 % 1034,0 hPa 0,0 l/m 0,0 km/h (0 Bft) NW 315 0 min 0,0 UV-I 0 W/m 3,5 C 4,7 C 1,6 km/h (1 Bft)
04.02.2023 03:31 4,8 C 3,9 C 92 % 1034,1 hPa 0,0 l/m 1,6 km/h (1 Bft) NW 315 0 min 0,0 UV-I 0 W/m 3,6 C 4,8 C 3,2 km/h (1 Bft)
04.02.2023 03:32 4,7 C 3,9 C 92 % 1034,1 hPa 0,0 l/m 1,6 km/h (1 Bft) NW 315 0 min 0,0 UV-I 0 W/m 3,5 C 4,7 C 3,2 km/h (1 Bft)
04.02.2023 03:33 4,8 C 3,9 C 92 % 1034,0 hPa 0,0 l/m 4,8 km/h (1 Bft) N-NW 337 0 min 0,0 UV-I 0 W/m 3,6 C 4,8 C 6,4 km/h (2 Bft)
04.02.2023 03:34 4,7 C 3,9 C 92 % 1034,1 hPa 0,0 l/m 4,8 km/h (1 Bft) N 360 0 min 0,0 UV-I 0 W/m 3,5 C 4,7 C 8,0 km/h (2 Bft)
04.02.2023 03:35 4,7 C 3,9 C 92 % 1034,1 hPa 0,0 l/m 6,4 km/h (2 Bft) N-NW 337 0 min 0,0 UV-I 0 W/m 3,5 C 4,7 C 9,7 km/h (2 Bft)
04.02.2023 03:36 4,7 C 3,9 C 92 % 1034,1 hPa 0,0 l/m 4,8 km/h (1 Bft) NW 315 0 min 0,0 UV-I 0 W/m 3,5 C 4,7 C 8,0 km/h (2 Bft)
04.02.2023 03:37 4,7 C 3,9 C 92 % 1034,1 hPa 0,0 l/m 8,0 km/h (2 Bft) N 360 0 min 0,0 UV-I 0 W/m 3,5 C 3,3 C 9,7 km/h (2 Bft)
04.02.2023 03:38 4,7 C 3,9 C 92 % 1034,2 hPa 0,0 l/m 6,4 km/h (2 Bft) N 360 0 min 0,0 UV-I 0 W/m 3,5 C 4,7 C 8,0 km/h (2 Bft)
04.02.2023 03:39 4,7 C 3,9 C 92 % 1034,1 hPa 0,0 l/m 4,8 km/h (1 Bft) N 360 0 min 0,0 UV-I 0 W/m 3,5 C 4,7 C 6,4 km/h (2 Bft)
04.02.2023 03:40 4,7 C 3,9 C 92 % 1034,3 hPa 0,0 l/m 3,2 km/h (1 Bft) N 360 0 min 0,0 UV-I 0 W/m 3,5 C 4,7 C 4,8 km/h (1 Bft)
04.02.2023 03:41 4,7 C 3,9 C 92 % 1034,1 hPa 0,0 l/m 3,2 km/h (1 Bft) N 360 0 min 0,0 UV-I 0 W/m 3,5 C 4,7 C 4,8 km/h (1 Bft)
04.02.2023 03:42 4,7 C 3,9 C 92 % 1034,1 hPa 0,0 l/m 3,2 km/h (1 Bft) N 360 0 min 0,0 UV-I 0 W/m 3,5 C 4,7 C 6,4 km/h (2 Bft)
04.02.2023 03:43 4,7 C 3,9 C 92 % 1034,2 hPa 0,0 l/m 8,0 km/h (2 Bft) N 360 0 min 0,0 UV-I 0 W/m 3,5 C 3,3 C 12,9 km/h (3 Bft)
04.02.2023 03:44 4,7 C 3,9 C 92 % 1034,2 hPa 0,0 l/m 8,0 km/h (2 Bft) N 360 0 min 0,0 UV-I 0 W/m 3,5 C 3,3 C 11,3 km/h (2 Bft)
04.02.2023 03:45 4,7 C 3,9 C 92 % 1034,2 hPa 0,0 l/m 8,0 km/h (2 Bft) N 360 0 min 0,0 UV-I 0 W/m 3,5 C 3,3 C 11,3 km/h (2 Bft)
04.02.2023 03:46 4,6 C 3,9 C 92 % 1034,1 hPa 0,0 l/m 6,4 km/h (2 Bft) N-NW 337 0 min 0,0 UV-I 0 W/m 3,4 C 4,6 C 9,7 km/h (2 Bft)
04.02.2023 03:47 4,6 C 3,9 C 92 % 1034,3 hPa 0,0 l/m 4,8 km/h (1 Bft) N 360 0 min 0,0 UV-I 0 W/m 3,4 C 4,6 C 8,0 km/h (2 Bft)
04.02.2023 03:48 4,6 C 3,9 C 92 % 1034,2 hPa 0,0 l/m 8,0 km/h (2 Bft) N-NO 22 0 min 0,0 UV-I 0 W/m 3,4 C 3,2 C 11,3 km/h (2 Bft)
04.02.2023 03:49 4,6 C 3,9 C 92 % 1034,3 hPa 0,0 l/m 6,4 km/h (2 Bft) N 360 0 min 0,0 UV-I 0 W/m 3,4 C 4,6 C 9,7 km/h (2 Bft)
04.02.2023 03:50 4,6 C 3,9 C 92 % 1034,2 hPa 0,0 l/m 8,0 km/h (2 Bft) N 360 0 min 0,0 UV-I 0 W/m 3,4 C 3,2 C 14,5 km/h (3 Bft)
04.02.2023 03:51 4,5 C 3,9 C 92 % 1034,2 hPa 0,0 l/m 9,7 km/h (2 Bft) N 360 0 min 0,0 UV-I 0 W/m 3,3 C 1,7 C 14,5 km/h (3 Bft)
04.02.2023 03:52 4,4 C 3,9 C 92 % 1034,2 hPa 0,0 l/m 9,7 km/h (2 Bft) N-NO 22 0 min 0,0 UV-I 0 W/m 3,2 C 1,6 C 11,3 km/h (2 Bft)
04.02.2023 03:53 4,4 C 3,9 C 92 % 1034,3 hPa 0,0 l/m 6,4 km/h (2 Bft) N 360 0 min 0,0 UV-I 0 W/m 3,2 C 4,4 C 8,0 km/h (2 Bft)
04.02.2023 03:54 4,4 C 3,9 C 92 % 1034,3 hPa 0,0 l/m 6,4 km/h (2 Bft) N 360 0 min 0,0 UV-I 0 W/m 3,2 C 4,4 C 8,0 km/h (2 Bft)
04.02.2023 03:55 4,3 C 3,9 C 92 % 1034,3 hPa 0,0 l/m 4,8 km/h (1 Bft) N-NO 22 0 min 0,0 UV-I 0 W/m 3,1 C 4,3 C 8,0 km/h (2 Bft)
04.02.2023 03:56 4,3 C 3,9 C 92 % 1034,2 hPa 0,0 l/m 6,4 km/h (2 Bft) N 360 0 min 0,0 UV-I 0 W/m 3,1 C 4,3 C 9,7 km/h (2 Bft)
04.02.2023 03:57 4,3 C 3,9 C 92 % 1034,3 hPa 0,0 l/m 6,4 km/h (2 Bft) N 360 0 min 0,0 UV-I 0 W/m 3,1 C 4,3 C 8,0 km/h (2 Bft)
04.02.2023 03:58 4,3 C 3,9 C 92 % 1034,2 hPa 0,0 l/m 6,4 km/h (2 Bft) N 360 0 min 0,0 UV-I 0 W/m 3,1 C 4,3 C 11,3 km/h (2 Bft)
04.02.2023 03:59 4,3 C 3,3 C 92 % 1034,1 hPa 0,0 l/m 6,4 km/h (2 Bft) N-NW 337 0 min 0,0 UV-I 0 W/m 3,1 C 4,3 C 9,7 km/h (2 Bft)
04.02.2023 04:00 4,2 C 3,3 C 92 % 1034,2 hPa 0,0 l/m 6,4 km/h (2 Bft) N-NW 337 0 min 0,0 UV-I 0 W/m 3,0 C 4,2 C 9,7 km/h (2 Bft)
04.02.2023 04:01 4,2 C 3,3 C 92 % 1034,3 hPa 0,0 l/m 4,8 km/h (1 Bft) N-NW 337 0 min 0,0 UV-I 0 W/m 3,0 C 4,2 C 6,4 km/h (2 Bft)
04.02.2023 04:02 4,2 C 3,3 C 92 % 1034,3 hPa 0,0 l/m 4,8 km/h (1 Bft) N-NW 337 0 min 0,0 UV-I 0 W/m 3,0 C 4,2 C 6,4 km/h (2 Bft)
04.02.2023 04:03 4,2 C 3,3 C 92 % 1034,2 hPa 0,0 l/m 3,2 km/h (1 Bft) N-NW 337 0 min 0,0 UV-I 0 W/m 3,0 C 4,2 C 4,8 km/h (1 Bft)
04.02.2023 04:04 4,2 C 3,3 C 92 % 1034,2 hPa 0,0 l/m 1,6 km/h (1 Bft) N-NW 337 0 min 0,0 UV-I 0 W/m 3,0 C 4,2 C 4,8 km/h (1 Bft)
04.02.2023 04:05 4,2 C 3,3 C 92 % 1034,3 hPa 0,0 l/m 6,4 km/h (2 Bft) N-NW 337 0 min 0,0 UV-I 0 W/m 3,0 C 4,2 C 12,9 km/h (3 Bft)
04.02.2023 04:06 4,2 C 3,3 C 92 % 1034,2 hPa 0,0 l/m 4,8 km/h (1 Bft) NW 315 0 min 0,0 UV-I 0 W/m 3,0 C 4,2 C 8,0 km/h (2 Bft)
04.02.2023 04:07 4,1 C 3,3 C 92 % 1034,2 hPa 0,0 l/m 3,2 km/h (1 Bft) NW 315 0 min 0,0 UV-I 0 W/m 2,9 C 4,1 C 6,4 km/h (2 Bft)
04.02.2023 04:08 4,1 C 3,3 C 92 % 1034,2 hPa 0,0 l/m 4,8 km/h (1 Bft) N-NW 337 0 min 0,0 UV-I 0 W/m 2,9 C 4,1 C 11,3 km/h (2 Bft)
04.02.2023 04:09 4,1 C 3,3 C 92 % 1034,2 hPa 0,0 l/m 6,4 km/h (2 Bft) N 360 0 min 0,0 UV-I 0 W/m 2,9 C 4,1 C 8,0 km/h (2 Bft)
04.02.2023 04:10 4,1 C 3,3 C 92 % 1034,3 hPa 0,0 l/m 6,4 km/h (2 Bft) N 360 0 min 0,0 UV-I 0 W/m 2,9 C 4,1 C 8,0 km/h (2 Bft)
04.02.2023 04:11 4,1 C 3,3 C 92 % 1034,3 hPa 0,0 l/m 6,4 km/h (2 Bft) N-NW 337 0 min 0,0 UV-I 0 W/m 2,9 C 4,1 C 8,0 km/h (2 Bft)
04.02.2023 04:12 4,0 C 3,3 C 92 % 1034,3 hPa 0,0 l/m 4,8 km/h (1 Bft) N-NW 337 0 min 0,0 UV-I 0 W/m 2,8 C 4,0 C 6,4 km/h (2 Bft)
04.02.2023 04:13 4,0 C 3,3 C 92 % 1034,3 hPa 0,0 l/m 4,8 km/h (1 Bft) N-NW 337 0 min 0,0 UV-I 0 W/m 2,8 C 4,0 C 6,4 km/h (2 Bft)
04.02.2023 04:14 4,0 C 3,3 C 92 % 1034,3 hPa 0,0 l/m 3,2 km/h (1 Bft) N 360 0 min 0,0 UV-I 0 W/m 2,8 C 4,0 C 4,8 km/h (1 Bft)
04.02.2023 04:15 3,9 C 3,3 C 92 % 1034,4 hPa 0,0 l/m 3,2 km/h (1 Bft) N 360 0 min 0,0 UV-I 0 W/m 2,7 C 3,9 C 4,8 km/h (1 Bft)
04.02.2023 04:16 3,9 C 3,3 C 92 % 1034,3 hPa 0,0 l/m 4,8 km/h (1 Bft) N 360 0 min 0,0 UV-I 0 W/m 2,7 C 3,9 C 6,4 km/h (2 Bft)
04.02.2023 04:17 3,9 C 3,3 C 92 % 1034,4 hPa 0,0 l/m 3,2 km/h (1 Bft) N-NW 337 0 min 0,0 UV-I 0 W/m 2,7 C 3,9 C 6,4 km/h (2 Bft)
04.02.2023 04:18 4,0 C 3,3 C 92 % 1034,4 hPa 0,0 l/m 4,8 km/h (1 Bft) N-NW 337 0 min 0,0 UV-I 0 W/m 2,8 C 4,0 C 4,8 km/h (1 Bft)
04.02.2023 04:19 3,9 C 3,3 C 92 % 1034,4 hPa 0,0 l/m 4,8 km/h (1 Bft) N 360 0 min 0,0 UV-I 0 W/m 2,7 C 3,9 C 6,4 km/h (2 Bft)
04.02.2023 04:20 3,9 C 3,3 C 92 % 1034,4 hPa 0,0 l/m 4,8 km/h (1 Bft) N 360 0 min 0,0 UV-I 0 W/m 2,7 C 3,9 C 6,4 km/h (2 Bft)
04.02.2023 04:21 3,9 C 3,3 C 92 % 1034,4 hPa 0,0 l/m 4,8 km/h (1 Bft) N 360 0 min 0,0 UV-I 0 W/m 2,7 C 3,9 C 8,0 km/h (2 Bft)
04.02.2023 04:22 3,9 C 3,3 C 92 % 1034,4 hPa 0,0 l/m 1,6 km/h (1 Bft) N 360 0 min 0,0 UV-I 0 W/m 2,7 C 3,9 C 3,2 km/h (1 Bft)
04.02.2023 04:23 3,9 C 3,3 C 92 % 1034,4 hPa 0,0 l/m 3,2 km/h (1 Bft) N 360 0 min 0,0 UV-I 0 W/m 2,7 C 3,9 C 6,4 km/h (2 Bft)
04.02.2023 04:24 3,9 C 3,3 C 92 % 1034,5 hPa 0,0 l/m 1,6 km/h (1 Bft) N-NO 22 0 min 0,0 UV-I 0 W/m 2,7 C 3,9 C 3,2 km/h (1 Bft)
04.02.2023 04:25 3,9 C 3,3 C 92 % 1034,4 hPa 0,0 l/m 3,2 km/h (1 Bft) N 360 0 min 0,0 UV-I 0 W/m 2,7 C 3,9 C 4,8 km/h (1 Bft)
04.02.2023 04:26 3,9 C 3,3 C 92 % 1034,4 hPa 0,0 l/m 1,6 km/h (1 Bft) N 360 0 min 0,0 UV-I 0 W/m 2,7 C 3,9 C 6,4 km/h (2 Bft)
04.02.2023 04:27 3,9 C 3,3 C 92 % 1034,4 hPa 0,0 l/m 4,8 km/h (1 Bft) N 360 0 min 0,0 UV-I 0 W/m 2,7 C 3,9 C 8,0 km/h (2 Bft)
04.02.2023 04:28 3,9 C 3,3 C 92 % 1034,3 hPa 0,0 l/m 3,2 km/h (1 Bft) N 360 0 min 0,0 UV-I 0 W/m 2,7 C 3,9 C 8,0 km/h (2 Bft)
04.02.2023 04:29 3,8 C 3,3 C 92 % 1034,5 hPa 0,0 l/m 6,4 km/h (2 Bft) N 360 0 min 0,0 UV-I 0 W/m 2,6 C 3,8 C 8,0 km/h (2 Bft)
04.02.2023 04:30 3,8 C 3,3 C 92 % 1034,5 hPa 0,0 l/m 6,4 km/h (2 Bft) N 360 0 min 0,0 UV-I 0 W/m 2,6 C 3,8 C 9,7 km/h (2 Bft)
04.02.2023 04:31 3,8 C 3,3 C 92 % 1034,6 hPa 0,0 l/m 4,8 km/h (1 Bft) N-NW 337 0 min 0,0 UV-I 0 W/m 2,6 C 3,8 C 8,0 km/h (2 Bft)
04.02.2023 04:32 3,8 C 3,3 C 92 % 1034,6 hPa 0,0 l/m 4,8 km/h (1 Bft) N-NW 337 0 min 0,0 UV-I 0 W/m 2,6 C 3,8 C 8,0 km/h (2 Bft)
04.02.2023 04:33 3,8 C 3,3 C 92 % 1034,6 hPa 0,0 l/m 4,8 km/h (1 Bft) N 360 0 min 0,0 UV-I 0 W/m 2,6 C 3,8 C 6,4 km/h (2 Bft)
04.02.2023 04:34 3,8 C 3,3 C 92 % 1034,6 hPa 0,0 l/m 3,2 km/h (1 Bft) N 360 0 min 0,0 UV-I 0 W/m 2,6 C 3,8 C 6,4 km/h (2 Bft)
04.02.2023 04:35 3,8 C 3,3 C 92 % 1034,5 hPa 0,0 l/m 3,2 km/h (1 Bft) N 360 0 min 0,0 UV-I 0 W/m 2,6 C 3,8 C 4,8 km/h (1 Bft)
04.02.2023 04:36 3,8 C 3,3 C 92 % 1034,6 hPa 0,0 l/m 3,2 km/h (1 Bft) N-NO 22 0 min 0,0 UV-I 0 W/m 2,6 C 3,8 C 4,8 km/h (1 Bft)
04.02.2023 04:37 3,8 C 3,3 C 92 % 1034,7 hPa 0,0 l/m 4,8 km/h (1 Bft) N-NO 22 0 min 0,0 UV-I 0 W/m 2,6 C 3,8 C 6,4 km/h (2 Bft)
04.02.2023 04:38 3,8 C 3,3 C 92 % 1034,6 hPa 0,0 l/m 6,4 km/h (2 Bft) N-NO 22 0 min 0,0 UV-I 0 W/m 2,6 C 3,8 C 8,0 km/h (2 Bft)
04.02.2023 04:39 3,8 C 3,3 C 92 % 1034,7 hPa 0,0 l/m 4,8 km/h (1 Bft) N-NO 22 0 min 0,0 UV-I 0 W/m 2,6 C 3,8 C 8,0 km/h (2 Bft)
04.02.2023 04:40 3,8 C 3,3 C 92 % 1034,7 hPa 0,0 l/m 6,4 km/h (2 Bft) N 360 0 min 0,0 UV-I 0 W/m 2,6 C 3,8 C 12,9 km/h (3 Bft)
04.02.2023 04:41 3,7 C 3,3 C 92 % 1034,8 hPa 0,0 l/m 6,4 km/h (2 Bft) N 360 0 min 0,0 UV-I 0 W/m 2,5 C 3,7 C 8,0 km/h (2 Bft)
04.02.2023 04:42 3,7 C 3,3 C 92 % 1034,7 hPa 0,0 l/m 6,4 km/h (2 Bft) N-NO 22 0 min 0,0 UV-I 0 W/m 2,5 C 3,7 C 11,3 km/h (2 Bft)
04.02.2023 04:43 3,8 C 3,3 C 92 % 1034,9 hPa 0,0 l/m 4,8 km/h (1 Bft) N-NO 22 0 min 0,0 UV-I 0 W/m 2,6 C 3,8 C 6,4 km/h (2 Bft)
04.02.2023 04:44 3,7 C 3,3 C 92 % 1034,9 hPa 0,0 l/m 6,4 km/h (2 Bft) N-NO 22 0 min 0,0 UV-I 0 W/m 2,5 C 3,7 C 8,0 km/h (2 Bft)
04.02.2023 04:45 3,7 C 3,3 C 92 % 1034,8 hPa 0,0 l/m 6,4 km/h (2 Bft) N-NO 22 0 min 0,0 UV-I 0 W/m 2,5 C 3,7 C 8,0 km/h (2 Bft)
04.02.2023 04:46 3,7 C 3,3 C 92 % 1034,8 hPa 0,0 l/m 8,0 km/h (2 Bft) N 360 0 min 0,0 UV-I 0 W/m 2,5 C 2,2 C 12,9 km/h (3 Bft)
04.02.2023 04:47 3,7 C 3,3 C 92 % 1034,9 hPa 0,0 l/m 6,4 km/h (2 Bft) N-NO 22 0 min 0,0 UV-I 0 W/m 2,5 C 3,7 C 9,7 km/h (2 Bft)
04.02.2023 04:48 3,7 C 3,3 C 92 % 1034,9 hPa 0,0 l/m 6,4 km/h (2 Bft) N 360 0 min 0,0 UV-I 0 W/m 2,5 C 3,7 C 8,0 km/h (2 Bft)
04.02.2023 04:49 3,7 C 3,3 C 92 % 1034,9 hPa 0,0 l/m 4,8 km/h (1 Bft) N-NO 22 0 min 0,0 UV-I 0 W/m 2,5 C 3,7 C 8,0 km/h (2 Bft)
04.02.2023 04:50 3,7 C 3,3 C 92 % 1034,9 hPa 0,0 l/m 6,4 km/h (2 Bft) N-NO 22 0 min 0,0 UV-I 0 W/m 2,5 C 3,7 C 11,3 km/h (2 Bft)
04.02.2023 04:51 3,7 C 3,3 C 92 % 1035,0 hPa 0,0 l/m 6,4 km/h (2 Bft) N 360 0 min 0,0 UV-I 0 W/m 2,5 C 3,7 C 8,0 km/h (2 Bft)
04.02.2023 04:52 3,7 C 3,3 C 92 % 1034,9 hPa 0,0 l/m 3,2 km/h (1 Bft) N 360 0 min 0,0 UV-I 0 W/m 2,5 C 3,7 C 4,8 km/h (1 Bft)
04.02.2023 04:53 3,6 C 3,3 C 92 % 1034,9 hPa 0,0 l/m 4,8 km/h (1 Bft) N-NO 22 0 min 0,0 UV-I 0 W/m 2,4 C 3,6 C 8,0 km/h (2 Bft)
04.02.2023 04:54 3,6 C 3,3 C 92 % 1034,8 hPa 0,0 l/m 1,6 km/h (1 Bft) N-NO 22 0 min 0,0 UV-I 0 W/m 2,4 C 3,6 C 4,8 km/h (1 Bft)
04.02.2023 04:55 3,6 C 2,8 C 92 % 1034,9 hPa 0,0 l/m 1,6 km/h (1 Bft) N-NO 22 0 min 0,0 UV-I 0 W/m 2,4 C 3,6 C 4,8 km/h (1 Bft)
04.02.2023 04:56 3,6 C 2,8 C 92 % 1034,9 hPa 0,0 l/m 0,0 km/h (0 Bft) N-NO 22 0 min 0,0 UV-I 0 W/m 2,4 C 3,6 C 1,6 km/h (1 Bft)
04.02.2023 04:57 3,6 C 2,8 C 92 % 1034,8 hPa 0,0 l/m 1,6 km/h (1 Bft) N-NO 22 0 min 0,0 UV-I 0 W/m 2,4 C 3,6 C 3,2 km/h (1 Bft)
04.02.2023 04:58 3,6 C 2,8 C 92 % 1034,9 hPa 0,0 l/m 3,2 km/h (1 Bft) N-NO 22 0 min 0,0 UV-I 0 W/m 2,4 C 3,6 C 4,8 km/h (1 Bft)
04.02.2023 04:59 3,6 C 2,8 C 92 % 1034,9 hPa 0,0 l/m 1,6 km/h (1 Bft) N-NO 22 0 min 0,0 UV-I 0 W/m 2,4 C 3,6 C 3,2 km/h (1 Bft)
04.02.2023 05:00 3,6 C 2,8 C 92 % 1034,8 hPa 0,0 l/m 0,0 km/h (0 Bft) N-NO 22 0 min 0,0 UV-I 0 W/m 2,4 C 3,6 C 1,6 km/h (1 Bft)
04.02.2023 05:01 3,6 C 2,8 C 92 % 1034,9 hPa 0,0 l/m 0,0 km/h (0 Bft) N-NO 22 0 min 0,0 UV-I 0 W/m 2,4 C 3,6 C 1,6 km/h (1 Bft)
04.02.2023 05:02 3,6 C 2,8 C 92 % 1034,9 hPa 0,0 l/m 0,0 km/h (0 Bft) N-NO 22 0 min 0,0 UV-I 0 W/m 2,4 C 3,6 C 3,2 km/h (1 Bft)
04.02.2023 05:03 3,6 C 2,8 C 92 % 1034,9 hPa 0,0 l/m 1,6 km/h (1 Bft) N-NO 22 0 min 0,0 UV-I 0 W/m 2,4 C 3,6 C 4,8 km/h (1 Bft)
04.02.2023 05:04 3,6 C 2,8 C 92 % 1034,8 hPa 0,0 l/m 3,2 km/h (1 Bft) N-NO 22 0 min 0,0 UV-I 0 W/m 2,4 C 3,6 C 4,8 km/h (1 Bft)
04.02.2023 05:05 3,6 C 2,8 C 92 % 1034,9 hPa 0,0 l/m 3,2 km/h (1 Bft) N-NO 22 0 min 0,0 UV-I 0 W/m 2,4 C 3,6 C 4,8 km/h (1 Bft)
04.02.2023 05:06 3,6 C 2,8 C 92 % 1034,9 hPa 0,0 l/m 4,8 km/h (1 Bft) N-NO 22 0 min 0,0 UV-I 0 W/m 2,4 C 3,6 C 6,4 km/h (2 Bft)
04.02.2023 05:07 3,6 C 2,8 C 92 % 1034,9 hPa 0,0 l/m 1,6 km/h (1 Bft) N-NO 22 0 min 0,0 UV-I 0 W/m 2,4 C 3,6 C 3,2 km/h (1 Bft)
04.02.2023 05:08 3,5 C 2,8 C 92 % 1034,9 hPa 0,0 l/m 0,0 km/h (0 Bft) N-NO 22 0 min 0,0 UV-I 0 W/m 2,3 C 3,5 C 1,6 km/h (1 Bft)
04.02.2023 05:09 3,5 C 2,8 C 92 % 1034,9 hPa 0,0 l/m 0,0 km/h (0 Bft) N-NO 22 0 min 0,0 UV-I 0 W/m 2,3 C 3,5 C 1,6 km/h (1 Bft)
04.02.2023 05:10 3,5 C 2,8 C 92 % 1034,9 hPa 0,0 l/m 0,0 km/h (0 Bft) N-NO 22 0 min 0,0 UV-I 0 W/m 2,3 C 3,5 C 1,6 km/h (1 Bft)
04.02.2023 05:11 3,5 C 2,8 C 92 % 1034,9 hPa 0,0 l/m 1,6 km/h (1 Bft) N-NO 22 0 min 0,0 UV-I 0 W/m 2,3 C 3,5 C 3,2 km/h (1 Bft)
04.02.2023 05:12 3,5 C 2,8 C 92 % 1035,0 hPa 0,0 l/m 0,0 km/h (0 Bft) N-NO 22 0 min 0,0 UV-I 0 W/m 2,3 C 3,5 C 1,6 km/h (1 Bft)
04.02.2023 05:13 3,5 C 2,8 C 92 % 1034,9 hPa 0,0 l/m 0,0 km/h (0 Bft) N 0 0 min 0,0 UV-I 0 W/m 2,3 C 3,5 C 0,0 km/h (0 Bft)
04.02.2023 05:14 3,5 C 2,8 C 92 % 1035,0 hPa 0,0 l/m 0,0 km/h (0 Bft) N-NO 22 0 min 0,0 UV-I 0 W/m 2,3 C 3,5 C 1,6 km/h (1 Bft)
04.02.2023 05:15 3,5 C 2,8 C 92 % 1035,0 hPa 0,0 l/m 1,6 km/h (1 Bft) N-NO 22 0 min 0,0 UV-I 0 W/m 2,3 C 3,5 C 3,2 km/h (1 Bft)
04.02.2023 05:16 3,5 C 2,8 C 92 % 1035,0 hPa 0,0 l/m 1,6 km/h (1 Bft) N-NO 22 0 min 0,0 UV-I 0 W/m 2,3 C 3,5 C 3,2 km/h (1 Bft)
04.02.2023 05:17 3,5 C 2,8 C 92 % 1035,0 hPa 0,0 l/m 0,0 km/h (0 Bft) N-NO 22 0 min 0,0 UV-I 0 W/m 2,3 C 3,5 C 1,6 km/h (1 Bft)
04.02.2023 05:18 3,5 C 2,8 C 92 % 1035,0 hPa 0,0 l/m 0,0 km/h (0 Bft) N-NO 22 0 min 0,0 UV-I 0 W/m 2,3 C 3,5 C 1,6 km/h (1 Bft)
04.02.2023 05:19 3,5 C 2,8 C 92 % 1035,0 hPa 0,0 l/m 0,0 km/h (0 Bft) N 0 0 min 0,0 UV-I 0 W/m 2,3 C 3,5 C 0,0 km/h (0 Bft)
04.02.2023 05:20 3,5 C 2,8 C 92 % 1035,0 hPa 0,0 l/m 1,6 km/h (1 Bft) N-NO 22 0 min 0,0 UV-I 0 W/m 2,3 C 3,5 C 1,6 km/h (1 Bft)
04.02.2023 05:21 3,5 C 2,8 C 92 % 1035,0 hPa 0,0 l/m 0,0 km/h (0 Bft) N-NO 22 0 min 0,0 UV-I 0 W/m 2,3 C 3,5 C 1,6 km/h (1 Bft)
04.02.2023 05:22 3,4 C 2,8 C 92 % 1035,0 hPa 0,0 l/m 0,0 km/h (0 Bft) N 0 0 min 0,0 UV-I 0 W/m 2,2 C 3,4 C 0,0 km/h (0 Bft)
04.02.2023 05:23 3,4 C 2,8 C 92 % 1035,0 hPa 0,0 l/m 0,0 km/h (0 Bft) N 0 0 min 0,0 UV-I 0 W/m 2,2 C 3,4 C 0,0 km/h (0 Bft)
04.02.2023 05:24 3,5 C 2,8 C 92 % 1035,0 hPa 0,0 l/m 0,0 km/h (0 Bft) N-NO 22 0 min 0,0 UV-I 0 W/m 2,3 C 3,5 C 1,6 km/h (1 Bft)
04.02.2023 05:25 3,5 C 2,8 C 92 % 1035,0 hPa 0,0 l/m 1,6 km/h (1 Bft) N-NO 22 0 min 0,0 UV-I 0 W/m 2,3 C 3,5 C 3,2 km/h (1 Bft)
04.02.2023 05:26 3,5 C 2,8 C 92 % 1035,0 hPa 0,0 l/m 0,0 km/h (0 Bft) N 0 0 min 0,0 UV-I 0 W/m 2,3 C 3,5 C 0,0 km/h (0 Bft)
04.02.2023 05:27 3,4 C 2,8 C 92 % 1035,0 hPa 0,0 l/m 1,6 km/h (1 Bft) N-NO 22 0 min 0,0 UV-I 0 W/m 2,2 C 3,4 C 3,2 km/h (1 Bft)
04.02.2023 05:28 3,5 C 2,8 C 92 % 1035,0 hPa 0,0 l/m 0,0 km/h (0 Bft) N-NO 22 0 min 0,0 UV-I 0 W/m 2,3 C 3,5 C 1,6 km/h (1 Bft)
04.02.2023 05:29 3,4 C 2,8 C 92 % 1035,0 hPa 0,0 l/m 0,0 km/h (0 Bft) N-NO 22 0 min 0,0 UV-I 0 W/m 2,2 C 3,4 C 1,6 km/h (1 Bft)
04.02.2023 05:30 3,5 C 2,8 C 92 % 1035,0 hPa 0,0 l/m 3,2 km/h (1 Bft) N-NO 22 0 min 0,0 UV-I 0 W/m 2,3 C 3,5 C 4,8 km/h (1 Bft)
04.02.2023 05:31 3,5 C 2,8 C 92 % 1035,1 hPa 0,0 l/m 4,8 km/h (1 Bft) N 360 0 min 0,0 UV-I 0 W/m 2,3 C 3,5 C 6,4 km/h (2 Bft)
04.02.2023 05:32 3,4 C 2,8 C 92 % 1035,0 hPa 0,0 l/m 3,2 km/h (1 Bft) N-NW 337 0 min 0,0 UV-I 0 W/m 2,2 C 3,4 C 4,8 km/h (1 Bft)
04.02.2023 05:33 3,5 C 2,8 C 92 % 1035,1 hPa 0,0 l/m 4,8 km/h (1 Bft) N 360 0 min 0,0 UV-I 0 W/m 2,3 C 3,5 C 8,0 km/h (2 Bft)
04.02.2023 05:34 3,5 C 3,3 C 92 % 1035,0 hPa 0,0 l/m 3,2 km/h (1 Bft) N 360 0 min 0,0 UV-I 0 W/m 2,3 C 3,5 C 4,8 km/h (1 Bft)
04.02.2023 05:35 3,5 C 3,3 C 92 % 1035,0 hPa 0,0 l/m 4,8 km/h (1 Bft) N 360 0 min 0,0 UV-I 0 W/m 2,3 C 3,5 C 4,8 km/h (1 Bft)
04.02.2023 05:36 3,5 C 2,8 C 92 % 1035,0 hPa 0,0 l/m 4,8 km/h (1 Bft) N 360 0 min 0,0 UV-I 0 W/m 2,3 C 3,5 C 8,0 km/h (2 Bft)
04.02.2023 05:37 3,5 C 2,8 C 92 % 1035,0 hPa 0,0 l/m 4,8 km/h (1 Bft) N-NW 337 0 min 0,0 UV-I 0 W/m 2,3 C 3,5 C 6,4 km/h (2 Bft)
04.02.2023 05:38 3,4 C 2,8 C 92 % 1034,9 hPa 0,0 l/m 1,6 km/h (1 Bft) N 360 0 min 0,0 UV-I 0 W/m 2,2 C 3,4 C 3,2 km/h (1 Bft)
04.02.2023 05:39 3,5 C 2,8 C 92 % 1035,0 hPa 0,0 l/m 1,6 km/h (1 Bft) N 360 0 min 0,0 UV-I 0 W/m 2,3 C 3,5 C 3,2 km/h (1 Bft)
04.02.2023 05:40 3,5 C 2,8 C 92 % 1035,0 hPa 0,0 l/m 4,8 km/h (1 Bft) NW 315 0 min 0,0 UV-I 0 W/m 2,3 C 3,5 C 6,4 km/h (2 Bft)
04.02.2023 05:41 3,4 C 2,8 C 92 % 1034,9 hPa 0,0 l/m 1,6 km/h (1 Bft) NW 315 0 min 0,0 UV-I 0 W/m 2,2 C 3,4 C 3,2 km/h (1 Bft)
04.02.2023 05:42 3,5 C 2,8 C 92 % 1035,0 hPa 0,0 l/m 1,6 km/h (1 Bft) NW 315 0 min 0,0 UV-I 0 W/m 2,3 C 3,5 C 1,6 km/h (1 Bft)
04.02.2023 05:43 3,4 C 2,8 C 92 % 1035,0 hPa 0,0 l/m 0,0 km/h (0 Bft) NW 315 0 min 0,0 UV-I 0 W/m 2,2 C 3,4 C 1,6 km/h (1 Bft)
04.02.2023 05:44 3,5 C 2,8 C 92 % 1035,0 hPa 0,0 l/m 0,0 km/h (0 Bft) NW 315 0 min 0,0 UV-I 0 W/m 2,3 C 3,5 C 1,6 km/h (1 Bft)
04.02.2023 05:45 3,5 C 2,8 C 92 % 1035,1 hPa 0,0 l/m 0,0 km/h (0 Bft) NW 315 0 min 0,0 UV-I 0 W/m 2,3 C 3,5 C 1,6 km/h (1 Bft)
04.02.2023 05:46 3,4 C 2,8 C 92 % 1035,0 hPa 0,0 l/m 0,0 km/h (0 Bft) N 0 0 min 0,0 UV-I 0 W/m 2,2 C 3,4 C 0,0 km/h (0 Bft)
04.02.2023 05:47 3,5 C 2,8 C 92 % 1035,1 hPa 0,0 l/m 0,0 km/h (0 Bft) N 0 0 min 0,0 UV-I 0 W/m 2,3 C 3,5 C 0,0 km/h (0 Bft)
04.02.2023 05:48 3,5 C 2,8 C 92 % 1035,0 hPa 0,0 l/m 0,0 km/h (0 Bft) N 0 0 min 0,0 UV-I 0 W/m 2,3 C 3,5 C 0,0 km/h (0 Bft)
04.02.2023 05:49 3,5 C 2,8 C 92 % 1035,0 hPa 0,0 l/m 0,0 km/h (0 Bft) N 0 0 min 0,0 UV-I 0 W/m 2,3 C 3,5 C 0,0 km/h (0 Bft)
04.02.2023 05:50 3,4 C 2,8 C 92 % 1035,0 hPa 0,0 l/m 0,0 km/h (0 Bft) NW 315 0 min 0,0 UV-I 0 W/m 2,2 C 3,4 C 1,6 km/h (1 Bft)
04.02.2023 05:51 3,5 C 2,8 C 92 % 1035,0 hPa 0,0 l/m 1,6 km/h (1 Bft) NW 315 0 min 0,0 UV-I 0 W/m 2,3 C 3,5 C 4,8 km/h (1 Bft)
04.02.2023 05:52 3,4 C 2,8 C 92 % 1035,0 hPa 0,0 l/m 3,2 km/h (1 Bft) NW 315 0 min 0,0 UV-I 0 W/m 2,2 C 3,4 C 4,8 km/h (1 Bft)
04.02.2023 05:53 3,5 C 2,8 C 92 % 1035,0 hPa 0,0 l/m 4,8 km/h (1 Bft) NW 315 0 min 0,0 UV-I 0 W/m 2,3 C 3,5 C 6,4 km/h (2 Bft)
04.02.2023 05:54 3,4 C 2,8 C 92 % 1035,0 hPa 0,0 l/m 3,2 km/h (1 Bft) NW 315 0 min 0,0 UV-I 0 W/m 2,2 C 3,4 C 4,8 km/h (1 Bft)
04.02.2023 05:55 3,5 C 2,8 C 92 % 1035,0 hPa 0,0 l/m 3,2 km/h (1 Bft) NW 315 0 min 0,0 UV-I 0 W/m 2,3 C 3,5 C 6,4 km/h (2 Bft)
04.02.2023 05:56 3,5 C 2,8 C 92 % 1035,0 hPa 0,0 l/m 0,0 km/h (0 Bft) NW 315 0 min 0,0 UV-I 0 W/m 2,3 C 3,5 C 1,6 km/h (1 Bft)
04.02.2023 05:57 3,5 C 2,8 C 92 % 1035,0 hPa 0,0 l/m 0,0 km/h (0 Bft) N 0 0 min 0,0 UV-I 0 W/m 2,3 C 3,5 C 0,0 km/h (0 Bft)
04.02.2023 05:58 3,5 C 2,8 C 92 % 1034,9 hPa 0,0 l/m 0,0 km/h (0 Bft) NW 315 0 min 0,0 UV-I 0 W/m 2,3 C 3,5 C 1,6 km/h (1 Bft)
04.02.2023 05:59 3,4 C 2,8 C 92 % 1035,2 hPa 0,0 l/m 0,0 km/h (0 Bft) NW 315 0 min 0,0 UV-I 0 W/m 2,2 C 3,4 C 1,6 km/h (1 Bft)
04.02.2023 06:00 3,5 C 2,8 C 92 % 1035,1 hPa 0,0 l/m 0,0 km/h (0 Bft) NW 315 0 min 0,0 UV-I 0 W/m 2,3 C 3,5 C 1,6 km/h (1 Bft)
04.02.2023 06:01 3,5 C 2,8 C 92 % 1035,0 hPa 0,0 l/m 4,8 km/h (1 Bft) NW 315 0 min 0,0 UV-I 0 W/m 2,3 C 3,5 C 6,4 km/h (2 Bft)
04.02.2023 06:02 3,4 C 2,8 C 92 % 1035,1 hPa 0,0 l/m 1,6 km/h (1 Bft) NW 315 0 min 0,0 UV-I 0 W/m 2,2 C 3,4 C 4,8 km/h (1 Bft)
04.02.2023 06:03 3,5 C 2,8 C 92 % 1035,0 hPa 0,0 l/m 3,2 km/h (1 Bft) NW 315 0 min 0,0 UV-I 0 W/m 2,3 C 3,5 C 4,8 km/h (1 Bft)
04.02.2023 06:04 3,4 C 2,8 C 92 % 1035,1 hPa 0,0 l/m 1,6 km/h (1 Bft) NW 315 0 min 0,0 UV-I 0 W/m 2,2 C 3,4 C 4,8 km/h (1 Bft)
04.02.2023 06:05 3,4 C 2,8 C 92 % 1035,2 hPa 0,0 l/m 1,6 km/h (1 Bft) NW 315 0 min 0,0 UV-I 0 W/m 2,2 C 3,4 C 4,8 km/h (1 Bft)
04.02.2023 06:06 3,5 C 2,8 C 92 % 1035,1 hPa 0,0 l/m 1,6 km/h (1 Bft) NW 315 0 min 0,0 UV-I 0 W/m 2,3 C 3,5 C 3,2 km/h (1 Bft)
04.02.2023 06:07 3,4 C 2,8 C 92 % 1035,1 hPa 0,0 l/m 0,0 km/h (0 Bft) NW 315 0 min 0,0 UV-I 0 W/m 2,2 C 3,4 C 1,6 km/h (1 Bft)
04.02.2023 06:08 3,4 C 2,8 C 92 % 1035,2 hPa 0,0 l/m 0,0 km/h (0 Bft) NW 315 0 min 0,0 UV-I 0 W/m 2,2 C 3,4 C 1,6 km/h (1 Bft)
04.02.2023 06:09 3,5 C 2,8 C 92 % 1035,2 hPa 0,0 l/m 0,0 km/h (0 Bft) NW 315 0 min 0,0 UV-I 0 W/m 2,3 C 3,5 C 3,2 km/h (1 Bft)
04.02.2023 06:10 3,5 C 2,8 C 92 % 1035,3 hPa 0,0 l/m 0,0 km/h (0 Bft) N 0 0 min 0,0 UV-I 0 W/m 2,3 C 3,5 C 0,0 km/h (0 Bft)
04.02.2023 06:11 3,5 C 2,8 C 92 % 1035,1 hPa 0,0 l/m 0,0 km/h (0 Bft) NW 315 0 min 0,0 UV-I 0 W/m 2,3 C 3,5 C 1,6 km/h (1 Bft)
04.02.2023 06:12 3,4 C 2,8 C 92 % 1035,2 hPa 0,0 l/m 1,6 km/h (1 Bft) NW 315 0 min 0,0 UV-I 0 W/m 2,2 C 3,4 C 4,8 km/h (1 Bft)
04.02.2023 06:13 3,4 C 2,8 C 92 % 1035,3 hPa 0,0 l/m 1,6 km/h (1 Bft) NW 315 0 min 0,0 UV-I 0 W/m 2,2 C 3,4 C 3,2 km/h (1 Bft)
04.02.2023 06:14 3,5 C 2,8 C 92 % 1035,3 hPa 0,0 l/m 0,0 km/h (0 Bft) NW 315 0 min 0,0 UV-I 0 W/m 2,3 C 3,5 C 1,6 km/h (1 Bft)
04.02.2023 06:15 3,5 C 2,8 C 92 % 1035,3 hPa 0,0 l/m 0,0 km/h (0 Bft) NW 315 0 min 0,0 UV-I 0 W/m 2,3 C 3,5 C 1,6 km/h (1 Bft)
04.02.2023 06:16 3,5 C 2,8 C 92 % 1035,4 hPa 0,0 l/m 1,6 km/h (1 Bft) NW 315 0 min 0,0 UV-I 0 W/m 2,3 C 3,5 C 3,2 km/h (1 Bft)
04.02.2023 06:17 3,5 C 2,8 C 92 % 1035,3 hPa 0,0 l/m 0,0 km/h (0 Bft) NW 315 0 min 0,0 UV-I 0 W/m 2,3 C 3,5 C 3,2 km/h (1 Bft)
04.02.2023 06:18 3,4 C 2,8 C 92 % 1035,3 hPa 0,0 l/m 0,0 km/h (0 Bft) NW 315 0 min 0,0 UV-I 0 W/m 2,2 C 3,4 C 1,6 km/h (1 Bft)
04.02.2023 06:19 3,4 C 2,8 C 92 % 1035,3 hPa 0,0 l/m 0,0 km/h (0 Bft) NW 315 0 min 0,0 UV-I 0 W/m 2,2 C 3,4 C 1,6 km/h (1 Bft)
04.02.2023 06:20 3,5 C 2,8 C 92 % 1035,3 hPa 0,0 l/m 1,6 km/h (1 Bft) NW 315 0 min 0,0 UV-I 0 W/m 2,3 C 3,5 C 3,2 km/h (1 Bft)
04.02.2023 06:21 3,5 C 2,8 C 92 % 1035,3 hPa 0,0 l/m 0,0 km/h (0 Bft) NW 315 0 min 0,0 UV-I 0 W/m 2,3 C 3,5 C 1,6 km/h (1 Bft)
04.02.2023 06:22 3,5 C 2,8 C 92 % 1035,3 hPa 0,0 l/m 0,0 km/h (0 Bft) N 0 0 min 0,0 UV-I 0 W/m 2,3 C 3,5 C 0,0 km/h (0 Bft)
04.02.2023 06:23 3,4 C 2,8 C 92 % 1035,3 hPa 0,0 l/m 1,6 km/h (1 Bft) NW 315 0 min 0,0 UV-I 0 W/m 2,2 C 3,4 C 3,2 km/h (1 Bft)
04.02.2023 06:24 3,5 C 2,8 C 92 % 1035,3 hPa 0,0 l/m 1,6 km/h (1 Bft) NW 315 0 min 0,0 UV-I 0 W/m 2,3 C 3,5 C 3,2 km/h (1 Bft)
04.02.2023 06:25 3,5 C 2,8 C 92 % 1035,3 hPa 0,0 l/m 1,6 km/h (1 Bft) NW 315 0 min 0,0 UV-I 0 W/m 2,3 C 3,5 C 3,2 km/h (1 Bft)
04.02.2023 06:26 3,5 C 2,8 C 92 % 1035,3 hPa 0,0 l/m 0,0 km/h (0 Bft) NW 315 0 min 0,0 UV-I 0 W/m 2,3 C 3,5 C 3,2 km/h (1 Bft)
04.02.2023 06:27 3,5 C 2,8 C 92 % 1035,3 hPa 0,0 l/m 0,0 km/h (0 Bft) N 0 0 min 0,0 UV-I 0 W/m 2,3 C 3,5 C 0,0 km/h (0 Bft)
04.02.2023 06:28 3,5 C 2,8 C 92 % 1035,2 hPa 0,0 l/m 0,0 km/h (0 Bft) N 0 0 min 0,0 UV-I 0 W/m 2,3 C 3,5 C 0,0 km/h (0 Bft)
04.02.2023 06:29 3,5 C 2,8 C 92 % 1035,2 hPa 0,0 l/m 1,6 km/h (1 Bft) NW 315 0 min 0,0 UV-I 0 W/m 2,3 C 3,5 C 4,8 km/h (1 Bft)
04.02.2023 06:30 3,5 C 2,8 C 92 % 1035,3 hPa 0,0 l/m 0,0 km/h (0 Bft) NW 315 0 min 0,0 UV-I 0 W/m 2,3 C 3,5 C 1,6 km/h (1 Bft)
04.02.2023 06:31 3,5 C 2,8 C 92 % 1035,3 hPa 0,0 l/m 3,2 km/h (1 Bft) NW 315 0 min 0,0 UV-I 0 W/m 2,3 C 3,5 C 4,8 km/h (1 Bft)
04.02.2023 06:32 3,5 C 2,8 C 92 % 1035,3 hPa 0,0 l/m 3,2 km/h (1 Bft) NW 315 0 min 0,0 UV-I 0 W/m 2,3 C 3,5 C 4,8 km/h (1 Bft)
04.02.2023 06:33 3,5 C 2,8 C 92 % 1035,2 hPa 0,0 l/m 0,0 km/h (0 Bft) NW 315 0 min 0,0 UV-I 0 W/m 2,3 C 3,5 C 1,6 km/h (1 Bft)
04.02.2023 06:34 3,5 C 2,8 C 92 % 1035,3 hPa 0,0 l/m 0,0 km/h (0 Bft) NW 315 0 min 0,0 UV-I 0 W/m 2,3 C 3,5 C 3,2 km/h (1 Bft)
04.02.2023 06:35 3,5 C 2,8 C 92 % 1035,2 hPa 0,0 l/m 0,0 km/h (0 Bft) NW 315 0 min 0,0 UV-I 0 W/m 2,3 C 3,5 C 1,6 km/h (1 Bft)
04.02.2023 06:36 3,5 C 2,8 C 92 % 1035,3 hPa 0,0 l/m 0,0 km/h (0 Bft) N 0 0 min 0,0 UV-I 0 W/m 2,3 C 3,5 C 0,0 km/h (0 Bft)
04.02.2023 06:37 3,5 C 2,8 C 92 % 1035,3 hPa 0,0 l/m 0,0 km/h (0 Bft) NW 315 0 min 0,0 UV-I 0 W/m 2,3 C 3,5 C 1,6 km/h (1 Bft)
04.02.2023 06:38 3,5 C 2,8 C 92 % 1035,3 hPa 0,0 l/m 0,0 km/h (0 Bft) NW 315 0 min 0,0 UV-I 0 W/m 2,3 C 3,5 C 1,6 km/h (1 Bft)
04.02.2023 06:39 3,5 C 2,8 C 92 % 1035,3 hPa 0,0 l/m 0,0 km/h (0 Bft) NW 315 0 min 0,0 UV-I 0 W/m 2,3 C 3,5 C 3,2 km/h (1 Bft)
04.02.2023 06:40 3,5 C 2,8 C 92 % 1035,3 hPa 0,0 l/m 1,6 km/h (1 Bft) NW 315 0 min 0,0 UV-I 0 W/m 2,3 C 3,5 C 4,8 km/h (1 Bft)
04.02.2023 06:41 3,5 C 2,8 C 92 % 1035,3 hPa 0,0 l/m 0,0 km/h (0 Bft) NW 315 0 min 0,0 UV-I 0 W/m 2,3 C 3,5 C 1,6 km/h (1 Bft)
04.02.2023 06:42 3,5 C 2,8 C 92 % 1035,3 hPa 0,0 l/m 0,0 km/h (0 Bft) N 0 0 min 0,0 UV-I 0 W/m 2,3 C 3,5 C 0,0 km/h (0 Bft)
04.02.2023 06:43 3,5 C 2,8 C 92 % 1035,3 hPa 0,0 l/m 0,0 km/h (0 Bft) NW 315 0 min 0,0 UV-I 0 W/m 2,3 C 3,5 C 1,6 km/h (1 Bft)
04.02.2023 06:44 3,5 C 2,8 C 92 % 1035,2 hPa 0,0 l/m 0,0 km/h (0 Bft) NW 315 0 min 0,0 UV-I 0 W/m 2,3 C 3,5 C 1,6 km/h (1 Bft)
04.02.2023 06:45 3,4 C 2,8 C 92 % 1035,3 hPa 0,0 l/m 4,8 km/h (1 Bft) NW 315 0 min 0,0 UV-I 0 W/m 2,2 C 3,4 C 8,0 km/h (2 Bft)
04.02.2023 06:46 3,5 C 2,8 C 92 % 1035,4 hPa 0,0 l/m 3,2 km/h (1 Bft) NW 315 0 min 0,0 UV-I 0 W/m 2,3 C 3,5 C 4,8 km/h (1 Bft)
04.02.2023 06:47 3,5 C 2,8 C 92 % 1035,3 hPa 0,0 l/m 1,6 km/h (1 Bft) NW 315 0 min 0,0 UV-I 0 W/m 2,3 C 3,5 C 3,2 km/h (1 Bft)
04.02.2023 06:48 3,4 C 2,8 C 92 % 1035,3 hPa 0,0 l/m 1,6 km/h (1 Bft) NW 315 0 min 0,0 UV-I 0 W/m 2,2 C 3,4 C 3,2 km/h (1 Bft)
04.02.2023 06:49 3,5 C 2,8 C 92 % 1035,4 hPa 0,0 l/m 1,6 km/h (1 Bft) NW 315 0 min 0,0 UV-I 0 W/m 2,3 C 3,5 C 3,2 km/h (1 Bft)
04.02.2023 06:50 3,4 C 2,8 C 92 % 1035,4 hPa 0,0 l/m 1,6 km/h (1 Bft) NW 315 0 min 0,0 UV-I 0 W/m 2,2 C 3,4 C 4,8 km/h (1 Bft)
04.02.2023 06:51 3,4 C 2,8 C 92 % 1035,4 hPa 0,0 l/m 3,2 km/h (1 Bft) NW 315 0 min 0,0 UV-I 0 W/m 2,2 C 3,4 C 6,4 km/h (2 Bft)
04.02.2023 06:52 3,5 C 2,8 C 92 % 1035,5 hPa 0,0 l/m 1,6 km/h (1 Bft) NW 315 0 min 0,0 UV-I 0 W/m 2,3 C 3,5 C 4,8 km/h (1 Bft)
04.02.2023 06:53 3,5 C 2,8 C 92 % 1035,5 hPa 0,0 l/m 3,2 km/h (1 Bft) NW 315 0 min 0,0 UV-I 0 W/m 2,3 C 3,5 C 4,8 km/h (1 Bft)
04.02.2023 06:54 3,4 C 2,8 C 92 % 1035,5 hPa 0,0 l/m 1,6 km/h (1 Bft) NW 315 0 min 0,0 UV-I 0 W/m 2,2 C 3,4 C 4,8 km/h (1 Bft)
04.02.2023 06:55 3,5 C 2,8 C 92 % 1035,4 hPa 0,0 l/m 1,6 km/h (1 Bft) NW 315 0 min 0,0 UV-I 0 W/m 2,3 C 3,5 C 3,2 km/h (1 Bft)
04.02.2023 06:56 3,4 C 2,8 C 92 % 1035,5 hPa 0,0 l/m 0,0 km/h (0 Bft) NW 315 0 min 0,0 UV-I 0 W/m 2,2 C 3,4 C 1,6 km/h (1 Bft)
04.02.2023 06:57 3,4 C 2,8 C 92 % 1035,5 hPa 0,0 l/m 3,2 km/h (1 Bft) NW 315 0 min 0,0 UV-I 0 W/m 2,2 C 3,4 C 4,8 km/h (1 Bft)
04.02.2023 06:58 3,4 C 2,2 C 92 % 1035,4 hPa 0,0 l/m 0,0 km/h (0 Bft) NW 315 0 min 0,0 UV-I 0 W/m 2,2 C 3,4 C 1,6 km/h (1 Bft)
04.02.2023 06:59 3,4 C 2,2 C 92 % 1035,4 hPa 0,0 l/m 0,0 km/h (0 Bft) NW 315 0 min 0,0 UV-I 0 W/m 2,2 C 3,4 C 3,2 km/h (1 Bft)
04.02.2023 07:00 3,4 C 2,2 C 92 % 1035,4 hPa 0,0 l/m 3,2 km/h (1 Bft) W 270 0 min 0,0 UV-I 0 W/m 2,2 C 3,4 C 9,7 km/h (2 Bft)
04.02.2023 07:01 3,4 C 2,2 C 92 % 1035,4 hPa 0,0 l/m 1,6 km/h (1 Bft) W 270 0 min 0,0 UV-I 0 W/m 2,2 C 3,4 C 3,2 km/h (1 Bft)
04.02.2023 07:02 3,4 C 2,2 C 93 % 1035,5 hPa 0,0 l/m 1,6 km/h (1 Bft) W 270 0 min 0,0 UV-I 0 W/m 2,4 C 3,4 C 3,2 km/h (1 Bft)
04.02.2023 07:03 3,4 C 2,2 C 92 % 1035,4 hPa 0,0 l/m 3,2 km/h (1 Bft) W 270 0 min 0,0 UV-I 0 W/m 2,2 C 3,4 C 4,8 km/h (1 Bft)
04.02.2023 07:04 3,4 C 2,2 C 92 % 1035,4 hPa 0,0 l/m 1,6 km/h (1 Bft) W 270 0 min 0,0 UV-I 0 W/m 2,2 C 3,4 C 3,2 km/h (1 Bft)
04.02.2023 07:05 3,4 C 2,2 C 92 % 1035,4 hPa 0,0 l/m 3,2 km/h (1 Bft) W 270 0 min 0,0 UV-I 0 W/m 2,2 C 3,4 C 4,8 km/h (1 Bft)
04.02.2023 07:06 3,4 C 2,2 C 92 % 1035,4 hPa 0,0 l/m 3,2 km/h (1 Bft) W 270 0 min 0,0 UV-I 0 W/m 2,2 C 3,4 C 4,8 km/h (1 Bft)
04.02.2023 07:07 3,4 C 2,8 C 92 % 1035,4 hPa 0,0 l/m 1,6 km/h (1 Bft) W 270 0 min 0,0 UV-I 0 W/m 2,2 C 3,4 C 4,8 km/h (1 Bft)
04.02.2023 07:08 3,4 C 2,8 C 93 % 1035,3 hPa 0,0 l/m 0,0 km/h (0 Bft) W 270 0 min 0,0 UV-I 0 W/m 2,4 C 3,4 C 1,6 km/h (1 Bft)
04.02.2023 07:09 3,4 C 2,2 C 93 % 1035,3 hPa 0,0 l/m 0,0 km/h (0 Bft) W 270 0 min 0,0 UV-I 0 W/m 2,4 C 3,4 C 1,6 km/h (1 Bft)
04.02.2023 07:10 3,3 C 2,2 C 92 % 1035,4 hPa 0,0 l/m 0,0 km/h (0 Bft) N 0 0 min 0,0 UV-I 0 W/m 2,1 C 3,3 C 0,0 km/h (0 Bft)
04.02.2023 07:11 3,4 C 2,2 C 93 % 1035,4 hPa 0,0 l/m 0,0 km/h (0 Bft) W 270 0 min 0,0 UV-I 0 W/m 2,4 C 3,4 C 3,2 km/h (1 Bft)
04.02.2023 07:12 3,3 C 2,2 C 93 % 1035,3 hPa 0,0 l/m 0,0 km/h (0 Bft) N 0 0 min 0,0 UV-I 0 W/m 2,3 C 3,3 C 0,0 km/h (0 Bft)
04.02.2023 07:13 3,3 C 2,2 C 92 % 1035,3 hPa 0,0 l/m 0,0 km/h (0 Bft) W 270 0 min 0,0 UV-I 0 W/m 2,1 C 3,3 C 1,6 km/h (1 Bft)
04.02.2023 07:14 3,3 C 2,2 C 92 % 1035,3 hPa 0,0 l/m 1,6 km/h (1 Bft) W 270 0 min 0,0 UV-I 0 W/m 2,1 C 3,3 C 3,2 km/h (1 Bft)
04.02.2023 07:15 3,3 C 2,2 C 92 % 1035,3 hPa 0,0 l/m 1,6 km/h (1 Bft) W 270 0 min 0,0 UV-I 0 W/m 2,1 C 3,3 C 3,2 km/h (1 Bft)
04.02.2023 07:16 3,3 C 2,2 C 93 % 1035,4 hPa 0,0 l/m 0,0 km/h (0 Bft) W 270 0 min 0,0 UV-I 0 W/m 2,3 C 3,3 C 1,6 km/h (1 Bft)
04.02.2023 07:17 3,3 C 2,2 C 93 % 1035,4 hPa 0,0 l/m 0,0 km/h (0 Bft) N 0 0 min 0,0 UV-I 0 W/m 2,3 C 3,3 C 0,0 km/h (0 Bft)
04.02.2023 07:18 3,3 C 2,2 C 93 % 1035,4 hPa 0,0 l/m 0,0 km/h (0 Bft) W 270 0 min 0,0 UV-I 0 W/m 2,3 C 3,3 C 1,6 km/h (1 Bft)
04.02.2023 07:19 3,3 C 2,2 C 92 % 1035,4 hPa 0,0 l/m 0,0 km/h (0 Bft) W 270 0 min 0,0 UV-I 0 W/m 2,1 C 3,3 C 1,6 km/h (1 Bft)
04.02.2023 07:20 3,3 C 2,2 C 93 % 1035,4 hPa 0,0 l/m 0,0 km/h (0 Bft) W 270 0 min 0,0 UV-I 0 W/m 2,3 C 3,3 C 1,6 km/h (1 Bft)
04.02.2023 07:21 3,3 C 2,2 C 92 % 1035,4 hPa 0,0 l/m 1,6 km/h (1 Bft) W 270 0 min 0,0 UV-I 0 W/m 2,1 C 3,3 C 4,8 km/h (1 Bft)
04.02.2023 07:22 3,3 C 2,2 C 92 % 1035,4 hPa 0,0 l/m 0,0 km/h (0 Bft) W 270 0 min 0,0 UV-I 0 W/m 2,1 C 3,3 C 3,2 km/h (1 Bft)
04.02.2023 07:23 3,3 C 2,2 C 93 % 1035,4 hPa 0,0 l/m 0,0 km/h (0 Bft) W 270 0 min 0,0 UV-I 0 W/m 2,3 C 3,3 C 1,6 km/h (1 Bft)
04.02.2023 07:24 3,3 C 2,2 C 93 % 1035,5 hPa 0,0 l/m 1,6 km/h (1 Bft) W 270 0 min 0,0 UV-I 0 W/m 2,3 C 3,3 C 3,2 km/h (1 Bft)
04.02.2023 07:25 3,3 C 2,2 C 93 % 1035,5 hPa 0,0 l/m 0,0 km/h (0 Bft) W 270 0 min 0,0 UV-I 0 W/m 2,3 C 3,3 C 1,6 km/h (1 Bft)
04.02.2023 07:26 3,3 C 2,2 C 92 % 1035,5 hPa 0,0 l/m 0,0 km/h (0 Bft) N 0 0 min 0,0 UV-I 0 W/m 2,1 C 3,3 C 0,0 km/h (0 Bft)
04.02.2023 07:27 3,3 C 2,2 C 92 % 1035,4 hPa 0,0 l/m 0,0 km/h (0 Bft) N 0 0 min 0,0 UV-I 0 W/m 2,1 C 3,3 C 0,0 km/h (0 Bft)
04.02.2023 07:28 3,2 C 2,2 C 93 % 1035,4 hPa 0,0 l/m 0,0 km/h (0 Bft) N 0 0 min 0,0 UV-I 0 W/m 2,2 C 3,2 C 0,0 km/h (0 Bft)
04.02.2023 07:29 3,2 C 2,2 C 92 % 1035,4 hPa 0,0 l/m 0,0 km/h (0 Bft) N 0 0 min 0,0 UV-I 0 W/m 2,0 C 3,2 C 0,0 km/h (0 Bft)
04.02.2023 07:30 3,2 C 2,2 C 92 % 1035,4 hPa 0,0 l/m 0,0 km/h (0 Bft) W 270 0 min 0,0 UV-I 0 W/m 2,0 C 3,2 C 1,6 km/h (1 Bft)
04.02.2023 07:31 3,2 C 2,2 C 92 % 1035,5 hPa 0,0 l/m 0,0 km/h (0 Bft) N 0 0 min 0,0 UV-I 0 W/m 2,0 C 3,2 C 0,0 km/h (0 Bft)
04.02.2023 07:32 3,2 C 2,2 C 92 % 1035,5 hPa 0,0 l/m 0,0 km/h (0 Bft) N 0 0 min 0,0 UV-I 0 W/m 2,0 C 3,2 C 0,0 km/h (0 Bft)
04.02.2023 07:33 3,2 C 2,2 C 92 % 1035,5 hPa 0,0 l/m 1,6 km/h (1 Bft) N-NW 337 0 min 0,0 UV-I 0 W/m 2,0 C 3,2 C 6,4 km/h (2 Bft)
04.02.2023 07:34 3,2 C 2,2 C 92 % 1035,4 hPa 0,0 l/m 0,0 km/h (0 Bft) N-NW 337 0 min 0,0 UV-I 0 W/m 2,0 C 3,2 C 3,2 km/h (1 Bft)
04.02.2023 07:35 3,2 C 2,2 C 92 % 1035,6 hPa 0,0 l/m 0,0 km/h (0 Bft) N-NW 337 0 min 0,0 UV-I 0 W/m 2,0 C 3,2 C 1,6 km/h (1 Bft)
04.02.2023 07:36 3,2 C 2,2 C 92 % 1035,5 hPa 0,0 l/m 0,0 km/h (0 Bft) N 0 0 min 0,0 UV-I 0 W/m 2,0 C 3,2 C 0,0 km/h (0 Bft)
04.02.2023 07:37 3,2 C 2,2 C 92 % 1035,6 hPa 0,0 l/m 0,0 km/h (0 Bft) N-NW 337 0 min 0,0 UV-I 0 W/m 2,0 C 3,2 C 1,6 km/h (1 Bft)
04.02.2023 07:38 3,2 C 2,2 C 92 % 1035,6 hPa 0,0 l/m 0,0 km/h (0 Bft) N 0 0 min 0,0 UV-I 0 W/m 2,0 C 3,2 C 0,0 km/h (0 Bft)
04.02.2023 07:39 3,2 C 2,2 C 92 % 1035,5 hPa 0,0 l/m 0,0 km/h (0 Bft) N 0 0 min 0,0 UV-I 0 W/m 2,0 C 3,2 C 0,0 km/h (0 Bft)
04.02.2023 07:40 3,2 C 2,2 C 92 % 1035,7 hPa 0,0 l/m 0,0 km/h (0 Bft) N 0 0 min 0,0 UV-I 0 W/m 2,0 C 3,2 C 0,0 km/h (0 Bft)
04.02.2023 07:41 3,2 C 2,2 C 92 % 1035,6 hPa 0,0 l/m 1,6 km/h (1 Bft) N-NW 337 0 min 0,0 UV-I 0 W/m 2,0 C 3,2 C 3,2 km/h (1 Bft)
04.02.2023 07:42 3,2 C 2,2 C 92 % 1035,6 hPa 0,0 l/m 0,0 km/h (0 Bft) N-NW 337 0 min 0,0 UV-I 0 W/m 2,0 C 3,2 C 1,6 km/h (1 Bft)
04.02.2023 07:43 3,2 C 2,2 C 92 % 1035,6 hPa 0,0 l/m 0,0 km/h (0 Bft) N-NW 337 0 min 0,0 UV-I 0 W/m 2,0 C 3,2 C 1,6 km/h (1 Bft)
04.02.2023 07:44 3,1 C 2,2 C 92 % 1035,7 hPa 0,0 l/m 0,0 km/h (0 Bft) N 0 0 min 0,0 UV-I 0 W/m 1,9 C 3,1 C 0,0 km/h (0 Bft)
04.02.2023 07:45 3,1 C 2,2 C 92 % 1035,7 hPa 0,0 l/m 0,0 km/h (0 Bft) N 0 0 min 0,0 UV-I 0 W/m 1,9 C 3,1 C 0,0 km/h (0 Bft)
04.02.2023 07:46 3,1 C 2,2 C 92 % 1035,7 hPa 0,0 l/m 0,0 km/h (0 Bft) N 0 0 min 0,0 UV-I 0 W/m 1,9 C 3,1 C 0,0 km/h (0 Bft)
04.02.2023 07:47 3,1 C 2,2 C 92 % 1035,6 hPa 0,0 l/m 0,0 km/h (0 Bft) N 0 0 min 0,0 UV-I 0 W/m 1,9 C 3,1 C 0,0 km/h (0 Bft)
04.02.2023 07:48 3,1 C 1,7 C 92 % 1035,7 hPa 0,0 l/m 0,0 km/h (0 Bft) N 0 0 min 0,0 UV-I 0 W/m 1,9 C 3,1 C 0,0 km/h (0 Bft)
04.02.2023 07:49 3,1 C 1,7 C 92 % 1035,9 hPa 0,0 l/m 0,0 km/h (0 Bft) N-NW 337 0 min 0,0 UV-I 0 W/m 1,9 C 3,1 C 3,2 km/h (1 Bft)
04.02.2023 07:50 3,1 C 1,7 C 92 % 1035,8 hPa 0,0 l/m 0,0 km/h (0 Bft) N 0 0 min 0,0 UV-I 0 W/m 1,9 C 3,1 C 0,0 km/h (0 Bft)
04.02.2023 07:51 3,1 C 1,7 C 92 % 1035,7 hPa 0,0 l/m 0,0 km/h (0 Bft) N-NW 337 0 min 0,0 UV-I 0 W/m 1,9 C 3,1 C 1,6 km/h (1 Bft)
04.02.2023 07:52 3,1 C 1,7 C 92 % 1035,8 hPa 0,0 l/m 1,6 km/h (1 Bft) N-NW 337 0 min 0,0 UV-I 0 W/m 1,9 C 3,1 C 4,8 km/h (1 Bft)
04.02.2023 07:53 3,1 C 1,7 C 92 % 1035,8 hPa 0,0 l/m 1,6 km/h (1 Bft) N-NW 337 0 min 0,0 UV-I 0 W/m 1,9 C 3,1 C 3,2 km/h (1 Bft)
04.02.2023 07:54 3,1 C 1,7 C 92 % 1035,8 hPa 0,0 l/m 1,6 km/h (1 Bft) N-NW 337 0 min 0,0 UV-I 0 W/m 1,9 C 3,1 C 3,2 km/h (1 Bft)
04.02.2023 07:55 3,1 C 1,7 C 92 % 1035,9 hPa 0,0 l/m 3,2 km/h (1 Bft) N-NW 337 0 min 0,0 UV-I 0 W/m 1,9 C 3,1 C 3,2 km/h (1 Bft)
04.02.2023 07:56 3,1 C 1,7 C 92 % 1035,9 hPa 0,0 l/m 1,6 km/h (1 Bft) N-NW 337 0 min 0,0 UV-I 0 W/m 1,9 C 3,1 C 3,2 km/h (1 Bft)
04.02.2023 07:57 3,1 C 1,7 C 92 % 1035,9 hPa 0,0 l/m 1,6 km/h (1 Bft) N-NW 337 0 min 0,0 UV-I 0 W/m 1,9 C 3,1 C 3,2 km/h (1 Bft)
04.02.2023 07:58 3,1 C 1,7 C 92 % 1036,0 hPa 0,0 l/m 0,0 km/h (0 Bft) N-NW 337 0 min 0,0 UV-I 0 W/m 1,9 C 3,1 C 1,6 km/h (1 Bft)
04.02.2023 07:59 3,1 C 1,7 C 92 % 1036,0 hPa 0,0 l/m 1,6 km/h (1 Bft) N-NW 337 0 min 0,0 UV-I 0 W/m 1,9 C 3,1 C 3,2 km/h (1 Bft)
04.02.2023 08:00 3,1 C 1,7 C 92 % 1036,0 hPa 0,0 l/m 1,6 km/h (1 Bft) N-NW 337 0 min 0,0 UV-I 0 W/m 1,9 C 3,1 C 4,8 km/h (1 Bft)
04.02.2023 08:01 3,1 C 1,7 C 92 % 1035,9 hPa 0,0 l/m 1,6 km/h (1 Bft) N-NW 337 0 min 0,0 UV-I 0 W/m 1,9 C 3,1 C 3,2 km/h (1 Bft)
04.02.2023 08:02 3,1 C 1,7 C 92 % 1036,0 hPa 0,0 l/m 0,0 km/h (0 Bft) N-NW 337 0 min 0,0 UV-I 0 W/m 1,9 C 3,1 C 1,6 km/h (1 Bft)
04.02.2023 08:03 3,1 C 1,7 C 92 % 1036,0 hPa 0,0 l/m 0,0 km/h (0 Bft) N-NW 337 0 min 0,0 UV-I 0 W/m 1,9 C 3,1 C 1,6 km/h (1 Bft)
04.02.2023 08:04 3,1 C 1,7 C 92 % 1036,1 hPa 0,0 l/m 0,0 km/h (0 Bft) N-NW 337 0 min 0,0 UV-I 0 W/m 1,9 C 3,1 C 1,6 km/h (1 Bft)
04.02.2023 08:05 3,1 C 1,7 C 92 % 1036,1 hPa 0,0 l/m 0,0 km/h (0 Bft) N 0 0 min 0,0 UV-I 0 W/m 1,9 C 3,1 C 0,0 km/h (0 Bft)
04.02.2023 08:06 3,1 C 1,7 C 92 % 1036,0 hPa 0,0 l/m 0,0 km/h (0 Bft) N 0 0 min 0,0 UV-I 0 W/m 1,9 C 3,1 C 0,0 km/h (0 Bft)
04.02.2023 08:07 3,0 C 1,7 C 92 % 1036,0 hPa 0,0 l/m 0,0 km/h (0 Bft) N 0 0 min 0,0 UV-I 0 W/m 1,8 C 3,0 C 0,0 km/h (0 Bft)
04.02.2023 08:08 3,0 C 1,7 C 92 % 1036,1 hPa 0,0 l/m 0,0 km/h (0 Bft) N 0 0 min 0,0 UV-I 0 W/m 1,8 C 3,0 C 0,0 km/h (0 Bft)
04.02.2023 08:09 3,0 C 1,7 C 92 % 1036,0 hPa 0,0 l/m 0,0 km/h (0 Bft) N-NW 337 0 min 0,0 UV-I 0 W/m 1,8 C 3,0 C 1,6 km/h (1 Bft)
04.02.2023 08:10 3,0 C 1,7 C 92 % 1036,0 hPa 0,0 l/m 0,0 km/h (0 Bft) N 0 0 min 0,0 UV-I 0 W/m 1,8 C 3,0 C 0,0 km/h (0 Bft)
04.02.2023 08:11 3,0 C 1,7 C 92 % 1036,0 hPa 0,0 l/m 1,6 km/h (1 Bft) N-NW 337 0 min 0,0 UV-I 3 W/m 1,8 C 3,0 C 3,2 km/h (1 Bft)
04.02.2023 08:12 3,0 C 1,7 C 92 % 1036,1 hPa 0,0 l/m 1,6 km/h (1 Bft) N-NW 337 0 min 0,0 UV-I 5 W/m 1,8 C 3,0 C 3,2 km/h (1 Bft)
04.02.2023 08:13 3,0 C 1,7 C 92 % 1036,0 hPa 0,0 l/m 3,2 km/h (1 Bft) N-NW 337 0 min 0,0 UV-I 5 W/m 1,8 C 3,0 C 4,8 km/h (1 Bft)
04.02.2023 08:14 3,0 C 1,7 C 92 % 1036,1 hPa 0,0 l/m 0,0 km/h (0 Bft) N 0 0 min 0,0 UV-I 5 W/m 1,8 C 3,0 C 0,0 km/h (0 Bft)
04.02.2023 08:15 3,0 C 1,7 C 92 % 1036,1 hPa 0,0 l/m 0,0 km/h (0 Bft) N-NW 337 0 min 0,0 UV-I 5 W/m 1,8 C 3,0 C 1,6 km/h (1 Bft)
04.02.2023 08:16 2,9 C 1,7 C 92 % 1036,2 hPa 0,0 l/m 0,0 km/h (0 Bft) N 0 0 min 0,0 UV-I 7 W/m 1,7 C 2,9 C 0,0 km/h (0 Bft)
04.02.2023 08:17 2,9 C 1,7 C 92 % 1036,1 hPa 0,0 l/m 0,0 km/h (0 Bft) N 0 0 min 0,0 UV-I 8 W/m 1,7 C 2,9 C 0,0 km/h (0 Bft)
04.02.2023 08:18 3,0 C 1,7 C 93 % 1036,1 hPa 0,0 l/m 0,0 km/h (0 Bft) N-NW 337 0 min 0,0 UV-I 9 W/m 2,0 C 3,0 C 1,6 km/h (1 Bft)
04.02.2023 08:19 2,9 C 1,7 C 93 % 1036,2 hPa 0,0 l/m 0,0 km/h (0 Bft) N-NW 337 0 min 0,0 UV-I 11 W/m 1,9 C 2,9 C 3,2 km/h (1 Bft)
04.02.2023 08:20 2,9 C 1,7 C 92 % 1036,2 hPa 0,0 l/m 0,0 km/h (0 Bft) N 0 0 min 0,0 UV-I 11 W/m 1,7 C 2,9 C 0,0 km/h (0 Bft)
04.02.2023 08:21 2,9 C 1,7 C 93 % 1036,2 hPa 0,0 l/m 0,0 km/h (0 Bft) N 0 0 min 0,0 UV-I 11 W/m 1,9 C 2,9 C 0,0 km/h (0 Bft)
04.02.2023 08:22 2,9 C 1,7 C 93 % 1036,2 hPa 0,0 l/m 0,0 km/h (0 Bft) N 0 0 min 0,0 UV-I 11 W/m 1,9 C 2,9 C 0,0 km/h (0 Bft)
04.02.2023 08:23 2,9 C 1,7 C 93 % 1036,2 hPa 0,0 l/m 0,0 km/h (0 Bft) N-NW 337 0 min 0,0 UV-I 11 W/m 1,9 C 2,9 C 1,6 km/h (1 Bft)
04.02.2023 08:24 2,9 C 1,7 C 93 % 1036,2 hPa 0,0 l/m 1,6 km/h (1 Bft) N-NW 337 0 min 0,0 UV-I 12 W/m 1,9 C 2,9 C 3,2 km/h (1 Bft)
04.02.2023 08:25 2,9 C 1,7 C 93 % 1036,2 hPa 0,0 l/m 0,0 km/h (0 Bft) N-NW 337 0 min 0,0 UV-I 12 W/m 1,9 C 2,9 C 1,6 km/h (1 Bft)
04.02.2023 08:26 2,9 C 1,7 C 93 % 1036,2 hPa 0,0 l/m 0,0 km/h (0 Bft) N-NW 337 0 min 0,0 UV-I 14 W/m 1,9 C 2,9 C 1,6 km/h (1 Bft)
04.02.2023 08:27 2,9 C 1,7 C 93 % 1036,2 hPa 0,0 l/m 0,0 km/h (0 Bft) N 0 0 min 0,0 UV-I 14 W/m 1,9 C 2,9 C 0,0 km/h (0 Bft)
04.02.2023 08:28 2,9 C 1,7 C 93 % 1036,2 hPa 0,0 l/m 0,0 km/h (0 Bft) N 0 0 min 0,0 UV-I 16 W/m 1,9 C 2,9 C 0,0 km/h (0 Bft)
04.02.2023 08:29 2,9 C 1,7 C 93 % 1036,3 hPa 0,0 l/m 0,0 km/h (0 Bft) N 0 0 min 0,0 UV-I 18 W/m 1,9 C 2,9 C 0,0 km/h (0 Bft)
04.02.2023 08:30 2,9 C 1,7 C 93 % 1036,2 hPa 0,0 l/m 0,0 km/h (0 Bft) N-NW 337 0 min 0,0 UV-I 18 W/m 1,9 C 2,9 C 1,6 km/h (1 Bft)
04.02.2023 08:31 2,9 C 1,7 C 93 % 1036,3 hPa 0,0 l/m 0,0 km/h (0 Bft) N-NW 337 0 min 0,0 UV-I 18 W/m 1,9 C 2,9 C 1,6 km/h (1 Bft)
04.02.2023 08:32 2,9 C 1,1 C 93 % 1036,3 hPa 0,0 l/m 0,0 km/h (0 Bft) N 0 0 min 0,0 UV-I 18 W/m 1,9 C 2,9 C 0,0 km/h (0 Bft)
04.02.2023 08:33 2,9 C 1,7 C 93 % 1036,3 hPa 0,0 l/m 0,0 km/h (0 Bft) N 0 0 min 0,0 UV-I 19 W/m 1,9 C 2,9 C 0,0 km/h (0 Bft)
04.02.2023 08:34 2,9 C 1,7 C 93 % 1036,4 hPa 0,0 l/m 0,0 km/h (0 Bft) N 0 0 min 0,0 UV-I 21 W/m 1,9 C 2,9 C 0,0 km/h (0 Bft)
04.02.2023 08:35 2,9 C 1,7 C 93 % 1036,3 hPa 0,0 l/m 0,0 km/h (0 Bft) N 0 0 min 0,0 UV-I 18 W/m 1,9 C 2,9 C 0,0 km/h (0 Bft)
04.02.2023 08:36 2,9 C 1,1 C 93 % 1036,4 hPa 0,0 l/m 0,0 km/h (0 Bft) N 0 0 min 0,0 UV-I 16 W/m 1,9 C 2,9 C 0,0 km/h (0 Bft)
04.02.2023 08:37 2,9 C 1,1 C 93 % 1036,4 hPa 0,0 l/m 0,0 km/h (0 Bft) N 0 0 min 0,0 UV-I 16 W/m 1,9 C 2,9 C 0,0 km/h (0 Bft)
04.02.2023 08:38 2,9 C 1,1 C 93 % 1036,5 hPa 0,0 l/m 0,0 km/h (0 Bft) N 0 0 min 0,0 UV-I 14 W/m 1,9 C 2,9 C 0,0 km/h (0 Bft)
04.02.2023 08:39 2,9 C 1,1 C 93 % 1036,4 hPa 0,0 l/m 0,0 km/h (0 Bft) N 0 0 min 0,0 UV-I 14 W/m 1,9 C 2,9 C 0,0 km/h (0 Bft)
04.02.2023 08:40 2,9 C 1,1 C 93 % 1036,4 hPa 0,0 l/m 0,0 km/h (0 Bft) N 0 0 min 0,0 UV-I 16 W/m 1,9 C 2,9 C 0,0 km/h (0 Bft)
04.02.2023 08:41 2,9 C 1,1 C 93 % 1036,4 hPa 0,0 l/m 0,0 km/h (0 Bft) N 0 0 min 0,0 UV-I 18 W/m 1,9 C 2,9 C 0,0 km/h (0 Bft)
04.02.2023 08:42 2,9 C 1,1 C 92 % 1036,5 hPa 0,0 l/m 0,0 km/h (0 Bft) N 0 0 min 0,0 UV-I 18 W/m 1,7 C 2,9 C 0,0 km/h (0 Bft)
04.02.2023 08:43 2,9 C 1,1 C 93 % 1036,5 hPa 0,0 l/m 0,0 km/h (0 Bft) N 0 0 min 0,0 UV-I 19 W/m 1,9 C 2,9 C 0,0 km/h (0 Bft)
04.02.2023 08:44 2,9 C 1,1 C 92 % 1036,5 hPa 0,0 l/m 0,0 km/h (0 Bft) N 0 0 min 0,0 UV-I 23 W/m 1,7 C 2,9 C 0,0 km/h (0 Bft)
04.02.2023 08:45 2,9 C 1,1 C 92 % 1036,5 hPa 0,0 l/m 0,0 km/h (0 Bft) N 0 0 min 0,0 UV-I 32 W/m 1,7 C 2,9 C 0,0 km/h (0 Bft)
04.02.2023 08:46 2,8 C 1,1 C 92 % 1036,5 hPa 0,0 l/m 0,0 km/h (0 Bft) N 0 0 min 0,0 UV-I 34 W/m 1,6 C 2,8 C 0,0 km/h (0 Bft)
04.02.2023 08:47 2,8 C 1,1 C 92 % 1036,5 hPa 0,0 l/m 0,0 km/h (0 Bft) N 0 0 min 0,0 UV-I 32 W/m 1,6 C 2,8 C 0,0 km/h (0 Bft)
04.02.2023 08:48 2,8 C 1,7 C 92 % 1036,6 hPa 0,0 l/m 0,0 km/h (0 Bft) N 0 0 min 0,0 UV-I 28 W/m 1,6 C 2,8 C 0,0 km/h (0 Bft)
04.02.2023 08:49 2,8 C 1,7 C 92 % 1036,6 hPa 0,0 l/m 0,0 km/h (0 Bft) N 0 0 min 0,0 UV-I 32 W/m 1,6 C 2,8 C 0,0 km/h (0 Bft)
04.02.2023 08:50 2,8 C 1,7 C 92 % 1036,5 hPa 0,0 l/m 0,0 km/h (0 Bft) N 0 0 min 0,0 UV-I 40 W/m 1,6 C 2,8 C 0,0 km/h (0 Bft)
04.02.2023 08:51 2,8 C 2,8 C 92 % 1036,5 hPa 0,0 l/m 0,0 km/h (0 Bft) N 0 0 min 0,0 UV-I 54 W/m 1,6 C 2,8 C 0,0 km/h (0 Bft)
04.02.2023 08:52 2,8 C 2,8 C 92 % 1036,6 hPa 0,0 l/m 0,0 km/h (0 Bft) N 0 0 min 0,0 UV-I 39 W/m 1,6 C 2,8 C 0,0 km/h (0 Bft)
04.02.2023 08:53 2,8 C 2,8 C 92 % 1036,5 hPa 0,0 l/m 0,0 km/h (0 Bft) N 0 0 min 0,0 UV-I 42 W/m 1,6 C 2,8 C 0,0 km/h (0 Bft)
04.02.2023 08:54 2,8 C 3,3 C 92 % 1036,6 hPa 0,0 l/m 0,0 km/h (0 Bft) N-NW 337 0 min 0,0 UV-I 40 W/m 1,6 C 2,8 C 3,2 km/h (1 Bft)
04.02.2023 08:55 2,8 C 3,3 C 92 % 1036,7 hPa 0,0 l/m 3,2 km/h (1 Bft) N-NW 337 0 min 0,0 UV-I 32 W/m 1,6 C 2,8 C 4,8 km/h (1 Bft)
04.02.2023 08:56 2,8 C 3,3 C 92 % 1036,7 hPa 0,0 l/m 1,6 km/h (1 Bft) N-NW 337 0 min 0,0 UV-I 32 W/m 1,6 C 2,8 C 3,2 km/h (1 Bft)
04.02.2023 08:57 2,8 C 3,3 C 92 % 1036,6 hPa 0,0 l/m 3,2 km/h (1 Bft) N-NW 337 0 min 0,0 UV-I 25 W/m 1,6 C 2,8 C 3,2 km/h (1 Bft)
04.02.2023 08:58 2,9 C 3,3 C 92 % 1036,6 hPa 0,0 l/m 4,8 km/h (1 Bft) N-NO 22 0 min 0,0 UV-I 24 W/m 1,7 C 2,9 C 8,0 km/h (2 Bft)
04.02.2023 08:59 2,9 C 3,3 C 93 % 1036,6 hPa 0,0 l/m 4,8 km/h (1 Bft) N 360 0 min 0,0 UV-I 26 W/m 1,9 C 2,9 C 6,4 km/h (2 Bft)
04.02.2023 09:00 2,9 C 2,8 C 93 % 1036,7 hPa 0,0 l/m 3,2 km/h (1 Bft) N 360 0 min 0,0 UV-I 40 W/m 1,9 C 2,9 C 6,4 km/h (2 Bft)
04.02.2023 09:01 2,9 C 2,8 C 93 % 1036,7 hPa 0,0 l/m 4,8 km/h (1 Bft) NW 315 0 min 0,0 UV-I 49 W/m 1,9 C 2,9 C 6,4 km/h (2 Bft)
04.02.2023 09:02 2,9 C 3,3 C 93 % 1036,7 hPa 0,0 l/m 4,8 km/h (1 Bft) N 360 0 min 0,0 UV-I 51 W/m 1,9 C 2,9 C 8,0 km/h (2 Bft)
04.02.2023 09:03 3,0 C 3,3 C 93 % 1036,6 hPa 0,0 l/m 6,4 km/h (2 Bft) N 360 0 min 0,0 UV-I 49 W/m 2,0 C 3,0 C 9,7 km/h (2 Bft)
04.02.2023 09:04 3,0 C 3,3 C 93 % 1036,7 hPa 0,0 l/m 3,2 km/h (1 Bft) N-NW 337 0 min 0,0 UV-I 56 W/m 2,0 C 3,0 C 6,4 km/h (2 Bft)
04.02.2023 09:05 3,0 C 3,3 C 93 % 1036,6 hPa 0,0 l/m 4,8 km/h (1 Bft) N-NW 337 0 min 0,0 UV-I 67 W/m 2,0 C 3,0 C 6,4 km/h (2 Bft)
04.02.2023 09:06 3,1 C 3,9 C 93 % 1036,6 hPa 0,0 l/m 1,6 km/h (1 Bft) N-NW 337 0 min 0,0 UV-I 62 W/m 2,1 C 3,1 C 3,2 km/h (1 Bft)
04.02.2023 09:07 3,2 C 3,9 C 93 % 1036,6 hPa 0,0 l/m 3,2 km/h (1 Bft) N-NW 337 0 min 0,0 UV-I 63 W/m 2,2 C 3,2 C 6,4 km/h (2 Bft)
04.02.2023 09:08 3,2 C 4,4 C 93 % 1036,6 hPa 0,0 l/m 1,6 km/h (1 Bft) N-NW 337 0 min 0,0 UV-I 67 W/m 2,2 C 3,2 C 4,8 km/h (1 Bft)
04.02.2023 09:09 3,2 C 4,4 C 93 % 1036,7 hPa 0,0 l/m 4,8 km/h (1 Bft) N-NW 337 0 min 0,0 UV-I 66 W/m 2,2 C 3,2 C 6,4 km/h (2 Bft)
04.02.2023 09:10 3,2 C 4,4 C 93 % 1036,7 hPa 0,0 l/m 1,6 km/h (1 Bft) N-NW 337 0 min 0,0 UV-I 76 W/m 2,2 C 3,2 C 4,8 km/h (1 Bft)
04.02.2023 09:11 3,3 C 4,4 C 93 % 1036,7 hPa 0,0 l/m 0,0 km/h (0 Bft) N-NW 337 0 min 0,0 UV-I 83 W/m 2,3 C 3,3 C 1,6 km/h (1 Bft)
04.02.2023 09:12 3,3 C 4,4 C 93 % 1036,7 hPa 0,0 l/m 0,0 km/h (0 Bft) N-NW 337 0 min 0,0 UV-I 95 W/m 2,3 C 3,3 C 1,6 km/h (1 Bft)
04.02.2023 09:13 3,4 C 5,0 C 93 % 1036,7 hPa 0,0 l/m 0,0 km/h (0 Bft) N-NW 337 0 min 0,0 UV-I 97 W/m 2,4 C 3,4 C 1,6 km/h (1 Bft)
04.02.2023 09:14 3,4 C 5,6 C 93 % 1036,8 hPa 0,0 l/m 1,6 km/h (1 Bft) N-NW 337 0 min 0,0 UV-I 100 W/m 2,4 C 3,4 C 3,2 km/h (1 Bft)
04.02.2023 09:15 3,5 C 6,7 C 93 % 1036,8 hPa 0,0 l/m 1,6 km/h (1 Bft) N-NW 337 0 min 0,0 UV-I 147 W/m 2,5 C 3,5 C 4,8 km/h (1 Bft)
04.02.2023 09:16 3,6 C 6,7 C 93 % 1036,8 hPa 0,0 l/m 3,2 km/h (1 Bft) N-NW 337 0 min 0,0 UV-I 125 W/m 2,6 C 3,6 C 4,8 km/h (1 Bft)
04.02.2023 09:17 3,7 C 7,2 C 93 % 1036,8 hPa 0,0 l/m 1,6 km/h (1 Bft) N-NW 337 0 min 0,0 UV-I 107 W/m 2,7 C 3,7 C 3,2 km/h (1 Bft)
04.02.2023 09:18 3,7 C 7,2 C 93 % 1036,9 hPa 0,0 l/m 1,6 km/h (1 Bft) N-NW 337 0 min 0,0 UV-I 88 W/m 2,7 C 3,7 C 3,2 km/h (1 Bft)
04.02.2023 09:19 3,7 C 6,7 C 93 % 1036,9 hPa 0,0 l/m 0,0 km/h (0 Bft) N-NW 337 0 min 0,0 UV-I 83 W/m 2,7 C 3,7 C 1,6 km/h (1 Bft)
04.02.2023 09:20 3,7 C 6,1 C 93 % 1036,9 hPa 0,0 l/m 1,6 km/h (1 Bft) N-NW 337 0 min 0,0 UV-I 76 W/m 2,7 C 3,7 C 3,2 km/h (1 Bft)
04.02.2023 09:21 3,7 C 6,1 C 93 % 1036,9 hPa 0,0 l/m 1,6 km/h (1 Bft) N-NW 337 0 min 0,0 UV-I 76 W/m 2,7 C 3,7 C 4,8 km/h (1 Bft)
04.02.2023 09:22 3,7 C 5,6 C 92 % 1036,9 hPa 0,0 l/m 1,6 km/h (1 Bft) N-NW 337 0 min 0,0 UV-I 77 W/m 2,5 C 3,7 C 4,8 km/h (1 Bft)
04.02.2023 09:23 3,7 C 5,0 C 92 % 1036,9 hPa 0,0 l/m 3,2 km/h (1 Bft) N-NW 337 0 min 0,0 UV-I 76 W/m 2,5 C 3,7 C 6,4 km/h (2 Bft)
04.02.2023 09:24 3,7 C 5,0 C 92 % 1036,8 hPa 0,0 l/m 6,4 km/h (2 Bft) N-NO 22 0 min 0,0 UV-I 76 W/m 2,5 C 3,7 C 8,0 km/h (2 Bft)
04.02.2023 09:25 3,7 C 5,0 C 92 % 1036,9 hPa 0,0 l/m 4,8 km/h (1 Bft) N 360 0 min 0,0 UV-I 33 W/m 2,5 C 3,7 C 6,4 km/h (2 Bft)
04.02.2023 09:26 3,7 C 5,0 C 92 % 1036,9 hPa 0,0 l/m 3,2 km/h (1 Bft) N 360 0 min 0,0 UV-I 90 W/m 2,5 C 3,7 C 4,8 km/h (1 Bft)
04.02.2023 09:27 3,7 C 5,0 C 92 % 1036,8 hPa 0,0 l/m 4,8 km/h (1 Bft) NW 315 0 min 0,0 UV-I 92 W/m 2,5 C 3,7 C 8,0 km/h (2 Bft)
04.02.2023 09:28 3,7 C 5,0 C 92 % 1036,9 hPa 0,0 l/m 6,4 km/h (2 Bft) N-NW 337 0 min 0,0 UV-I 76 W/m 2,5 C 3,7 C 9,7 km/h (2 Bft)
04.02.2023 09:29 3,7 C 4,4 C 92 % 1036,9 hPa 0,0 l/m 3,2 km/h (1 Bft) N-NW 337 0 min 0,0 UV-I 65 W/m 2,5 C 3,7 C 6,4 km/h (2 Bft)
04.02.2023 09:30 3,7 C 4,4 C 92 % 1036,9 hPa 0,0 l/m 3,2 km/h (1 Bft) N-NW 337 0 min 0,0 UV-I 79 W/m 2,5 C 3,7 C 4,8 km/h (1 Bft)
04.02.2023 09:31 3,7 C 4,4 C 92 % 1036,9 hPa 0,0 l/m 4,8 km/h (1 Bft) N-NW 337 0 min 0,0 UV-I 107 W/m 2,5 C 3,7 C 8,0 km/h (2 Bft)
04.02.2023 09:32 3,7 C 5,0 C 92 % 1036,9 hPa 0,0 l/m 4,8 km/h (1 Bft) N-NW 337 0 min 0,0 UV-I 100 W/m 2,5 C 3,7 C 6,4 km/h (2 Bft)
04.02.2023 09:33 3,7 C 5,0 C 92 % 1036,8 hPa 0,0 l/m 1,6 km/h (1 Bft) N-NW 337 0 min 0,0 UV-I 95 W/m 2,5 C 3,7 C 4,8 km/h (1 Bft)
04.02.2023 09:34 3,8 C 5,0 C 92 % 1036,9 hPa 0,0 l/m 3,2 km/h (1 Bft) N-NW 337 0 min 0,0 UV-I 93 W/m 2,6 C 3,8 C 6,4 km/h (2 Bft)
04.02.2023 09:35 3,8 C 5,0 C 92 % 1036,9 hPa 0,0 l/m 6,4 km/h (2 Bft) N-NW 337 0 min 0,0 UV-I 91 W/m 2,6 C 3,8 C 8,0 km/h (2 Bft)
04.02.2023 09:36 3,8 C 5,0 C 92 % 1036,9 hPa 0,0 l/m 4,8 km/h (1 Bft) N-NW 337 0 min 0,0 UV-I 116 W/m 2,6 C 3,8 C 6,4 km/h (2 Bft)
04.02.2023 09:37 3,8 C 5,0 C 92 % 1037,0 hPa 0,0 l/m 3,2 km/h (1 Bft) N-NW 337 0 min 0,0 UV-I 121 W/m 2,6 C 3,8 C 6,4 km/h (2 Bft)
04.02.2023 09:38 3,8 C 5,0 C 92 % 1036,9 hPa 0,0 l/m 3,2 km/h (1 Bft) N 360 0 min 0,0 UV-I 116 W/m 2,6 C 3,8 C 4,8 km/h (1 Bft)
04.02.2023 09:39 3,8 C 5,6 C 92 % 1037,0 hPa 0,0 l/m 1,6 km/h (1 Bft) N 360 0 min 0,5 UV-I 151 W/m 2,6 C 3,8 C 3,2 km/h (1 Bft)
04.02.2023 09:40 3,9 C 6,1 C 92 % 1036,8 hPa 0,0 l/m 1,6 km/h (1 Bft) N 360 0 min 0,0 UV-I 109 W/m 2,7 C 3,9 C 3,2 km/h (1 Bft)
04.02.2023 09:41 3,9 C 6,7 C 92 % 1036,9 hPa 0,0 l/m 3,2 km/h (1 Bft) N 360 0 min 0,5 UV-I 158 W/m 2,7 C 3,9 C 6,4 km/h (2 Bft)
04.02.2023 09:42 4,0 C 6,7 C 92 % 1036,9 hPa 0,0 l/m 4,8 km/h (1 Bft) N 360 0 min 0,0 UV-I 105 W/m 2,8 C 4,0 C 6,4 km/h (2 Bft)
04.02.2023 09:43 3,9 C 6,1 C 92 % 1036,9 hPa 0,0 l/m 6,4 km/h (2 Bft) N-NW 337 0 min 0,0 UV-I 86 W/m 2,7 C 3,9 C 8,0 km/h (2 Bft)
04.02.2023 09:44 3,9 C 6,1 C 92 % 1037,0 hPa 0,0 l/m 6,4 km/h (2 Bft) N-NW 337 0 min 0,0 UV-I 90 W/m 2,7 C 3,9 C 8,0 km/h (2 Bft)
04.02.2023 09:45 3,9 C 5,6 C 91 % 1037,0 hPa 0,0 l/m 4,8 km/h (1 Bft) N 360 0 min 0,0 UV-I 102 W/m 2,6 C 3,9 C 6,4 km/h (2 Bft)
04.02.2023 09:46 3,9 C 5,6 C 91 % 1037,0 hPa 0,0 l/m 4,8 km/h (1 Bft) N 360 0 min 0,5 UV-I 127 W/m 2,6 C 3,9 C 6,4 km/h (2 Bft)
04.02.2023 09:47 3,9 C 6,1 C 92 % 1037,0 hPa 0,0 l/m 3,2 km/h (1 Bft) N 360 0 min 0,5 UV-I 190 W/m 2,7 C 3,9 C 4,8 km/h (1 Bft)
04.02.2023 09:48 4,0 C 6,7 C 92 % 1037,0 hPa 0,0 l/m 3,2 km/h (1 Bft) N 360 0 min 0,5 UV-I 144 W/m 2,8 C 4,0 C 4,8 km/h (1 Bft)
04.02.2023 09:49 4,1 C 6,7 C 92 % 1036,9 hPa 0,0 l/m 6,4 km/h (2 Bft) N 360 0 min 0,5 UV-I 107 W/m 2,9 C 4,1 C 8,0 km/h (2 Bft)
04.02.2023 09:51 4,0 C 6,1 C 91 % 1037,0 hPa 0,0 l/m 4,4 km/h (1 Bft) N-NW 334 0 min 0,5 UV-I 93 W/m 2,7 C 4,0 C 8,0 km/h (2 Bft)
04.02.2023 09:54 4,1 C 6,1 C 91 % 1037,1 hPa 0,0 l/m 4,0 km/h (1 Bft) NW 317 0 min 0,5 UV-I 113 W/m 2,8 C 4,1 C 8,0 km/h (2 Bft)
04.02.2023 09:57 4,0 C 5,6 C 91 % 1037,1 hPa 0,0 l/m 2,6 km/h (1 Bft) NW 313 0 min 0,5 UV-I 91 W/m 2,7 C 4,0 C 6,4 km/h (2 Bft)
04.02.2023 10:00 4,0 C 5,6 C 91 % 1037,1 hPa 0,0 l/m 1,2 km/h (1 Bft) NW 313 0 min 0,5 UV-I 116 W/m 2,7 C 4,0 C 6,4 km/h (2 Bft)
04.02.2023 10:03 4,0 C 5,6 C 91 % 1037,2 hPa 0,0 l/m 2,1 km/h (1 Bft) NW 313 0 min 0,5 UV-I 102 W/m 2,7 C 4,0 C 4,8 km/h (1 Bft)
04.02.2023 10:06 4,0 C 6,1 C 91 % 1037,1 hPa 0,0 l/m 2,6 km/h (1 Bft) NW 323 0 min 0,5 UV-I 130 W/m 2,7 C 4,0 C 4,8 km/h (1 Bft)
04.02.2023 10:09 4,1 C 6,7 C 91 % 1037,3 hPa 0,0 l/m 2,9 km/h (1 Bft) N-NW 337 0 min 0,5 UV-I 162 W/m 2,8 C 4,1 C 4,8 km/h (1 Bft)
04.02.2023 10:12 4,3 C 6,7 C 91 % 1037,3 hPa 0,0 l/m 3,9 km/h (1 Bft) N 355 0 min 0,5 UV-I 132 W/m 3,0 C 4,3 C 8,0 km/h (2 Bft)
04.02.2023 10:15 4,3 C 6,7 C 91 % 1037,3 hPa 0,0 l/m 4,7 km/h (1 Bft) N 5 0 min 0,5 UV-I 145 W/m 3,0 C 4,3 C 8,0 km/h (2 Bft)
04.02.2023 10:18 4,3 C 6,7 C 91 % 1037,3 hPa 0,0 l/m 0,9 km/h (0 Bft) N 5 0 min 0,5 UV-I 106 W/m 3,0 C 4,3 C 4,8 km/h (1 Bft)
04.02.2023 10:21 4,3 C 6,1 C 91 % 1037,3 hPa 0,0 l/m 0,1 km/h (0 Bft) N 5 0 min 0,6 UV-I 118 W/m 3,0 C 4,3 C 1,6 km/h (1 Bft)
04.02.2023 10:24 4,4 C 6,7 C 91 % 1037,3 hPa 0,0 l/m 0,0 km/h (0 Bft) N 5 0 min 0,6 UV-I 170 W/m 3,1 C 4,4 C 0,0 km/h (0 Bft)
04.02.2023 10:27 4,6 C 7,8 C 91 % 1037,3 hPa 0,0 l/m 1,3 km/h (1 Bft) N 5 0 min 0,6 UV-I 168 W/m 3,3 C 4,6 C 4,8 km/h (1 Bft)
04.02.2023 10:30 4,5 C 7,2 C 90 % 1037,4 hPa 0,0 l/m 1,4 km/h (1 Bft) N 5 0 min 0,6 UV-I 122 W/m 3,0 C 4,5 C 6,4 km/h (2 Bft)
04.02.2023 10:33 4,7 C 6,7 C 91 % 1037,3 hPa 0,0 l/m 3,0 km/h (1 Bft) N 350 0 min 0,7 UV-I 132 W/m 3,4 C 4,7 C 8,0 km/h (2 Bft)
04.02.2023 10:36 4,6 C 6,7 C 90 % 1037,4 hPa 0,0 l/m 4,0 km/h (1 Bft) N-NW 337 0 min 0,7 UV-I 119 W/m 3,1 C 4,6 C 8,0 km/h (2 Bft)
04.02.2023 10:39 4,8 C 6,7 C 90 % 1037,6 hPa 0,0 l/m 2,8 km/h (1 Bft) NW 319 0 min 0,7 UV-I 136 W/m 3,3 C 4,8 C 6,4 km/h (2 Bft)
04.02.2023 10:42 4,7 C 6,1 C 89 % 1037,5 hPa 0,0 l/m 6,3 km/h (2 Bft) N 5 0 min 0,7 UV-I 140 W/m 3,0 C 4,7 C 11,3 km/h (2 Bft)
04.02.2023 10:45 4,7 C 6,1 C 89 % 1037,4 hPa 0,0 l/m 4,5 km/h (1 Bft) NW 316 0 min 0,7 UV-I 148 W/m 3,0 C 4,7 C 9,7 km/h (2 Bft)
04.02.2023 10:48 4,8 C 6,7 C 89 % 1037,6 hPa 0,0 l/m 4,2 km/h (1 Bft) N 355 0 min 0,7 UV-I 151 W/m 3,1 C 4,8 C 6,4 km/h (2 Bft)
04.02.2023 10:51 4,8 C 6,7 C 88 % 1037,6 hPa 0,0 l/m 5,7 km/h (1 Bft) NW 317 0 min 0,7 UV-I 149 W/m 3,0 C 4,8 C 8,0 km/h (2 Bft)
04.02.2023 10:54 4,8 C 6,7 C 88 % 1037,6 hPa 0,0 l/m 4,8 km/h (1 Bft) N-NW 333 0 min 0,7 UV-I 163 W/m 3,0 C 4,8 C 9,7 km/h (2 Bft)
04.02.2023 10:57 4,9 C 6,7 C 88 % 1037,7 hPa 0,0 l/m 3,7 km/h (1 Bft) N-NW 338 0 min 0,8 UV-I 163 W/m 3,1 C 4,9 C 6,4 km/h (2 Bft)
04.02.2023 11:00 4,9 C 7,2 C 89 % 1037,7 hPa 0,0 l/m 5,6 km/h (1 Bft) NW 318 0 min 0,8 UV-I 150 W/m 3,2 C 4,9 C 11,3 km/h (2 Bft)
04.02.2023 11:03 4,9 C 7,2 C 88 % 1037,7 hPa 0,0 l/m 4,0 km/h (1 Bft) N-NW 342 0 min 0,8 UV-I 173 W/m 3,1 C 4,9 C 6,4 km/h (2 Bft)
04.02.2023 11:06 5,0 C 7,8 C 88 % 1037,7 hPa 0,0 l/m 5,4 km/h (1 Bft) N-NW 338 0 min 0,9 UV-I 193 W/m 3,2 C 5,0 C 8,0 km/h (2 Bft)
04.02.2023 11:09 5,2 C 8,9 C 87 % 1037,8 hPa 0,0 l/m 2,7 km/h (1 Bft) N-NW 342 0 min 1,0 UV-I 231 W/m 3,2 C 5,2 C 6,4 km/h (2 Bft)
04.02.2023 11:12 5,3 C 10,6 C 87 % 1037,8 hPa 0,0 l/m 5,9 km/h (2 Bft) N-NW 344 3 min 1,1 UV-I 249 W/m 3,3 C 5,3 C 9,7 km/h (2 Bft)
04.02.2023 11:15 5,3 C 11,1 C 86 % 1037,8 hPa 0,0 l/m 5,3 km/h (1 Bft) NW 306 3 min 1,1 UV-I 293 W/m 3,2 C 5,3 C 8,0 km/h (2 Bft)
04.02.2023 11:18 5,5 C 11,1 C 86 % 1037,7 hPa 0,0 l/m 2,5 km/h (1 Bft) N-NW 342 3 min 1,1 UV-I 284 W/m 3,3 C 5,5 C 6,4 km/h (2 Bft)
04.02.2023 11:21 5,8 C 11,1 C 86 % 1037,7 hPa 0,0 l/m 3,2 km/h (1 Bft) N-NW 343 3 min 1,1 UV-I 286 W/m 3,6 C 5,8 C 8,0 km/h (2 Bft)
04.02.2023 11:24 5,7 C 12,2 C 85 % 1037,8 hPa 0,0 l/m 7,2 km/h (2 Bft) N-NW 345 3 min 1,2 UV-I 367 W/m 3,4 C 5,0 C 9,7 km/h (2 Bft)
04.02.2023 11:27 5,7 C 10,6 C 86 % 1037,9 hPa 0,0 l/m 4,4 km/h (1 Bft) N-NW 333 0 min 1,0 UV-I 196 W/m 3,5 C 5,7 C 11,3 km/h (2 Bft)
04.02.2023 11:30 5,8 C 10,0 C 85 % 1037,8 hPa 0,0 l/m 5,3 km/h (1 Bft) NW 322 3 min 1,1 UV-I 254 W/m 3,5 C 5,8 C 9,7 km/h (2 Bft)
04.02.2023 11:33 5,8 C 9,4 C 86 % 1037,8 hPa 0,0 l/m 2,1 km/h (1 Bft) NW 312 0 min 1,0 UV-I 222 W/m 3,6 C 5,8 C 6,4 km/h (2 Bft)
04.02.2023 11:36 5,7 C 8,9 C 85 % 1037,8 hPa 0,0 l/m 5,9 km/h (2 Bft) N-NW 327 0 min 0,9 UV-I 183 W/m 3,4 C 5,7 C 9,7 km/h (2 Bft)
04.02.2023 11:39 5,6 C 8,3 C 85 % 1037,8 hPa 0,0 l/m 3,5 km/h (1 Bft) NW 308 0 min 1,0 UV-I 181 W/m 3,3 C 5,6 C 8,0 km/h (2 Bft)
04.02.2023 11:42 5,4 C 7,8 C 83 % 1037,9 hPa 0,0 l/m 6,6 km/h (2 Bft) W 275 0 min 1,1 UV-I 212 W/m 2,7 C 5,2 C 14,5 km/h (3 Bft)
04.02.2023 11:45 5,5 C 7,8 C 82 % 1037,8 hPa 0,0 l/m 5,7 km/h (1 Bft) N-NW 345 0 min 1,1 UV-I 219 W/m 2,7 C 5,5 C 9,7 km/h (2 Bft)
04.02.2023 11:48 5,6 C 8,9 C 82 % 1037,9 hPa 0,0 l/m 4,4 km/h (1 Bft) N 360 3 min 1,2 UV-I 268 W/m 2,8 C 5,6 C 6,4 km/h (2 Bft)
04.02.2023 11:51 5,7 C 9,4 C 83 % 1037,8 hPa 0,0 l/m 2,5 km/h (1 Bft) NW 307 0 min 1,1 UV-I 224 W/m 3,0 C 5,7 C 6,4 km/h (2 Bft)
04.02.2023 11:54 5,9 C 10,6 C 84 % 1037,7 hPa 0,0 l/m 2,0 km/h (1 Bft) N-NW 336 3 min 1,3 UV-I 280 W/m 3,4 C 5,9 C 6,4 km/h (2 Bft)
04.02.2023 11:57 5,9 C 10,0 C 84 % 1037,8 hPa 0,0 l/m 3,1 km/h (1 Bft) W-NW 297 3 min 1,2 UV-I 267 W/m 3,4 C 5,9 C 11,3 km/h (2 Bft)
04.02.2023 12:00 5,8 C 9,4 C 83 % 1037,7 hPa 0,0 l/m 3,3 km/h (1 Bft) W 269 3 min 1,3 UV-I 284 W/m 3,1 C 5,8 C 6,4 km/h (2 Bft)
04.02.2023 12:03 6,0 C 9,4 C 84 % 1037,7 hPa 0,0 l/m 0,7 km/h (0 Bft) W 271 0 min 1,2 UV-I 247 W/m 3,5 C 6,0 C 3,2 km/h (1 Bft)
04.02.2023 12:06 5,8 C 10,0 C 83 % 1037,7 hPa 0,0 l/m 5,2 km/h (1 Bft) N-NW 331 3 min 1,3 UV-I 257 W/m 3,1 C 5,8 C 9,7 km/h (2 Bft)
04.02.2023 12:09 5,9 C 10,0 C 83 % 1037,7 hPa 0,0 l/m 4,9 km/h (1 Bft) W-NW 296 0 min 1,2 UV-I 245 W/m 3,2 C 5,9 C 11,3 km/h (2 Bft)
04.02.2023 12:12 5,9 C 10,0 C 83 % 1037,7 hPa 0,0 l/m 1,0 km/h (0 Bft) W-NW 296 3 min 1,3 UV-I 260 W/m 3,2 C 5,9 C 3,2 km/h (1 Bft)
04.02.2023 12:15 5,9 C 10,0 C 84 % 1037,7 hPa 0,0 l/m 0,2 km/h (0 Bft) NW 307 3 min 1,2 UV-I 251 W/m 3,4 C 5,9 C 3,2 km/h (1 Bft)
04.02.2023 12:18 6,1 C 10,6 C 83 % 1037,7 hPa 0,0 l/m 4,2 km/h (1 Bft) W-SW 242 0 min 1,2 UV-I 234 W/m 3,4 C 6,1 C 8,0 km/h (2 Bft)
04.02.2023 12:21 5,8 C 9,4 C 83 % 1037,7 hPa 0,0 l/m 1,7 km/h (1 Bft) N-NW 329 0 min 1,1 UV-I 206 W/m 3,1 C 5,8 C 6,4 km/h (2 Bft)
04.02.2023 12:24 5,9 C 9,4 C 83 % 1037,8 hPa 0,0 l/m 1,8 km/h (1 Bft) NW 315 0 min 1,1 UV-I 202 W/m 3,2 C 5,9 C 4,8 km/h (1 Bft)
04.02.2023 12:27 6,0 C 9,4 C 82 % 1037,7 hPa 0,0 l/m 2,4 km/h (1 Bft) NW 315 0 min 1,1 UV-I 187 W/m 3,2 C 6,0 C 6,4 km/h (2 Bft)
04.02.2023 12:30 5,9 C 10,0 C 82 % 1037,8 hPa 0,0 l/m 0,6 km/h (0 Bft) NW 322 0 min 1,1 UV-I 193 W/m 3,1 C 5,9 C 3,2 km/h (1 Bft)
04.02.2023 12:33 5,9 C 10,6 C 82 % 1037,7 hPa 0,0 l/m 3,3 km/h (1 Bft) N 350 0 min 1,2 UV-I 219 W/m 3,1 C 5,9 C 6,4 km/h (2 Bft)
04.02.2023 12:36 5,9 C 10,0 C 81 % 1037,8 hPa 0,0 l/m 3,6 km/h (1 Bft) N-NW 348 0 min 1,2 UV-I 234 W/m 2,9 C 5,9 C 6,4 km/h (2 Bft)
04.02.2023 12:39 5,9 C 11,1 C 82 % 1037,8 hPa 0,0 l/m 1,8 km/h (1 Bft) N 360 0 min 1,2 UV-I 240 W/m 3,1 C 5,9 C 6,4 km/h (2 Bft)
04.02.2023 12:42 5,9 C 11,1 C 82 % 1037,7 hPa 0,0 l/m 0,0 km/h (0 Bft) N 9 0 min 1,2 UV-I 231 W/m 3,1 C 5,9 C 1,6 km/h (1 Bft)
04.02.2023 12:45 6,1 C 10,6 C 82 % 1037,7 hPa 0,0 l/m 1,6 km/h (1 Bft) N-NO 13 0 min 1,1 UV-I 222 W/m 3,3 C 6,1 C 4,8 km/h (1 Bft)
04.02.2023 12:48 6,2 C 10,6 C 82 % 1037,8 hPa 0,0 l/m 0,0 km/h (0 Bft) N-NO 13 0 min 1,1 UV-I 230 W/m 3,4 C 6,2 C 1,6 km/h (1 Bft)
04.02.2023 12:51 6,1 C 10,6 C 81 % 1037,6 hPa 0,0 l/m 0,0 km/h (0 Bft) N-NO 13 0 min 1,1 UV-I 219 W/m 3,1 C 6,1 C 0,0 km/h (0 Bft)
04.02.2023 12:54 5,9 C 10,0 C 82 % 1037,7 hPa 0,0 l/m 0,0 km/h (0 Bft) N-NO 13 0 min 1,1 UV-I 226 W/m 3,1 C 5,9 C 0,0 km/h (0 Bft)
04.02.2023 12:57 5,8 C 8,9 C 81 % 1037,6 hPa 0,0 l/m 0,0 km/h (0 Bft) N-NO 17 0 min 1,1 UV-I 211 W/m 2,8 C 5,8 C 0,0 km/h (0 Bft)
04.02.2023 13:00 5,7 C 8,9 C 81 % 1037,6 hPa 0,0 l/m 0,0 km/h (0 Bft) N-NO 17 0 min 1,1 UV-I 201 W/m 2,7 C 5,7 C 0,0 km/h (0 Bft)
04.02.2023 13:03 5,9 C 9,4 C 82 % 1037,7 hPa 0,0 l/m 0,0 km/h (0 Bft) N-NO 17 0 min 1,1 UV-I 213 W/m 3,1 C 5,9 C 1,6 km/h (1 Bft)
04.02.2023 13:06 5,9 C 9,4 C 82 % 1037,6 hPa 0,0 l/m 0,0 km/h (0 Bft) N-NO 17 0 min 1,1 UV-I 222 W/m 3,1 C 5,9 C 0,0 km/h (0 Bft)
04.02.2023 13:09 6,1 C 10,0 C 82 % 1037,7 hPa 0,0 l/m 0,0 km/h (0 Bft) N-NO 17 0 min 1,1 UV-I 212 W/m 3,3 C 6,1 C 1,6 km/h (1 Bft)
04.02.2023 13:12 6,2 C 9,4 C 82 % 1037,6 hPa 0,0 l/m 0,2 km/h (0 Bft) N-NO 15 0 min 1,1 UV-I 218 W/m 3,4 C 6,2 C 1,6 km/h (1 Bft)
04.02.2023 13:15 6,1 C 9,4 C 82 % 1037,6 hPa 0,0 l/m 0,0 km/h (0 Bft) N-NO 13 0 min 1,1 UV-I 217 W/m 3,3 C 6,1 C 1,6 km/h (1 Bft)
04.02.2023 13:18 6,2 C 8,9 C 82 % 1037,6 hPa 0,0 l/m 0,0 km/h (0 Bft) NW 311 0 min 1,1 UV-I 222 W/m 3,4 C 6,2 C 1,6 km/h (1 Bft)
04.02.2023 13:21 6,2 C 10,0 C 83 % 1037,6 hPa 0,0 l/m 0,0 km/h (0 Bft) NW 311 0 min 1,1 UV-I 227 W/m 3,5 C 6,2 C 0,0 km/h (0 Bft)
04.02.2023 13:24 6,4 C 10,6 C 83 % 1037,6 hPa 0,0 l/m 0,7 km/h (0 Bft) NW 317 0 min 1,1 UV-I 216 W/m 3,7 C 6,4 C 4,8 km/h (1 Bft)
04.02.2023 13:27 6,3 C 10,6 C 80 % 1037,6 hPa 0,0 l/m 0,4 km/h (0 Bft) NW 321 0 min 1,1 UV-I 206 W/m 3,1 C 6,3 C 3,2 km/h (1 Bft)
04.02.2023 13:30 6,2 C 10,6 C 79 % 1037,7 hPa 0,0 l/m 0,1 km/h (0 Bft) NW 323 0 min 1,0 UV-I 193 W/m 2,8 C 6,2 C 1,6 km/h (1 Bft)
04.02.2023 13:33 6,2 C 10,0 C 80 % 1037,7 hPa 0,0 l/m 0,0 km/h (0 Bft) NW 323 0 min 1,1 UV-I 196 W/m 3,0 C 6,2 C 1,6 km/h (1 Bft)
04.02.2023 13:36 6,4 C 10,6 C 78 % 1037,7 hPa 0,0 l/m 0,4 km/h (0 Bft) NW 322 0 min 1,0 UV-I 190 W/m 2,8 C 6,4 C 3,2 km/h (1 Bft)
04.02.2023 13:39 6,4 C 10,0 C 78 % 1037,7 hPa 0,0 l/m 1,1 km/h (1 Bft) N-NW 334 0 min 1,0 UV-I 189 W/m 2,8 C 6,4 C 4,8 km/h (1 Bft)
04.02.2023 13:42 6,4 C 10,6 C 78 % 1037,8 hPa 0,0 l/m 2,9 km/h (1 Bft) N 351 0 min 1,0 UV-I 203 W/m 2,8 C 6,4 C 4,8 km/h (1 Bft)
04.02.2023 13:45 6,3 C 11,1 C 78 % 1037,7 hPa 0,0 l/m 1,3 km/h (1 Bft) N-NW 348 0 min 1,1 UV-I 213 W/m 2,8 C 6,3 C 3,2 km/h (1 Bft)
04.02.2023 13:48 6,3 C 10,6 C 78 % 1037,7 hPa 0,0 l/m 0,0 km/h (0 Bft) N-NW 348 0 min 1,1 UV-I 223 W/m 2,8 C 6,3 C 0,0 km/h (0 Bft)
04.02.2023 13:51 6,6 C 11,1 C 79 % 1037,7 hPa 0,0 l/m 1,9 km/h (1 Bft) N 9 0 min 1,1 UV-I 225 W/m 3,2 C 6,6 C 4,8 km/h (1 Bft)
04.02.2023 13:54 6,6 C 11,7 C 79 % 1037,7 hPa 0,0 l/m 0,2 km/h (0 Bft) N 9 0 min 1,1 UV-I 234 W/m 3,2 C 6,6 C 1,6 km/h (1 Bft)
04.02.2023 13:57 6,4 C 11,7 C 79 % 1037,7 hPa 0,0 l/m 0,0 km/h (0 Bft) N 9 0 min 1,0 UV-I 232 W/m 3,0 C 6,4 C 0,0 km/h (0 Bft)
04.02.2023 14:00 6,6 C 11,1 C 80 % 1037,7 hPa 0,0 l/m 1,1 km/h (1 Bft) W-NW 300 0 min 1,0 UV-I 205 W/m 3,4 C 6,6 C 4,8 km/h (1 Bft)
04.02.2023 14:03 6,6 C 10,6 C 80 % 1037,7 hPa 0,0 l/m 1,2 km/h (1 Bft) NW 306 0 min 0,9 UV-I 183 W/m 3,4 C 6,6 C 6,4 km/h (2 Bft)
04.02.2023 14:06 6,5 C 10,0 C 79 % 1037,8 hPa 0,0 l/m 0,3 km/h (0 Bft) NW 307 0 min 0,9 UV-I 173 W/m 3,1 C 6,5 C 3,2 km/h (1 Bft)
04.02.2023 14:09 6,5 C 10,0 C 79 % 1037,8 hPa 0,0 l/m 3,4 km/h (1 Bft) N 355 0 min 0,9 UV-I 169 W/m 3,1 C 6,5 C 6,4 km/h (2 Bft)
04.02.2023 14:12 6,4 C 10,0 C 79 % 1037,8 hPa 0,0 l/m 3,5 km/h (1 Bft) N 5 0 min 0,8 UV-I 162 W/m 3,0 C 6,4 C 6,4 km/h (2 Bft)
04.02.2023 14:15 6,3 C 9,4 C 79 % 1037,8 hPa 0,0 l/m 0,9 km/h (0 Bft) N 5 0 min 0,7 UV-I 148 W/m 2,9 C 6,3 C 3,2 km/h (1 Bft)
04.02.2023 14:18 6,4 C 9,4 C 80 % 1037,7 hPa 0,0 l/m 0,3 km/h (0 Bft) N 5 0 min 0,7 UV-I 141 W/m 3,2 C 6,4 C 3,2 km/h (1 Bft)
04.02.2023 14:21 6,4 C 8,3 C 80 % 1037,8 hPa 0,0 l/m 2,7 km/h (1 Bft) N 355 0 min 0,5 UV-I 103 W/m 3,2 C 6,4 C 6,4 km/h (2 Bft)
04.02.2023 14:24 6,3 C 8,3 C 80 % 1037,7 hPa 0,0 l/m 0,9 km/h (0 Bft) N 355 0 min 0,6 UV-I 115 W/m 3,1 C 6,3 C 4,8 km/h (1 Bft)
04.02.2023 14:27 6,4 C 7,8 C 81 % 1037,8 hPa 0,0 l/m 4,2 km/h (1 Bft) N 5 0 min 0,6 UV-I 125 W/m 3,4 C 6,4 C 6,4 km/h (2 Bft)
04.02.2023 14:30 6,4 C 8,3 C 81 % 1037,8 hPa 0,0 l/m 1,5 km/h (1 Bft) N 5 0 min 0,6 UV-I 126 W/m 3,4 C 6,4 C 4,8 km/h (1 Bft)
04.02.2023 14:33 6,3 C 8,3 C 81 % 1037,8 hPa 0,0 l/m 1,9 km/h (1 Bft) N 5 0 min 0,6 UV-I 124 W/m 3,3 C 6,3 C 6,4 km/h (2 Bft)
04.02.2023 14:36 6,3 C 8,3 C 81 % 1037,7 hPa 0,0 l/m 0,0 km/h (0 Bft) N 5 0 min 0,6 UV-I 126 W/m 3,3 C 6,3 C 0,0 km/h (0 Bft)
04.02.2023 14:39 6,2 C 7,8 C 80 % 1037,7 hPa 0,0 l/m 0,1 km/h (0 Bft) N 5 0 min 0,5 UV-I 117 W/m 3,0 C 6,2 C 1,6 km/h (1 Bft)
04.02.2023 14:42 6,3 C 7,8 C 81 % 1037,8 hPa 0,0 l/m 0,0 km/h (0 Bft) N 5 0 min 0,5 UV-I 109 W/m 3,3 C 6,3 C 0,0 km/h (0 Bft)
04.02.2023 14:45 6,3 C 8,3 C 80 % 1037,7 hPa 0,0 l/m 0,6 km/h (0 Bft) N 5 0 min 0,6 UV-I 133 W/m 3,1 C 6,3 C 3,2 km/h (1 Bft)
04.02.2023 14:48 6,3 C 7,8 C 80 % 1037,7 hPa 0,0 l/m 0,3 km/h (0 Bft) N 5 0 min 0,6 UV-I 126 W/m 3,1 C 6,3 C 1,6 km/h (1 Bft)
04.02.2023 14:51 6,4 C 8,3 C 81 % 1037,8 hPa 0,0 l/m 0,5 km/h (0 Bft) N 5 0 min 0,6 UV-I 128 W/m 3,4 C 6,4 C 3,2 km/h (1 Bft)
04.02.2023 14:54 6,5 C 8,3 C 81 % 1037,8 hPa 0,0 l/m 4,4 km/h (1 Bft) N-NO 13 0 min 0,6 UV-I 121 W/m 3,5 C 6,5 C 6,4 km/h (2 Bft)
04.02.2023 14:57 6,4 C 8,9 C 81 % 1037,7 hPa 0,0 l/m 2,5 km/h (1 Bft) N 11 0 min 0,6 UV-I 126 W/m 3,4 C 6,4 C 4,8 km/h (1 Bft)
04.02.2023 15:00 6,5 C 8,3 C 81 % 1037,7 hPa 0,0 l/m 2,2 km/h (1 Bft) N 11 0 min 0,6 UV-I 116 W/m 3,5 C 6,5 C 4,8 km/h (1 Bft)
04.02.2023 15:03 6,4 C 8,9 C 81 % 1037,7 hPa 0,0 l/m 2,3 km/h (1 Bft) N-NO 13 0 min 0,6 UV-I 125 W/m 3,4 C 6,4 C 3,2 km/h (1 Bft)
04.02.2023 15:06 6,4 C 8,9 C 81 % 1037,8 hPa 0,0 l/m 1,3 km/h (1 Bft) N-NO 13 0 min 0,7 UV-I 139 W/m 3,4 C 6,4 C 4,8 km/h (1 Bft)
04.02.2023 15:09 6,5 C 8,9 C 81 % 1037,8 hPa 0,0 l/m 3,1 km/h (1 Bft) N-NO 13 0 min 0,6 UV-I 127 W/m 3,5 C 6,5 C 4,8 km/h (1 Bft)
04.02.2023 15:12 6,5 C 8,9 C 81 % 1037,7 hPa 0,0 l/m 2,6 km/h (1 Bft) N 355 0 min 0,5 UV-I 102 W/m 3,5 C 6,5 C 6,4 km/h (2 Bft)
04.02.2023 15:15 6,4 C 8,3 C 81 % 1037,7 hPa 0,0 l/m 1,1 km/h (1 Bft) N 355 0 min 0,2 UV-I 87 W/m 3,4 C 6,4 C 3,2 km/h (1 Bft)
04.02.2023 15:18 6,4 C 7,8 C 81 % 1037,6 hPa 0,0 l/m 1,4 km/h (1 Bft) N 355 0 min 0,0 UV-I 72 W/m 3,4 C 6,4 C 3,2 km/h (1 Bft)
04.02.2023 15:21 6,3 C 7,8 C 81 % 1037,6 hPa 0,0 l/m 0,0 km/h (0 Bft) N 355 0 min 0,0 UV-I 73 W/m 3,3 C 6,3 C 0,0 km/h (0 Bft)
04.02.2023 15:24 6,3 C 7,8 C 81 % 1037,6 hPa 0,0 l/m 0,0 km/h (0 Bft) N 355 0 min 0,0 UV-I 85 W/m 3,3 C 6,3 C 0,0 km/h (0 Bft)
04.02.2023 15:27 6,3 C 7,8 C 81 % 1037,7 hPa 0,0 l/m 0,0 km/h (0 Bft) N 355 0 min 0,0 UV-I 84 W/m 3,3 C 6,3 C 0,0 km/h (0 Bft)
04.02.2023 15:30 6,3 C 7,8 C 81 % 1037,7 hPa 0,0 l/m 0,2 km/h (0 Bft) N 355 0 min 0,0 UV-I 82 W/m 3,3 C 6,3 C 1,6 km/h (1 Bft)
04.02.2023 15:33 6,3 C 7,8 C 81 % 1037,7 hPa 0,0 l/m 1,2 km/h (1 Bft) N 355 0 min 0,0 UV-I 82 W/m 3,3 C 6,3 C 3,2 km/h (1 Bft)
04.02.2023 15:36 6,3 C 7,8 C 81 % 1037,5 hPa 0,0 l/m 0,1 km/h (0 Bft) N 355 0 min 0,0 UV-I 76 W/m 3,3 C 6,3 C 1,6 km/h (1 Bft)
04.02.2023 15:39 6,3 C 7,2 C 82 % 1037,6 hPa 0,0 l/m 0,0 km/h (0 Bft) N 355 0 min 0,0 UV-I 68 W/m 3,5 C 6,3 C 0,0 km/h (0 Bft)
04.02.2023 15:42 6,3 C 7,2 C 82 % 1037,7 hPa 0,0 l/m 0,0 km/h (0 Bft) N 355 0 min 0,0 UV-I 66 W/m 3,5 C 6,3 C 0,0 km/h (0 Bft)
04.02.2023 15:45 6,3 C 7,2 C 82 % 1037,7 hPa 0,0 l/m 0,6 km/h (0 Bft) N 355 0 min 0,0 UV-I 68 W/m 3,5 C 6,3 C 1,6 km/h (1 Bft)
04.02.2023 15:48 6,3 C 7,8 C 82 % 1037,6 hPa 0,0 l/m 0,4 km/h (0 Bft) N 355 0 min 0,0 UV-I 72 W/m 3,5 C 6,3 C 1,6 km/h (1 Bft)
04.02.2023 15:51 6,3 C 7,8 C 82 % 1037,7 hPa 0,0 l/m 0,0 km/h (0 Bft) N 355 0 min 0,0 UV-I 78 W/m 3,5 C 6,3 C 1,6 km/h (1 Bft)
04.02.2023 15:54 6,3 C 7,8 C 82 % 1037,6 hPa 0,0 l/m 0,2 km/h (0 Bft) N 355 0 min 0,0 UV-I 61 W/m 3,5 C 6,3 C 1,6 km/h (1 Bft)
04.02.2023 15:57 6,3 C 7,2 C 82 % 1037,6 hPa 0,0 l/m 0,6 km/h (0 Bft) N 355 0 min 0,0 UV-I 47 W/m 3,5 C 6,3 C 1,6 km/h (1 Bft)
04.02.2023 16:00 6,2 C 7,2 C 82 % 1037,6 hPa 0,0 l/m 0,0 km/h (0 Bft) N 355 0 min 0,0 UV-I 45 W/m 3,4 C 6,2 C 0,0 km/h (0 Bft)
04.02.2023 16:03 6,3 C 7,2 C 83 % 1037,7 hPa 0,0 l/m 0,0 km/h (0 Bft) N 355 0 min 0,0 UV-I 50 W/m 3,6 C 6,3 C 0,0 km/h (0 Bft)
04.02.2023 16:06 6,3 C 7,2 C 83 % 1037,7 hPa 0,0 l/m 0,0 km/h (0 Bft) N 355 0 min 0,0 UV-I 43 W/m 3,6 C 6,3 C 0,0 km/h (0 Bft)
04.02.2023 16:09 6,3 C 6,7 C 83 % 1037,7 hPa 0,0 l/m 0,0 km/h (0 Bft) N 355 0 min 0,0 UV-I 32 W/m 3,6 C 6,3 C 0,0 km/h (0 Bft)
04.02.2023 16:12 6,3 C 6,7 C 83 % 1037,7 hPa 0,0 l/m 0,0 km/h (0 Bft) N 355 0 min 0,0 UV-I 32 W/m 3,6 C 6,3 C 0,0 km/h (0 Bft)
04.02.2023 16:15 6,3 C 6,7 C 83 % 1037,8 hPa 0,0 l/m 0,0 km/h (0 Bft) N 355 0 min 0,0 UV-I 27 W/m 3,6 C 6,3 C 0,0 km/h (0 Bft)
04.02.2023 16:18 6,2 C 6,1 C 83 % 1037,9 hPa 0,0 l/m 0,0 km/h (0 Bft) N 355 0 min 0,0 UV-I 29 W/m 3,5 C 6,2 C 0,0 km/h (0 Bft)
04.02.2023 16:21 6,2 C 6,1 C 83 % 1037,9 hPa 0,0 l/m 1,5 km/h (1 Bft) N 355 0 min 0,0 UV-I 33 W/m 3,5 C 6,2 C 3,2 km/h (1 Bft)
04.02.2023 16:24 6,1 C 6,1 C 84 % 1037,9 hPa 0,0 l/m 0,6 km/h (0 Bft) N 355 0 min 0,0 UV-I 36 W/m 3,6 C 6,1 C 3,2 km/h (1 Bft)
04.02.2023 16:27 6,2 C 6,7 C 84 % 1038,0 hPa 0,0 l/m 0,9 km/h (0 Bft) N 355 0 min 0,0 UV-I 36 W/m 3,7 C 6,2 C 4,8 km/h (1 Bft)
04.02.2023 16:30 6,1 C 6,1 C 85 % 1038,0 hPa 0,0 l/m 4,0 km/h (1 Bft) N 355 0 min 0,0 UV-I 26 W/m 3,8 C 6,1 C 6,4 km/h (2 Bft)
04.02.2023 16:33 6,2 C 6,1 C 85 % 1038,1 hPa 0,0 l/m 1,4 km/h (1 Bft) N 355 0 min 0,0 UV-I 21 W/m 3,9 C 6,2 C 6,4 km/h (2 Bft)
04.02.2023 16:36 6,1 C 6,1 C 85 % 1038,2 hPa 0,0 l/m 0,5 km/h (0 Bft) N-NW 336 0 min 0,0 UV-I 23 W/m 3,8 C 6,1 C 3,2 km/h (1 Bft)
04.02.2023 16:39 6,1 C 6,1 C 85 % 1038,1 hPa 0,0 l/m 2,7 km/h (1 Bft) W-NW 303 0 min 0,0 UV-I 20 W/m 3,8 C 6,1 C 4,8 km/h (1 Bft)
04.02.2023 16:42 6,0 C 6,1 C 85 % 1038,2 hPa 0,0 l/m 1,7 km/h (1 Bft) W-NW 286 0 min 0,0 UV-I 18 W/m 3,7 C 6,0 C 4,8 km/h (1 Bft)
04.02.2023 16:45 5,9 C 5,6 C 84 % 1038,1 hPa 0,0 l/m 4,6 km/h (1 Bft) W 273 0 min 0,0 UV-I 21 W/m 3,4 C 5,9 C 9,7 km/h (2 Bft)
04.02.2023 16:48 5,9 C 5,6 C 84 % 1038,1 hPa 0,0 l/m 3,7 km/h (1 Bft) W 272 0 min 0,0 UV-I 24 W/m 3,4 C 5,9 C 6,4 km/h (2 Bft)
04.02.2023 16:51 5,9 C 5,6 C 84 % 1038,2 hPa 0,0 l/m 3,9 km/h (1 Bft) W 265 0 min 0,0 UV-I 25 W/m 3,4 C 5,9 C 6,4 km/h (2 Bft)
04.02.2023 16:54 5,8 C 5,6 C 84 % 1038,1 hPa 0,0 l/m 1,0 km/h (0 Bft) W 265 0 min 0,0 UV-I 24 W/m 3,3 C 5,8 C 4,8 km/h (1 Bft)
04.02.2023 16:57 5,8 C 5,6 C 84 % 1038,0 hPa 0,0 l/m 0,0 km/h (0 Bft) W 265 0 min 0,0 UV-I 21 W/m 3,3 C 5,8 C 0,0 km/h (0 Bft)
04.02.2023 17:00 5,8 C 5,6 C 84 % 1038,0 hPa 0,0 l/m 0,2 km/h (0 Bft) W 265 0 min 0,0 UV-I 19 W/m 3,3 C 5,8 C 3,2 km/h (1 Bft)
04.02.2023 17:03 5,8 C 5,6 C 85 % 1038,1 hPa 0,0 l/m 0,3 km/h (0 Bft) W 269 0 min 0,0 UV-I 18 W/m 3,5 C 5,8 C 4,8 km/h (1 Bft)
04.02.2023 17:06 5,8 C 5,6 C 85 % 1038,1 hPa 0,0 l/m 2,9 km/h (1 Bft) NW 306 0 min 0,0 UV-I 18 W/m 3,5 C 5,8 C 6,4 km/h (2 Bft)
04.02.2023 17:09 5,7 C 5,6 C 85 % 1038,0 hPa 0,0 l/m 1,7 km/h (1 Bft) NW 322 0 min 0,0 UV-I 18 W/m 3,4 C 5,7 C 6,4 km/h (2 Bft)
04.02.2023 17:12 5,7 C 5,6 C 85 % 1038,1 hPa 0,0 l/m 1,0 km/h (0 Bft) NW 322 0 min 0,0 UV-I 17 W/m 3,4 C 5,7 C 4,8 km/h (1 Bft)
04.02.2023 17:15 5,7 C 5,0 C 85 % 1038,1 hPa 0,0 l/m 2,8 km/h (1 Bft) NW 326 0 min 0,0 UV-I 15 W/m 3,4 C 5,7 C 6,4 km/h (2 Bft)
04.02.2023 17:18 5,6 C 5,0 C 85 % 1038,0 hPa 0,0 l/m 2,3 km/h (1 Bft) W-NW 303 0 min 0,0 UV-I 14 W/m 3,3 C 5,6 C 6,4 km/h (2 Bft)
04.02.2023 17:21 5,6 C 5,0 C 85 % 1038,1 hPa 0,0 l/m 0,1 km/h (0 Bft) W-NW 303 0 min 0,0 UV-I 12 W/m 3,3 C 5,6 C 1,6 km/h (1 Bft)
04.02.2023 17:24 5,6 C 5,0 C 85 % 1038,2 hPa 0,0 l/m 1,7 km/h (1 Bft) NW 323 0 min 0,0 UV-I 10 W/m 3,3 C 5,6 C 6,4 km/h (2 Bft)
04.02.2023 17:27 5,5 C 5,0 C 86 % 1038,1 hPa 0,0 l/m 2,3 km/h (1 Bft) N-NW 331 0 min 0,0 UV-I 8 W/m 3,3 C 5,5 C 4,8 km/h (1 Bft)
04.02.2023 17:30 5,5 C 5,0 C 86 % 1038,2 hPa 0,0 l/m 0,6 km/h (0 Bft) N-NW 331 0 min 0,0 UV-I 6 W/m 3,3 C 5,5 C 3,2 km/h (1 Bft)
04.02.2023 17:33 5,4 C 5,0 C 86 % 1038,3 hPa 0,0 l/m 1,2 km/h (1 Bft) N-NW 331 0 min 0,0 UV-I 1 W/m 3,3 C 5,4 C 3,2 km/h (1 Bft)
04.02.2023 17:36 5,4 C 5,0 C 86 % 1038,4 hPa 0,0 l/m 0,1 km/h (0 Bft) N-NW 331 0 min 0,0 UV-I 0 W/m 3,3 C 5,4 C 1,6 km/h (1 Bft)
04.02.2023 17:39 5,3 C 4,4 C 86 % 1038,3 hPa 0,0 l/m 0,2 km/h (0 Bft) N-NW 331 0 min 0,0 UV-I 0 W/m 3,2 C 5,3 C 1,6 km/h (1 Bft)
04.02.2023 17:42 5,3 C 4,4 C 87 % 1038,3 hPa 0,0 l/m 0,5 km/h (0 Bft) N-NW 331 0 min 0,0 UV-I 0 W/m 3,3 C 5,3 C 3,2 km/h (1 Bft)
04.02.2023 17:45 5,3 C 4,4 C 87 % 1038,4 hPa 0,0 l/m 0,6 km/h (0 Bft) N-NW 331 0 min 0,0 UV-I 0 W/m 3,3 C 5,3 C 3,2 km/h (1 Bft)
04.02.2023 17:48 5,3 C 4,4 C 87 % 1038,5 hPa 0,0 l/m 0,2 km/h (0 Bft) N-NW 331 0 min 0,0 UV-I 0 W/m 3,3 C 5,3 C 1,6 km/h (1 Bft)
04.02.2023 17:51 5,3 C 4,4 C 87 % 1038,5 hPa 0,0 l/m 0,1 km/h (0 Bft) N-NW 331 0 min 0,0 UV-I 0 W/m 3,3 C 5,3 C 1,6 km/h (1 Bft)
04.02.2023 17:54 5,2 C 4,4 C 87 % 1038,5 hPa 0,0 l/m 0,0 km/h (0 Bft) N-NW 331 0 min 0,0 UV-I 0 W/m 3,2 C 5,2 C 0,0 km/h (0 Bft)
04.02.2023 17:57 5,2 C 4,4 C 87 % 1038,5 hPa 0,0 l/m 0,0 km/h (0 Bft) N-NW 331 0 min 0,0 UV-I 0 W/m 3,2 C 5,2 C 0,0 km/h (0 Bft)
04.02.2023 18:00 5,2 C 4,4 C 87 % 1038,5 hPa 0,0 l/m 0,0 km/h (0 Bft) N-NW 331 0 min 0,0 UV-I 0 W/m 3,2 C 5,2 C 0,0 km/h (0 Bft)
04.02.2023 18:03 5,1 C 4,4 C 87 % 1038,5 hPa 0,0 l/m 0,0 km/h (0 Bft) N-NW 331 0 min 0,0 UV-I 0 W/m 3,1 C 5,1 C 0,0 km/h (0 Bft)
04.02.2023 18:06 5,1 C 4,4 C 87 % 1038,5 hPa 0,0 l/m 0,1 km/h (0 Bft) N-NW 331 0 min 0,0 UV-I 0 W/m 3,1 C 5,1 C 1,6 km/h (1 Bft)
04.02.2023 18:09 5,1 C 4,4 C 86 % 1038,6 hPa 0,0 l/m 0,9 km/h (0 Bft) N-NW 331 0 min 0,0 UV-I 0 W/m 3,0 C 5,1 C 4,8 km/h (1 Bft)
04.02.2023 18:12 5,1 C 4,4 C 86 % 1038,7 hPa 0,0 l/m 0,6 km/h (0 Bft) N-NW 331 0 min 0,0 UV-I 0 W/m 3,0 C 5,1 C 3,2 km/h (1 Bft)
04.02.2023 18:15 5,1 C 4,4 C 87 % 1038,7 hPa 0,0 l/m 0,0 km/h (0 Bft) N-NW 331 0 min 0,0 UV-I 0 W/m 3,1 C 5,1 C 1,6 km/h (1 Bft)
04.02.2023 18:18 5,0 C 4,4 C 87 % 1038,7 hPa 0,0 l/m 0,0 km/h (0 Bft) N-NW 331 0 min 0,0 UV-I 0 W/m 3,0 C 5,0 C 0,0 km/h (0 Bft)
04.02.2023 18:21 5,0 C 3,9 C 87 % 1038,6 hPa 0,0 l/m 0,0 km/h (0 Bft) N-NW 331 0 min 0,0 UV-I 0 W/m 3,0 C 5,0 C 0,0 km/h (0 Bft)
04.02.2023 18:24 4,9 C 3,9 C 87 % 1038,8 hPa 0,0 l/m 0,0 km/h (0 Bft) N-NW 331 0 min 0,0 UV-I 0 W/m 2,9 C 4,9 C 0,0 km/h (0 Bft)
04.02.2023 18:27 4,9 C 3,9 C 87 % 1038,8 hPa 0,0 l/m 0,0 km/h (0 Bft) N-NW 331 0 min 0,0 UV-I 0 W/m 2,9 C 4,9 C 0,0 km/h (0 Bft)
04.02.2023 18:30 4,9 C 3,9 C 87 % 1038,8 hPa 0,0 l/m 0,0 km/h (0 Bft) N-NW 331 0 min 0,0 UV-I 0 W/m 2,9 C 4,9 C 0,0 km/h (0 Bft)
04.02.2023 18:33 4,9 C 3,9 C 88 % 1038,8 hPa 0,0 l/m 0,0 km/h (0 Bft) N-NW 331 0 min 0,0 UV-I 0 W/m 3,1 C 4,9 C 0,0 km/h (0 Bft)
04.02.2023 18:36 4,9 C 3,9 C 88 % 1038,8 hPa 0,0 l/m 0,0 km/h (0 Bft) N-NW 331 0 min 0,0 UV-I 0 W/m 3,1 C 4,9 C 0,0 km/h (0 Bft)
04.02.2023 18:39 4,9 C 3,9 C 88 % 1038,9 hPa 0,0 l/m 0,0 km/h (0 Bft) N-NW 331 0 min 0,0 UV-I 0 W/m 3,1 C 4,9 C 0,0 km/h (0 Bft)
04.02.2023 18:42 4,8 C 3,9 C 88 % 1038,9 hPa 0,0 l/m 0,0 km/h (0 Bft) N-NW 331 0 min 0,0 UV-I 0 W/m 3,0 C 4,8 C 0,0 km/h (0 Bft)
04.02.2023 18:45 4,8 C 3,9 C 88 % 1039,0 hPa 0,0 l/m 0,0 km/h (0 Bft) N-NW 331 0 min 0,0 UV-I 0 W/m 3,0 C 4,8 C 0,0 km/h (0 Bft)
04.02.2023 18:48 4,8 C 3,9 C 88 % 1039,0 hPa 0,0 l/m 0,0 km/h (0 Bft) N-NW 331 0 min 0,0 UV-I 0 W/m 3,0 C 4,8 C 0,0 km/h (0 Bft)
04.02.2023 18:51 4,8 C 3,3 C 88 % 1039,1 hPa 0,0 l/m 0,0 km/h (0 Bft) N-NW 331 0 min 0,0 UV-I 0 W/m 3,0 C 4,8 C 0,0 km/h (0 Bft)
04.02.2023 18:54 4,7 C 3,3 C 88 % 1039,1 hPa 0,0 l/m 0,0 km/h (0 Bft) N-NW 331 0 min 0,0 UV-I 0 W/m 2,9 C 4,7 C 0,0 km/h (0 Bft)
04.02.2023 18:57 4,6 C 3,3 C 88 % 1039,0 hPa 0,0 l/m 0,0 km/h (0 Bft) N-NW 331 0 min 0,0 UV-I 0 W/m 2,8 C 4,6 C 0,0 km/h (0 Bft)
04.02.2023 19:00 4,5 C 2,8 C 88 % 1039,1 hPa 0,0 l/m 0,0 km/h (0 Bft) N-NW 331 0 min 0,0 UV-I 0 W/m 2,7 C 4,5 C 0,0 km/h (0 Bft)
04.02.2023 19:03 4,4 C 2,8 C 89 % 1039,0 hPa 0,0 l/m 0,0 km/h (0 Bft) N-NW 331 0 min 0,0 UV-I 0 W/m 2,7 C 4,4 C 0,0 km/h (0 Bft)
04.02.2023 19:06 4,3 C 2,8 C 89 % 1039,1 hPa 0,0 l/m 0,0 km/h (0 Bft) N-NW 331 0 min 0,0 UV-I 0 W/m 2,7 C 4,3 C 0,0 km/h (0 Bft)
04.02.2023 19:09 4,2 C 2,8 C 89 % 1039,1 hPa 0,0 l/m 0,0 km/h (0 Bft) N-NW 331 0 min 0,0 UV-I 0 W/m 2,6 C 4,2 C 0,0 km/h (0 Bft)
04.02.2023 19:12 4,2 C 2,2 C 89 % 1039,0 hPa 0,0 l/m 0,0 km/h (0 Bft) N-NW 331 0 min 0,0 UV-I 0 W/m 2,6 C 4,2 C 0,0 km/h (0 Bft)
04.02.2023 19:15 4,1 C 2,2 C 89 % 1039,1 hPa 0,0 l/m 0,0 km/h (0 Bft) N-NW 331 0 min 0,0 UV-I 0 W/m 2,5 C 4,1 C 0,0 km/h (0 Bft)
04.02.2023 19:18 4,0 C 2,2 C 89 % 1039,1 hPa 0,0 l/m 0,0 km/h (0 Bft) N-NW 331 0 min 0,0 UV-I 0 W/m 2,4 C 4,0 C 0,0 km/h (0 Bft)
04.02.2023 19:21 3,8 C 2,2 C 89 % 1039,2 hPa 0,0 l/m 0,0 km/h (0 Bft) N-NW 331 0 min 0,0 UV-I 0 W/m 2,2 C 3,8 C 0,0 km/h (0 Bft)
04.02.2023 19:24 3,8 C 1,7 C 90 % 1039,2 hPa 0,0 l/m 0,0 km/h (0 Bft) N-NW 331 0 min 0,0 UV-I 0 W/m 2,3 C 3,8 C 0,0 km/h (0 Bft)
04.02.2023 19:27 3,7 C 1,7 C 90 % 1039,1 hPa 0,0 l/m 0,0 km/h (0 Bft) N-NW 331 0 min 0,0 UV-I 0 W/m 2,2 C 3,7 C 0,0 km/h (0 Bft)
04.02.2023 19:30 3,7 C 1,7 C 90 % 1039,2 hPa 0,0 l/m 0,0 km/h (0 Bft) N-NW 331 0 min 0,0 UV-I 0 W/m 2,2 C 3,7 C 0,0 km/h (0 Bft)
04.02.2023 19:33 3,4 C 1,7 C 90 % 1039,2 hPa 0,0 l/m 0,0 km/h (0 Bft) N-NW 331 0 min 0,0 UV-I 0 W/m 1,9 C 3,4 C 0,0 km/h (0 Bft)
04.02.2023 19:36 3,3 C 1,7 C 90 % 1039,2 hPa 0,0 l/m 0,0 km/h (0 Bft) N-NW 331 0 min 0,0 UV-I 0 W/m 1,8 C 3,3 C 0,0 km/h (0 Bft)
04.02.2023 19:39 3,3 C 1,1 C 90 % 1039,2 hPa 0,0 l/m 0,0 km/h (0 Bft) N-NW 331 0 min 0,0 UV-I 0 W/m 1,8 C 3,3 C 0,0 km/h (0 Bft)
04.02.2023 19:42 3,3 C 1,7 C 90 % 1039,2 hPa 0,0 l/m 0,0 km/h (0 Bft) N-NW 331 0 min 0,0 UV-I 0 W/m 1,8 C 3,3 C 0,0 km/h (0 Bft)
04.02.2023 19:45 3,2 C 1,7 C 90 % 1039,2 hPa 0,0 l/m 0,0 km/h (0 Bft) N-NW 331 0 min 0,0 UV-I 0 W/m 1,7 C 3,2 C 0,0 km/h (0 Bft)
04.02.2023 19:48 2,9 C 1,7 C 90 % 1039,2 hPa 0,0 l/m 0,0 km/h (0 Bft) N-NW 331 0 min 0,0 UV-I 0 W/m 1,4 C 2,9 C 0,0 km/h (0 Bft)
04.02.2023 19:51 2,8 C 1,7 C 90 % 1039,2 hPa 0,0 l/m 0,0 km/h (0 Bft) N-NW 331 0 min 0,0 UV-I 0 W/m 1,3 C 2,8 C 0,0 km/h (0 Bft)
04.02.2023 19:54 2,9 C 1,7 C 91 % 1039,1 hPa 0,0 l/m 0,0 km/h (0 Bft) N-NW 331 0 min 0,0 UV-I 0 W/m 1,6 C 2,9 C 0,0 km/h (0 Bft)
04.02.2023 19:57 2,9 C 1,7 C 91 % 1039,2 hPa 0,0 l/m 0,0 km/h (0 Bft) N-NW 331 0 min 0,0 UV-I 0 W/m 1,6 C 2,9 C 0,0 km/h (0 Bft)
04.02.2023 20:00 3,0 C 1,7 C 91 % 1039,2 hPa 0,0 l/m 0,0 km/h (0 Bft) N-NW 331 0 min 0,0 UV-I 0 W/m 1,7 C 3,0 C 1,6 km/h (1 Bft)
04.02.2023 20:03 3,1 C 1,7 C 91 % 1039,3 hPa 0,0 l/m 0,0 km/h (0 Bft) N-NW 331 0 min 0,0 UV-I 0 W/m 1,8 C 3,1 C 0,0 km/h (0 Bft)
04.02.2023 20:06 3,1 C 1,7 C 91 % 1039,3 hPa 0,0 l/m 0,0 km/h (0 Bft) N-NW 331 0 min 0,0 UV-I 0 W/m 1,8 C 3,1 C 0,0 km/h (0 Bft)
04.02.2023 20:09 3,2 C 1,7 C 91 % 1039,2 hPa 0,0 l/m 0,0 km/h (0 Bft) N-NW 331 0 min 0,0 UV-I 0 W/m 1,9 C 3,2 C 0,0 km/h (0 Bft)
04.02.2023 20:12 3,1 C 1,7 C 91 % 1039,3 hPa 0,0 l/m 0,5 km/h (0 Bft) N-NW 331 0 min 0,0 UV-I 0 W/m 1,8 C 3,1 C 3,2 km/h (1 Bft)
04.02.2023 20:15 3,0 C 1,7 C 91 % 1039,2 hPa 0,0 l/m 1,5 km/h (1 Bft) N-NW 331 0 min 0,0 UV-I 0 W/m 1,7 C 3,0 C 3,2 km/h (1 Bft)
04.02.2023 20:18 2,9 C 1,1 C 91 % 1039,2 hPa 0,0 l/m 0,7 km/h (0 Bft) N-NW 331 0 min 0,0 UV-I 0 W/m 1,6 C 2,9 C 3,2 km/h (1 Bft)
04.02.2023 20:21 2,8 C 1,1 C 91 % 1039,2 hPa 0,0 l/m 0,4 km/h (0 Bft) N-NW 331 0 min 0,0 UV-I 0 W/m 1,5 C 2,8 C 1,6 km/h (1 Bft)
04.02.2023 20:24 2,6 C 1,1 C 91 % 1039,1 hPa 0,0 l/m 0,0 km/h (0 Bft) N-NW 331 0 min 0,0 UV-I 0 W/m 1,3 C 2,6 C 0,0 km/h (0 Bft)
04.02.2023 20:27 2,5 C 1,1 C 91 % 1039,2 hPa 0,0 l/m 0,0 km/h (0 Bft) N-NW 331 0 min 0,0 UV-I 0 W/m 1,2 C 2,5 C 0,0 km/h (0 Bft)
04.02.2023 20:30 2,4 C 1,1 C 91 % 1039,2 hPa 0,0 l/m 0,0 km/h (0 Bft) N-NW 331 0 min 0,0 UV-I 0 W/m 1,1 C 2,4 C 0,0 km/h (0 Bft)
04.02.2023 20:33 2,3 C 1,1 C 91 % 1039,2 hPa 0,0 l/m 0,0 km/h (0 Bft) N-NW 331 0 min 0,0 UV-I 0 W/m 1,0 C 2,3 C 0,0 km/h (0 Bft)
04.02.2023 20:36 2,4 C 1,7 C 91 % 1039,2 hPa 0,0 l/m 0,0 km/h (0 Bft) N-NW 331 0 min 0,0 UV-I 0 W/m 1,1 C 2,4 C 0,0 km/h (0 Bft)
04.02.2023 20:39 2,4 C 1,7 C 92 % 1039,3 hPa 0,0 l/m 0,0 km/h (0 Bft) N-NW 331 0 min 0,0 UV-I 0 W/m 1,2 C 2,4 C 0,0 km/h (0 Bft)
04.02.2023 20:42 2,5 C 1,1 C 92 % 1039,3 hPa 0,0 l/m 0,0 km/h (0 Bft) N-NW 331 0 min 0,0 UV-I 0 W/m 1,3 C 2,5 C 0,0 km/h (0 Bft)
04.02.2023 20:45 2,6 C 1,1 C 92 % 1039,2 hPa 0,0 l/m 0,0 km/h (0 Bft) N-NW 331 0 min 0,0 UV-I 0 W/m 1,4 C 2,6 C 0,0 km/h (0 Bft)
04.02.2023 20:48 2,6 C 1,1 C 92 % 1039,2 hPa 0,0 l/m 0,0 km/h (0 Bft) N-NW 331 0 min 0,0 UV-I 0 W/m 1,4 C 2,6 C 0,0 km/h (0 Bft)
04.02.2023 20:51 2,5 C 1,1 C 92 % 1039,3 hPa 0,0 l/m 0,0 km/h (0 Bft) N-NW 331 0 min 0,0 UV-I 0 W/m 1,3 C 2,5 C 0,0 km/h (0 Bft)
04.02.2023 20:54 2,6 C 1,1 C 92 % 1039,2 hPa 0,0 l/m 0,0 km/h (0 Bft) N-NW 331 0 min 0,0 UV-I 0 W/m 1,4 C 2,6 C 0,0 km/h (0 Bft)
04.02.2023 20:57 2,6 C 1,7 C 92 % 1039,2 hPa 0,0 l/m 0,0 km/h (0 Bft) N-NW 331 0 min 0,0 UV-I 0 W/m 1,4 C 2,6 C 0,0 km/h (0 Bft)
04.02.2023 21:00 2,6 C 1,7 C 92 % 1039,2 hPa 0,0 l/m 0,0 km/h (0 Bft) N-NW 331 0 min 0,0 UV-I 0 W/m 1,4 C 2,6 C 0,0 km/h (0 Bft)
04.02.2023 21:03 2,6 C 1,7 C 92 % 1039,2 hPa 0,0 l/m 0,0 km/h (0 Bft) N-NW 331 0 min 0,0 UV-I 0 W/m 1,4 C 2,6 C 0,0 km/h (0 Bft)
04.02.2023 21:06 2,6 C 1,7 C 92 % 1039,2 hPa 0,0 l/m 0,0 km/h (0 Bft) N-NW 331 0 min 0,0 UV-I 0 W/m 1,4 C 2,6 C 0,0 km/h (0 Bft)
04.02.2023 21:09 2,6 C 1,7 C 92 % 1039,3 hPa 0,0 l/m 0,0 km/h (0 Bft) N-NW 331 0 min 0,0 UV-I 0 W/m 1,4 C 2,6 C 0,0 km/h (0 Bft)
04.02.2023 21:12 2,6 C 1,7 C 92 % 1039,4 hPa 0,0 l/m 0,0 km/h (0 Bft) N-NW 331 0 min 0,0 UV-I 0 W/m 1,4 C 2,6 C 0,0 km/h (0 Bft)
04.02.2023 21:15 2,6 C 1,7 C 92 % 1039,3 hPa 0,0 l/m 0,0 km/h (0 Bft) N-NW 331 0 min 0,0 UV-I 0 W/m 1,4 C 2,6 C 0,0 km/h (0 Bft)
04.02.2023 21:18 2,6 C 1,7 C 92 % 1039,3 hPa 0,0 l/m 0,0 km/h (0 Bft) N-NW 331 0 min 0,0 UV-I 0 W/m 1,4 C 2,6 C 0,0 km/h (0 Bft)
04.02.2023 21:21 2,6 C 1,7 C 92 % 1039,4 hPa 0,0 l/m 0,0 km/h (0 Bft) N-NW 331 0 min 0,0 UV-I 0 W/m 1,4 C 2,6 C 0,0 km/h (0 Bft)
04.02.2023 21:24 2,6 C 1,7 C 92 % 1039,3 hPa 0,0 l/m 0,0 km/h (0 Bft) N-NW 331 0 min 0,0 UV-I 0 W/m 1,4 C 2,6 C 0,0 km/h (0 Bft)
04.02.2023 21:27 2,6 C 1,7 C 92 % 1039,3 hPa 0,0 l/m 0,0 km/h (0 Bft) N-NW 331 0 min 0,0 UV-I 0 W/m 1,4 C 2,6 C 0,0 km/h (0 Bft)
04.02.2023 21:30 2,6 C 1,7 C 92 % 1039,3 hPa 0,0 l/m 0,0 km/h (0 Bft) N-NW 331 0 min 0,0 UV-I 0 W/m 1,4 C 2,6 C 0,0 km/h (0 Bft)
04.02.2023 21:33 2,6 C 2,2 C 92 % 1039,4 hPa 0,0 l/m 0,0 km/h (0 Bft) N-NW 331 0 min 0,0 UV-I 0 W/m 1,4 C 2,6 C 0,0 km/h (0 Bft)
04.02.2023 21:36 2,6 C 2,2 C 92 % 1039,4 hPa 0,0 l/m 0,0 km/h (0 Bft) N-NW 331 0 min 0,0 UV-I 0 W/m 1,4 C 2,6 C 0,0 km/h (0 Bft)
04.02.2023 21:39 2,6 C 2,2 C 92 % 1039,4 hPa 0,0 l/m 0,0 km/h (0 Bft) N-NW 331 0 min 0,0 UV-I 0 W/m 1,4 C 2,6 C 0,0 km/h (0 Bft)
04.02.2023 21:42 2,7 C 2,2 C 92 % 1039,5 hPa 0,0 l/m 0,0 km/h (0 Bft) N-NW 331 0 min 0,0 UV-I 0 W/m 1,5 C 2,7 C 0,0 km/h (0 Bft)
04.02.2023 21:45 2,7 C 2,2 C 92 % 1039,4 hPa 0,0 l/m 0,0 km/h (0 Bft) N-NW 331 0 min 0,0 UV-I 0 W/m 1,5 C 2,7 C 0,0 km/h (0 Bft)
04.02.2023 21:48 2,7 C 2,8 C 92 % 1039,5 hPa 0,0 l/m 0,0 km/h (0 Bft) N-NW 331 0 min 0,0 UV-I 0 W/m 1,5 C 2,7 C 0,0 km/h (0 Bft)
04.02.2023 21:51 2,7 C 2,8 C 92 % 1039,5 hPa 0,0 l/m 0,0 km/h (0 Bft) N-NW 331 0 min 0,0 UV-I 0 W/m 1,5 C 2,7 C 0,0 km/h (0 Bft)
04.02.2023 21:54 2,7 C 2,2 C 92 % 1039,5 hPa 0,0 l/m 0,0 km/h (0 Bft) N-NW 331 0 min 0,0 UV-I 0 W/m 1,5 C 2,7 C 0,0 km/h (0 Bft)
04.02.2023 21:57 2,7 C 2,2 C 92 % 1039,5 hPa 0,0 l/m 0,0 km/h (0 Bft) N-NW 331 0 min 0,0 UV-I 0 W/m 1,5 C 2,7 C 0,0 km/h (0 Bft)
04.02.2023 22:00 2,7 C 2,2 C 92 % 1039,6 hPa 0,0 l/m 0,0 km/h (0 Bft) N-NW 331 0 min 0,0 UV-I 0 W/m 1,5 C 2,7 C 0,0 km/h (0 Bft)
04.02.2023 22:03 2,7 C 2,2 C 92 % 1039,3 hPa 0,0 l/m 0,0 km/h (0 Bft) N-NW 331 0 min 0,0 UV-I 0 W/m 1,5 C 2,7 C 0,0 km/h (0 Bft)
04.02.2023 22:06 2,7 C 2,2 C 92 % 1039,3 hPa 0,0 l/m 0,0 km/h (0 Bft) N-NW 331 0 min 0,0 UV-I 0 W/m 1,5 C 2,7 C 0,0 km/h (0 Bft)
04.02.2023 22:09 2,7 C 2,2 C 92 % 1039,2 hPa 0,0 l/m 0,0 km/h (0 Bft) N-NW 331 0 min 0,0 UV-I 0 W/m 1,5 C 2,7 C 0,0 km/h (0 Bft)
04.02.2023 22:12 2,7 C 2,2 C 92 % 1039,2 hPa 0,0 l/m 0,0 km/h (0 Bft) N-NW 331 0 min 0,0 UV-I 0 W/m 1,5 C 2,7 C 0,0 km/h (0 Bft)
04.02.2023 22:15 2,7 C 2,2 C 92 % 1039,2 hPa 0,0 l/m 0,1 km/h (0 Bft) N-NW 331 0 min 0,0 UV-I 0 W/m 1,5 C 2,7 C 1,6 km/h (1 Bft)
04.02.2023 22:18 2,7 C 2,2 C 92 % 1039,3 hPa 0,0 l/m 0,0 km/h (0 Bft) N-NW 331 0 min 0,0 UV-I 0 W/m 1,5 C 2,7 C 0,0 km/h (0 Bft)
04.02.2023 22:21 2,8 C 2,2 C 92 % 1039,3 hPa 0,0 l/m 0,0 km/h (0 Bft) N-NW 331 0 min 0,0 UV-I 0 W/m 1,6 C 2,8 C 0,0 km/h (0 Bft)
04.02.2023 22:24 2,8 C 2,2 C 92 % 1039,3 hPa 0,0 l/m 0,0 km/h (0 Bft) N-NW 331 0 min 0,0 UV-I 0 W/m 1,6 C 2,8 C 0,0 km/h (0 Bft)
04.02.2023 22:27 2,8 C 2,2 C 92 % 1039,2 hPa 0,0 l/m 0,0 km/h (0 Bft) N-NW 331 0 min 0,0 UV-I 0 W/m 1,6 C 2,8 C 0,0 km/h (0 Bft)
04.02.2023 22:30 2,8 C 2,8 C 92 % 1039,2 hPa 0,0 l/m 0,0 km/h (0 Bft) N-NW 331 0 min 0,0 UV-I 0 W/m 1,6 C 2,8 C 0,0 km/h (0 Bft)
04.02.2023 22:33 2,8 C 2,8 C 92 % 1039,2 hPa 0,0 l/m 0,0 km/h (0 Bft) N-NW 331 0 min 0,0 UV-I 0 W/m 1,6 C 2,8 C 0,0 km/h (0 Bft)
04.02.2023 22:36 2,8 C 2,8 C 92 % 1039,2 hPa 0,0 l/m 0,0 km/h (0 Bft) N-NW 331 0 min 0,0 UV-I 0 W/m 1,6 C 2,8 C 0,0 km/h (0 Bft)
04.02.2023 22:39 2,8 C 2,8 C 92 % 1039,4 hPa 0,0 l/m 0,0 km/h (0 Bft) N-NW 331 0 min 0,0 UV-I 0 W/m 1,6 C 2,8 C 0,0 km/h (0 Bft)
04.02.2023 22:42 2,8 C 2,8 C 92 % 1039,6 hPa 0,0 l/m 0,0 km/h (0 Bft) N-NW 331 0 min 0,0 UV-I 0 W/m 1,6 C 2,8 C 0,0 km/h (0 Bft)
04.02.2023 22:45 2,8 C 2,8 C 92 % 1039,5 hPa 0,0 l/m 0,0 km/h (0 Bft) N-NW 331 0 min 0,0 UV-I 0 W/m 1,6 C 2,8 C 0,0 km/h (0 Bft)
04.02.2023 22:48 2,8 C 2,8 C 92 % 1039,4 hPa 0,0 l/m 0,0 km/h (0 Bft) N-NW 331 0 min 0,0 UV-I 0 W/m 1,6 C 2,8 C 0,0 km/h (0 Bft)
04.02.2023 22:51 2,9 C 2,8 C 92 % 1039,5 hPa 0,0 l/m 0,0 km/h (0 Bft) N-NW 331 0 min 0,0 UV-I 0 W/m 1,7 C 2,9 C 0,0 km/h (0 Bft)
04.02.2023 22:54 2,8 C 2,8 C 92 % 1039,3 hPa 0,0 l/m 0,0 km/h (0 Bft) N-NW 331 0 min 0,0 UV-I 0 W/m 1,6 C 2,8 C 0,0 km/h (0 Bft)
04.02.2023 22:57 2,9 C 2,8 C 92 % 1039,3 hPa 0,0 l/m 0,0 km/h (0 Bft) N-NW 331 0 min 0,0 UV-I 0 W/m 1,7 C 2,9 C 0,0 km/h (0 Bft)
04.02.2023 23:00 2,9 C 2,8 C 92 % 1039,4 hPa 0,0 l/m 0,0 km/h (0 Bft) N-NW 331 0 min 0,0 UV-I 0 W/m 1,7 C 2,9 C 0,0 km/h (0 Bft)
04.02.2023 23:03 2,9 C 2,8 C 92 % 1039,4 hPa 0,0 l/m 0,0 km/h (0 Bft) N-NW 331 0 min 0,0 UV-I 0 W/m 1,7 C 2,9 C 0,0 km/h (0 Bft)
04.02.2023 23:06 2,9 C 2,8 C 92 % 1039,3 hPa 0,0 l/m 0,0 km/h (0 Bft) N-NW 331 0 min 0,0 UV-I 0 W/m 1,7 C 2,9 C 0,0 km/h (0 Bft)
04.02.2023 23:09 3,0 C 2,8 C 92 % 1039,3 hPa 0,0 l/m 0,0 km/h (0 Bft) N-NW 331 0 min 0,0 UV-I 0 W/m 1,8 C 3,0 C 0,0 km/h (0 Bft)
04.02.2023 23:12 3,0 C 2,8 C 92 % 1039,3 hPa 0,0 l/m 0,0 km/h (0 Bft) N-NW 331 0 min 0,0 UV-I 0 W/m 1,8 C 3,0 C 0,0 km/h (0 Bft)
04.02.2023 23:15 3,1 C 2,8 C 92 % 1039,2 hPa 0,0 l/m 0,0 km/h (0 Bft) N-NW 331 0 min 0,0 UV-I 0 W/m 1,9 C 3,1 C 0,0 km/h (0 Bft)
04.02.2023 23:18 3,1 C 2,8 C 92 % 1039,4 hPa 0,0 l/m 0,0 km/h (0 Bft) N-NW 331 0 min 0,0 UV-I 0 W/m 1,9 C 3,1 C 0,0 km/h (0 Bft)
04.02.2023 23:21 3,1 C 2,8 C 92 % 1039,3 hPa 0,0 l/m 0,0 km/h (0 Bft) N-NW 331 0 min 0,0 UV-I 0 W/m 1,9 C 3,1 C 0,0 km/h (0 Bft)
04.02.2023 23:24 3,1 C 2,8 C 92 % 1039,3 hPa 0,0 l/m 0,0 km/h (0 Bft) N-NW 331 0 min 0,0 UV-I 0 W/m 1,9 C 3,1 C 0,0 km/h (0 Bft)
04.02.2023 23:27 3,1 C 2,8 C 92 % 1039,3 hPa 0,0 l/m 0,0 km/h (0 Bft) N-NW 331 0 min 0,0 UV-I 0 W/m 1,9 C 3,1 C 0,0 km/h (0 Bft)
04.02.2023 23:30 3,2 C 2,8 C 92 % 1039,2 hPa 0,0 l/m 0,0 km/h (0 Bft) N-NW 331 0 min 0,0 UV-I 0 W/m 2,0 C 3,2 C 0,0 km/h (0 Bft)
04.02.2023 23:33 3,2 C 2,8 C 92 % 1039,3 hPa 0,0 l/m 0,0 km/h (0 Bft) N-NW 331 0 min 0,0 UV-I 0 W/m 2,0 C 3,2 C 0,0 km/h (0 Bft)
04.02.2023 23:36 3,2 C 3,3 C 92 % 1039,3 hPa 0,0 l/m 0,0 km/h (0 Bft) N-NW 331 0 min 0,0 UV-I 0 W/m 2,0 C 3,2 C 0,0 km/h (0 Bft)
04.02.2023 23:39 3,2 C 3,3 C 92 % 1039,3 hPa 0,0 l/m 0,0 km/h (0 Bft) N-NW 331 0 min 0,0 UV-I 0 W/m 2,0 C 3,2 C 0,0 km/h (0 Bft)
04.02.2023 23:42 3,3 C 3,3 C 92 % 1039,3 hPa 0,0 l/m 0,0 km/h (0 Bft) N-NW 331 0 min 0,0 UV-I 0 W/m 2,1 C 3,3 C 0,0 km/h (0 Bft)
04.02.2023 23:45 3,3 C 2,8 C 92 % 1039,3 hPa 0,0 l/m 0,0 km/h (0 Bft) N-NW 331 0 min 0,0 UV-I 0 W/m 2,1 C 3,3 C 0,0 km/h (0 Bft)
04.02.2023 23:48 3,3 C 2,8 C 92 % 1039,2 hPa 0,0 l/m 0,1 km/h (0 Bft) N-NW 331 0 min 0,0 UV-I 0 W/m 2,1 C 3,3 C 1,6 km/h (1 Bft)
04.02.2023 23:51 3,3 C 2,8 C 92 % 1039,3 hPa 0,0 l/m 0,3 km/h (0 Bft) N-NW 331 0 min 0,0 UV-I 0 W/m 2,1 C 3,3 C 3,2 km/h (1 Bft)
04.02.2023 23:54 3,3 C 2,8 C 92 % 1039,1 hPa 0,0 l/m 0,0 km/h (0 Bft) N-NW 331 0 min 0,0 UV-I 0 W/m 2,1 C 3,3 C 1,6 km/h (1 Bft)
04.02.2023 23:57 3,3 C 2,8 C 92 % 1039,1 hPa 0,0 l/m 0,0 km/h (0 Bft) N-NW 331 0 min 0,0 UV-I 0 W/m 2,1 C 3,3 C 1,6 km/h (1 Bft)
04.02.2023 23:58 3,3 C 2,8 C 92 % 1039,2 hPa 0,0 l/m 0,0 km/h (0 Bft) N 0 0 min 0,0 UV-I 0 W/m 2,1 C 3,3 C 0,0 km/h (0 Bft)
04.02.2023 23:59 3,3 C 2,8 C 92 % 1039,1 hPa 0,0 l/m 0,0 km/h (0 Bft) N 0 0 min 0,0 UV-I 0 W/m 2,1 C 3,3 C 0,0 km/h (0 Bft)
_ Min-Zeit 20:33 08:32 13:36 00:12 - 00:01 - - - - - 20:33 01:07 00:37
Minimum _ 2,3 C 1,1 C 78 % 1032,8 hPa - 0,0 km/h (0 Bft) - - - - - 1,0 C 0,3 C 0,0 km/h (0 Bft)
_ Max-Zeit 13:51 11:24 00:26 22:00 00:33 01:07 - - 11:12 11:54 11:24 00:26 13:51 01:09
Maximum _ 6,6 C 12,2 C 93 % 1039,6 hPa 0,2 l/m 14,5 km/h
NW (3 Bft)
- - 3 min 1,3 UV-I 367 W/m 5,5 C 6,6 C 20,9 km/h
N-NW (4 Bft)
Durchschnitt _ 4,5 C 4,8 C 89 % 1036,9 hPa #0,2 l/m 1,9 km/h (1 Bft) N-NW - #39 min. 0,9 UV-I 126 W/m 2,8 C 4,4 C 3,9 km/h (1 Bft)